<?xml version="1.0" encoding="UTF-8" standalone="no" ?>
<gpx xmlns="http://www.topografix.com/GPX/1/1" xmlns:xsi="http://www.w3.org/2001/XMLSchema-instance" xsi:schemaLocation="http://www.topografix.com/GPX/1/1 http://www.topografix.com/GPX/1/1/gpx.xsd" version="1.1" creator="VisuGPX - https://www.visugpx.com">
  <metadata>
    <name>Forêt de crecy</name>
    <desc><![CDATA[
]]></desc>
  </metadata>
  <trk>
    <name><![CDATA[Forêt de crecy]]></name>
    <trkseg>
      <trkpt lat="50.22605" lon="1.86519">
        <ele>86.718116760254</ele>
        <time>2019-05-07T20:53:42.000Z</time>
      </trkpt>
      <trkpt lat="50.22625" lon="1.86543">
        <ele>87.285911560059</ele>
        <time>2019-05-07T20:53:42.005Z</time>
      </trkpt>
      <trkpt lat="50.22642" lon="1.86561">
        <ele>87.566261291504</ele>
        <time>2019-05-07T20:53:42.014Z</time>
      </trkpt>
      <trkpt lat="50.22666" lon="1.86582">
        <ele>87.664344787598</ele>
        <time>2019-05-07T20:53:42.029Z</time>
      </trkpt>
      <trkpt lat="50.22692" lon="1.86609">
        <ele>87.678024291992</ele>
        <time>2019-05-07T20:53:42.050Z</time>
      </trkpt>
      <trkpt lat="50.22702" lon="1.86617">
        <ele>87.658210754395</ele>
        <time>2019-05-07T20:53:42.073Z</time>
      </trkpt>
      <trkpt lat="50.22722" lon="1.86639">
        <ele>87.90461730957</ele>
        <time>2019-05-07T20:53:42.101Z</time>
      </trkpt>
      <trkpt lat="50.22744" lon="1.86661">
        <ele>88.379196166992</ele>
        <time>2019-05-07T20:53:42.134Z</time>
      </trkpt>
      <trkpt lat="50.22758" lon="1.86676">
        <ele>88.548248291016</ele>
        <time>2019-05-07T20:53:42.171Z</time>
      </trkpt>
      <trkpt lat="50.22769" lon="1.86693">
        <ele>88.683609008789</ele>
        <time>2019-05-07T20:53:42.211Z</time>
      </trkpt>
      <trkpt lat="50.22789" lon="1.86713">
        <ele>88.918632507324</ele>
        <time>2019-05-07T20:53:42.256Z</time>
      </trkpt>
      <trkpt lat="50.22808" lon="1.86734">
        <ele>89</ele>
        <time>2019-05-07T20:53:42.305Z</time>
      </trkpt>
      <trkpt lat="50.2284" lon="1.86742">
        <ele>88.972724914551</ele>
        <time>2019-05-07T20:53:42.361Z</time>
      </trkpt>
      <trkpt lat="50.22856" lon="1.8676">
        <ele>88.748657226562</ele>
        <time>2019-05-07T20:53:42.421Z</time>
      </trkpt>
      <trkpt lat="50.22867" lon="1.86777">
        <ele>88.548934936523</ele>
        <time>2019-05-07T20:53:42.484Z</time>
      </trkpt>
      <trkpt lat="50.22885" lon="1.86788">
        <ele>88.574111938477</ele>
        <time>2019-05-07T20:53:42.551Z</time>
      </trkpt>
      <trkpt lat="50.229" lon="1.86805">
        <ele>88.722045898438</ele>
        <time>2019-05-07T20:53:42.621Z</time>
      </trkpt>
      <trkpt lat="50.22922" lon="1.86825">
        <ele>89.058547973633</ele>
        <time>2019-05-07T20:53:42.697Z</time>
      </trkpt>
      <trkpt lat="50.22955" lon="1.86844">
        <ele>90.068939208984</ele>
        <time>2019-05-07T20:53:42.779Z</time>
      </trkpt>
      <trkpt lat="50.22973" lon="1.86871">
        <ele>90.572975158691</ele>
        <time>2019-05-07T20:53:42.866Z</time>
      </trkpt>
      <trkpt lat="50.22994" lon="1.86902">
        <ele>90.951713562012</ele>
        <time>2019-05-07T20:53:42.959Z</time>
      </trkpt>
      <trkpt lat="50.23004" lon="1.86899">
        <ele>90.918426513672</ele>
        <time>2019-05-07T20:53:43.054Z</time>
      </trkpt>
      <trkpt lat="50.23013" lon="1.86887">
        <ele>90.776023864746</ele>
        <time>2019-05-07T20:53:43.152Z</time>
      </trkpt>
      <trkpt lat="50.23037" lon="1.8686">
        <ele>90.892875671387</ele>
        <time>2019-05-07T20:53:43.256Z</time>
      </trkpt>
      <trkpt lat="50.23058" lon="1.86833">
        <ele>91.302253723145</ele>
        <time>2019-05-07T20:53:43.365Z</time>
      </trkpt>
      <trkpt lat="50.23079" lon="1.86794">
        <ele>91.798248291016</ele>
        <time>2019-05-07T20:53:43.481Z</time>
      </trkpt>
      <trkpt lat="50.23097" lon="1.86767">
        <ele>91.653121948242</ele>
        <time>2019-05-07T20:53:43.602Z</time>
      </trkpt>
      <trkpt lat="50.23117" lon="1.86739">
        <ele>91</ele>
        <time>2019-05-07T20:53:43.728Z</time>
      </trkpt>
      <trkpt lat="50.23134" lon="1.86714">
        <ele>90.699630737305</ele>
        <time>2019-05-07T20:53:43.859Z</time>
      </trkpt>
      <trkpt lat="50.23165" lon="1.8668">
        <ele>90.581390380859</ele>
        <time>2019-05-07T20:53:43.997Z</time>
      </trkpt>
      <trkpt lat="50.23186" lon="1.86648">
        <ele>91.468383789062</ele>
        <time>2019-05-07T20:53:44.141Z</time>
      </trkpt>
      <trkpt lat="50.23196" lon="1.86635">
        <ele>91.809364318848</ele>
        <time>2019-05-07T20:53:44.288Z</time>
      </trkpt>
      <trkpt lat="50.23207" lon="1.86622">
        <ele>91.933563232422</ele>
        <time>2019-05-07T20:53:44.438Z</time>
      </trkpt>
      <trkpt lat="50.23216" lon="1.86608">
        <ele>92</ele>
        <time>2019-05-07T20:53:44.590Z</time>
      </trkpt>
      <trkpt lat="50.23223" lon="1.86594">
        <ele>92</ele>
        <time>2019-05-07T20:53:44.744Z</time>
      </trkpt>
      <trkpt lat="50.2325" lon="1.86552">
        <ele>91.545204162598</ele>
        <time>2019-05-07T20:53:44.906Z</time>
      </trkpt>
      <trkpt lat="50.23267" lon="1.86531">
        <ele>91.34065246582</ele>
        <time>2019-05-07T20:53:45.072Z</time>
      </trkpt>
      <trkpt lat="50.23288" lon="1.86499">
        <ele>91.091850280762</ele>
        <time>2019-05-07T20:53:45.244Z</time>
      </trkpt>
      <trkpt lat="50.23313" lon="1.86447">
        <ele>89.187210083008</ele>
        <time>2019-05-07T20:53:45.425Z</time>
      </trkpt>
      <trkpt lat="50.23348" lon="1.86397">
        <ele>87.825004577637</ele>
        <time>2019-05-07T20:53:45.615Z</time>
      </trkpt>
      <trkpt lat="50.23382" lon="1.86353">
        <ele>87.838157653809</ele>
        <time>2019-05-07T20:53:45.814Z</time>
      </trkpt>
      <trkpt lat="50.23411" lon="1.86304">
        <ele>89.382713317871</ele>
        <time>2019-05-07T20:53:46.022Z</time>
      </trkpt>
      <trkpt lat="50.23423" lon="1.86289">
        <ele>90.464805603027</ele>
        <time>2019-05-07T20:53:46.233Z</time>
      </trkpt>
      <trkpt lat="50.2344" lon="1.86268">
        <ele>90.82048034668</ele>
        <time>2019-05-07T20:53:46.448Z</time>
      </trkpt>
      <trkpt lat="50.23467" lon="1.86231">
        <ele>91</ele>
        <time>2019-05-07T20:53:46.670Z</time>
      </trkpt>
      <trkpt lat="50.2349" lon="1.86192">
        <ele>91</ele>
        <time>2019-05-07T20:53:46.899Z</time>
      </trkpt>
      <trkpt lat="50.23518" lon="1.86141">
        <ele>91</ele>
        <time>2019-05-07T20:53:47.137Z</time>
      </trkpt>
      <trkpt lat="50.23565" lon="1.86078">
        <ele>88.480415344238</ele>
        <time>2019-05-07T20:53:47.387Z</time>
      </trkpt>
      <trkpt lat="50.23589" lon="1.86039">
        <ele>85.470497131348</ele>
        <time>2019-05-07T20:53:47.644Z</time>
      </trkpt>
      <trkpt lat="50.23599" lon="1.86024">
        <ele>83.613990783691</ele>
        <time>2019-05-07T20:53:47.904Z</time>
      </trkpt>
      <trkpt lat="50.23617" lon="1.85993">
        <ele>79.802131652832</ele>
        <time>2019-05-07T20:53:48.169Z</time>
      </trkpt>
      <trkpt lat="50.23629" lon="1.85994">
        <ele>78.187721252441</ele>
        <time>2019-05-07T20:53:48.437Z</time>
      </trkpt>
      <trkpt lat="50.23637" lon="1.86008">
        <ele>78.428573608398</ele>
        <time>2019-05-07T20:53:48.707Z</time>
      </trkpt>
      <trkpt lat="50.23645" lon="1.86025">
        <ele>78.750686645508</ele>
        <time>2019-05-07T20:53:48.980Z</time>
      </trkpt>
      <trkpt lat="50.2365" lon="1.86041">
        <ele>79.177192687988</ele>
        <time>2019-05-07T20:53:49.255Z</time>
      </trkpt>
      <trkpt lat="50.23663" lon="1.86056">
        <ele>79.139373779297</ele>
        <time>2019-05-07T20:53:49.533Z</time>
      </trkpt>
      <trkpt lat="50.23681" lon="1.86077">
        <ele>79.04093170166</ele>
        <time>2019-05-07T20:53:49.816Z</time>
      </trkpt>
      <trkpt lat="50.23698" lon="1.86098">
        <ele>78.78458404541</ele>
        <time>2019-05-07T20:53:50.103Z</time>
      </trkpt>
      <trkpt lat="50.23706" lon="1.86111">
        <ele>78.793037414551</ele>
        <time>2019-05-07T20:53:50.392Z</time>
      </trkpt>
      <trkpt lat="50.23711" lon="1.86128">
        <ele>79.091613769531</ele>
        <time>2019-05-07T20:53:50.684Z</time>
      </trkpt>
      <trkpt lat="50.23715" lon="1.86143">
        <ele>79.318183898926</ele>
        <time>2019-05-07T20:53:50.978Z</time>
      </trkpt>
      <trkpt lat="50.23727" lon="1.86158">
        <ele>79.015579223633</ele>
        <time>2019-05-07T20:53:51.275Z</time>
      </trkpt>
      <trkpt lat="50.23739" lon="1.86173">
        <ele>78.712066650391</ele>
        <time>2019-05-07T20:53:51.575Z</time>
      </trkpt>
      <trkpt lat="50.23746" lon="1.86186">
        <ele>78.621559143066</ele>
        <time>2019-05-07T20:53:51.877Z</time>
      </trkpt>
      <trkpt lat="50.23758" lon="1.86204">
        <ele>78.486831665039</ele>
        <time>2019-05-07T20:53:52.182Z</time>
      </trkpt>
      <trkpt lat="50.23766" lon="1.86223">
        <ele>78.898849487305</ele>
        <time>2019-05-07T20:53:52.490Z</time>
      </trkpt>
      <trkpt lat="50.2378" lon="1.86249">
        <ele>78.934799194336</ele>
        <time>2019-05-07T20:53:52.803Z</time>
      </trkpt>
      <trkpt lat="50.23792" lon="1.86271">
        <ele>78.876472473145</ele>
        <time>2019-05-07T20:53:53.119Z</time>
      </trkpt>
      <trkpt lat="50.23799" lon="1.86282">
        <ele>78.805107116699</ele>
        <time>2019-05-07T20:53:53.437Z</time>
      </trkpt>
      <trkpt lat="50.23806" lon="1.86294">
        <ele>78.785293579102</ele>
        <time>2019-05-07T20:53:53.757Z</time>
      </trkpt>
      <trkpt lat="50.23812" lon="1.86305">
        <ele>78.806617736816</ele>
        <time>2019-05-07T20:53:54.079Z</time>
      </trkpt>
      <trkpt lat="50.23824" lon="1.86325">
        <ele>78.715446472168</ele>
        <time>2019-05-07T20:53:54.405Z</time>
      </trkpt>
      <trkpt lat="50.2383" lon="1.8634">
        <ele>78.557052612305</ele>
        <time>2019-05-07T20:53:54.733Z</time>
      </trkpt>
      <trkpt lat="50.23849" lon="1.86368">
        <ele>77.634056091309</ele>
        <time>2019-05-07T20:53:55.066Z</time>
      </trkpt>
      <trkpt lat="50.23859" lon="1.86382">
        <ele>77.074913024902</ele>
        <time>2019-05-07T20:53:55.402Z</time>
      </trkpt>
      <trkpt lat="50.23869" lon="1.86398">
        <ele>76.660766601562</ele>
        <time>2019-05-07T20:53:55.741Z</time>
      </trkpt>
      <trkpt lat="50.23877" lon="1.8641">
        <ele>76.348495483398</ele>
        <time>2019-05-07T20:53:56.082Z</time>
      </trkpt>
      <trkpt lat="50.23886" lon="1.86424">
        <ele>75.779029846191</ele>
        <time>2019-05-07T20:53:56.426Z</time>
      </trkpt>
      <trkpt lat="50.23887" lon="1.86451">
        <ele>76.661094665527</ele>
        <time>2019-05-07T20:53:56.773Z</time>
      </trkpt>
      <trkpt lat="50.23881" lon="1.86465">
        <ele>77.908012390137</ele>
        <time>2019-05-07T20:53:57.122Z</time>
      </trkpt>
      <trkpt lat="50.2388" lon="1.86491">
        <ele>78.928695678711</ele>
        <time>2019-05-07T20:53:57.475Z</time>
      </trkpt>
      <trkpt lat="50.23886" lon="1.86542">
        <ele>80.341552734375</ele>
        <time>2019-05-07T20:53:57.834Z</time>
      </trkpt>
      <trkpt lat="50.23884" lon="1.86567">
        <ele>82.029151916504</ele>
        <time>2019-05-07T20:53:58.197Z</time>
      </trkpt>
      <trkpt lat="50.23877" lon="1.86597">
        <ele>84.398010253906</ele>
        <time>2019-05-07T20:53:58.564Z</time>
      </trkpt>
      <trkpt lat="50.23873" lon="1.86612">
        <ele>85.460388183594</ele>
        <time>2019-05-07T20:53:58.933Z</time>
      </trkpt>
      <trkpt lat="50.23871" lon="1.86641">
        <ele>87.053756713867</ele>
        <time>2019-05-07T20:53:59.305Z</time>
      </trkpt>
      <trkpt lat="50.23868" lon="1.86656">
        <ele>87.68522644043</ele>
        <time>2019-05-07T20:53:59.680Z</time>
      </trkpt>
      <trkpt lat="50.23866" lon="1.86681">
        <ele>87.784088134766</ele>
        <time>2019-05-07T20:54:00.058Z</time>
      </trkpt>
      <trkpt lat="50.23864" lon="1.8671">
        <ele>87.91130065918</ele>
        <time>2019-05-07T20:54:00.440Z</time>
      </trkpt>
      <trkpt lat="50.23862" lon="1.86755">
        <ele>87.789367675781</ele>
        <time>2019-05-07T20:54:00.827Z</time>
      </trkpt>
      <trkpt lat="50.2386" lon="1.86773">
        <ele>88.095695495605</ele>
        <time>2019-05-07T20:54:01.217Z</time>
      </trkpt>
      <trkpt lat="50.23857" lon="1.86796">
        <ele>88.458641052246</ele>
        <time>2019-05-07T20:54:01.610Z</time>
      </trkpt>
      <trkpt lat="50.23856" lon="1.8681">
        <ele>88.317077636719</ele>
        <time>2019-05-07T20:54:02.004Z</time>
      </trkpt>
      <trkpt lat="50.23853" lon="1.86841">
        <ele>87.348777770996</ele>
        <time>2019-05-07T20:54:02.402Z</time>
      </trkpt>
      <trkpt lat="50.2385" lon="1.86858">
        <ele>86.734519958496</ele>
        <time>2019-05-07T20:54:02.803Z</time>
      </trkpt>
      <trkpt lat="50.23846" lon="1.86872">
        <ele>86.244560241699</ele>
        <time>2019-05-07T20:54:03.206Z</time>
      </trkpt>
      <trkpt lat="50.23841" lon="1.86885">
        <ele>85.54460144043</ele>
        <time>2019-05-07T20:54:03.611Z</time>
      </trkpt>
      <trkpt lat="50.2384" lon="1.86914">
        <ele>84.243865966797</ele>
        <time>2019-05-07T20:54:04.019Z</time>
      </trkpt>
      <trkpt lat="50.23837" lon="1.86934">
        <ele>83.49072265625</ele>
        <time>2019-05-07T20:54:04.430Z</time>
      </trkpt>
      <trkpt lat="50.23828" lon="1.8695">
        <ele>82.687553405762</ele>
        <time>2019-05-07T20:54:04.844Z</time>
      </trkpt>
      <trkpt lat="50.23815" lon="1.86963">
        <ele>81.752090454102</ele>
        <time>2019-05-07T20:54:05.261Z</time>
      </trkpt>
      <trkpt lat="50.23808" lon="1.86982">
        <ele>80.672813415527</ele>
        <time>2019-05-07T20:54:05.681Z</time>
      </trkpt>
      <trkpt lat="50.23793" lon="1.86974">
        <ele>80.603736877441</ele>
        <time>2019-05-07T20:54:06.104Z</time>
      </trkpt>
      <trkpt lat="50.23768" lon="1.8694">
        <ele>80.706214904785</ele>
        <time>2019-05-07T20:54:06.534Z</time>
      </trkpt>
      <trkpt lat="50.23748" lon="1.86923">
        <ele>80.363182067871</ele>
        <time>2019-05-07T20:54:06.968Z</time>
      </trkpt>
      <trkpt lat="50.23729" lon="1.869">
        <ele>80.391456604004</ele>
        <time>2019-05-07T20:54:07.407Z</time>
      </trkpt>
      <trkpt lat="50.23719" lon="1.8689">
        <ele>80.395988464355</ele>
        <time>2019-05-07T20:54:07.848Z</time>
      </trkpt>
      <trkpt lat="50.23703" lon="1.86873">
        <ele>80.661964416504</ele>
        <time>2019-05-07T20:54:08.293Z</time>
      </trkpt>
      <trkpt lat="50.23689" lon="1.86863">
        <ele>80.719085693359</ele>
        <time>2019-05-07T20:54:08.741Z</time>
      </trkpt>
      <trkpt lat="50.23674" lon="1.86848">
        <ele>81.094604492188</ele>
        <time>2019-05-07T20:54:09.193Z</time>
      </trkpt>
      <trkpt lat="50.23653" lon="1.86841">
        <ele>80.783653259277</ele>
        <time>2019-05-07T20:54:09.649Z</time>
      </trkpt>
      <trkpt lat="50.23641" lon="1.86836">
        <ele>80.630989074707</ele>
        <time>2019-05-07T20:54:10.108Z</time>
      </trkpt>
      <trkpt lat="50.23629" lon="1.86831">
        <ele>80.542900085449</ele>
        <time>2019-05-07T20:54:10.569Z</time>
      </trkpt>
      <trkpt lat="50.23619" lon="1.86827">
        <ele>80.842765808105</ele>
        <time>2019-05-07T20:54:11.032Z</time>
      </trkpt>
      <trkpt lat="50.23608" lon="1.86829">
        <ele>80.888832092285</ele>
        <time>2019-05-07T20:54:11.497Z</time>
      </trkpt>
      <trkpt lat="50.23586" lon="1.86835">
        <ele>80.759902954102</ele>
        <time>2019-05-07T20:54:11.967Z</time>
      </trkpt>
      <trkpt lat="50.23568" lon="1.86837">
        <ele>80.883499145508</ele>
        <time>2019-05-07T20:54:12.440Z</time>
      </trkpt>
      <trkpt lat="50.23556" lon="1.86847">
        <ele>80.728332519531</ele>
        <time>2019-05-07T20:54:12.916Z</time>
      </trkpt>
      <trkpt lat="50.23545" lon="1.86856">
        <ele>80.804206848145</ele>
        <time>2019-05-07T20:54:13.395Z</time>
      </trkpt>
      <trkpt lat="50.23537" lon="1.86863">
        <ele>80.759559631348</ele>
        <time>2019-05-07T20:54:13.875Z</time>
      </trkpt>
      <trkpt lat="50.23522" lon="1.86869">
        <ele>80.916641235352</ele>
        <time>2019-05-07T20:54:14.358Z</time>
      </trkpt>
      <trkpt lat="50.2351" lon="1.86882">
        <ele>80.99153137207</ele>
        <time>2019-05-07T20:54:14.844Z</time>
      </trkpt>
      <trkpt lat="50.23494" lon="1.86897">
        <ele>81.571189880371</ele>
        <time>2019-05-07T20:54:15.334Z</time>
      </trkpt>
      <trkpt lat="50.23478" lon="1.86903">
        <ele>82.279479980469</ele>
        <time>2019-05-07T20:54:15.828Z</time>
      </trkpt>
      <trkpt lat="50.23459" lon="1.86915">
        <ele>82.828346252441</ele>
        <time>2019-05-07T20:54:16.326Z</time>
      </trkpt>
      <trkpt lat="50.23446" lon="1.86917">
        <ele>82.927810668945</ele>
        <time>2019-05-07T20:54:16.826Z</time>
      </trkpt>
      <trkpt lat="50.23432" lon="1.86921">
        <ele>83.001022338867</ele>
        <time>2019-05-07T20:54:17.329Z</time>
      </trkpt>
      <trkpt lat="50.23417" lon="1.86926">
        <ele>83.065483093262</ele>
        <time>2019-05-07T20:54:17.835Z</time>
      </trkpt>
      <trkpt lat="50.23397" lon="1.86928">
        <ele>83.207794189453</ele>
        <time>2019-05-07T20:54:18.345Z</time>
      </trkpt>
      <trkpt lat="50.23379" lon="1.86926">
        <ele>83.298606872559</ele>
        <time>2019-05-07T20:54:18.859Z</time>
      </trkpt>
      <trkpt lat="50.23369" lon="1.86928">
        <ele>83.724632263184</ele>
        <time>2019-05-07T20:54:19.375Z</time>
      </trkpt>
      <trkpt lat="50.23354" lon="1.86937">
        <ele>84.104675292969</ele>
        <time>2019-05-07T20:54:19.894Z</time>
      </trkpt>
      <trkpt lat="50.2334" lon="1.86935">
        <ele>84.805824279785</ele>
        <time>2019-05-07T20:54:20.416Z</time>
      </trkpt>
      <trkpt lat="50.23327" lon="1.86942">
        <ele>85.269950866699</ele>
        <time>2019-05-07T20:54:20.941Z</time>
      </trkpt>
      <trkpt lat="50.23314" lon="1.8695">
        <ele>85.867111206055</ele>
        <time>2019-05-07T20:54:21.468Z</time>
      </trkpt>
      <trkpt lat="50.23303" lon="1.86951">
        <ele>86.454620361328</ele>
        <time>2019-05-07T20:54:21.998Z</time>
      </trkpt>
      <trkpt lat="50.23283" lon="1.86957">
        <ele>87.08797454834</ele>
        <time>2019-05-07T20:54:22.532Z</time>
      </trkpt>
      <trkpt lat="50.23267" lon="1.86957">
        <ele>87.443176269531</ele>
        <time>2019-05-07T20:54:23.069Z</time>
      </trkpt>
      <trkpt lat="50.23249" lon="1.86971">
        <ele>88.221046447754</ele>
        <time>2019-05-07T20:54:23.610Z</time>
      </trkpt>
      <trkpt lat="50.23236" lon="1.86976">
        <ele>88.878349304199</ele>
        <time>2019-05-07T20:54:24.154Z</time>
      </trkpt>
      <trkpt lat="50.23216" lon="1.86976">
        <ele>89.817230224609</ele>
        <time>2019-05-07T20:54:24.702Z</time>
      </trkpt>
      <trkpt lat="50.23204" lon="1.8698">
        <ele>90.307022094727</ele>
        <time>2019-05-07T20:54:25.252Z</time>
      </trkpt>
      <trkpt lat="50.23189" lon="1.86984">
        <ele>90.828659057617</ele>
        <time>2019-05-07T20:54:25.805Z</time>
      </trkpt>
      <trkpt lat="50.23178" lon="1.86987">
        <ele>91.242889404297</ele>
        <time>2019-05-07T20:54:26.360Z</time>
      </trkpt>
      <trkpt lat="50.23162" lon="1.86988">
        <ele>91.809478759766</ele>
        <time>2019-05-07T20:54:26.918Z</time>
      </trkpt>
      <trkpt lat="50.23147" lon="1.86988">
        <ele>92.352233886719</ele>
        <time>2019-05-07T20:54:27.480Z</time>
      </trkpt>
      <trkpt lat="50.23147" lon="1.87007">
        <ele>91.699325561523</ele>
        <time>2019-05-07T20:54:28.044Z</time>
      </trkpt>
      <trkpt lat="50.23155" lon="1.87021">
        <ele>90.971336364746</ele>
        <time>2019-05-07T20:54:28.610Z</time>
      </trkpt>
      <trkpt lat="50.23161" lon="1.87034">
        <ele>90.402130126953</ele>
        <time>2019-05-07T20:54:29.178Z</time>
      </trkpt>
      <trkpt lat="50.23174" lon="1.87062">
        <ele>89.089546203613</ele>
        <time>2019-05-07T20:54:29.751Z</time>
      </trkpt>
      <trkpt lat="50.23183" lon="1.87077">
        <ele>88.203277587891</ele>
        <time>2019-05-07T20:54:30.326Z</time>
      </trkpt>
      <trkpt lat="50.23186" lon="1.8709">
        <ele>87.41845703125</ele>
        <time>2019-05-07T20:54:30.903Z</time>
      </trkpt>
      <trkpt lat="50.23195" lon="1.87108">
        <ele>86.148109436035</ele>
        <time>2019-05-07T20:54:31.483Z</time>
      </trkpt>
      <trkpt lat="50.23203" lon="1.87118">
        <ele>85.288871765137</ele>
        <time>2019-05-07T20:54:32.065Z</time>
      </trkpt>
      <trkpt lat="50.23209" lon="1.8713">
        <ele>84.422393798828</ele>
        <time>2019-05-07T20:54:32.649Z</time>
      </trkpt>
      <trkpt lat="50.23214" lon="1.87142">
        <ele>83.501541137695</ele>
        <time>2019-05-07T20:54:33.235Z</time>
      </trkpt>
      <trkpt lat="50.23222" lon="1.8716">
        <ele>82.226699829102</ele>
        <time>2019-05-07T20:54:33.824Z</time>
      </trkpt>
      <trkpt lat="50.23235" lon="1.87183">
        <ele>80.788543701172</ele>
        <time>2019-05-07T20:54:34.417Z</time>
      </trkpt>
      <trkpt lat="50.23246" lon="1.87201">
        <ele>79.656272888184</ele>
        <time>2019-05-07T20:54:35.013Z</time>
      </trkpt>
      <trkpt lat="50.23262" lon="1.87225">
        <ele>77.975006103516</ele>
        <time>2019-05-07T20:54:35.613Z</time>
      </trkpt>
      <trkpt lat="50.23274" lon="1.87242">
        <ele>76.736335754395</ele>
        <time>2019-05-07T20:54:36.217Z</time>
      </trkpt>
      <trkpt lat="50.23292" lon="1.87269">
        <ele>74.585327148438</ele>
        <time>2019-05-07T20:54:36.826Z</time>
      </trkpt>
      <trkpt lat="50.23302" lon="1.87284">
        <ele>73.368782043457</ele>
        <time>2019-05-07T20:54:37.437Z</time>
      </trkpt>
      <trkpt lat="50.23316" lon="1.87311">
        <ele>71.588157653809</ele>
        <time>2019-05-07T20:54:38.053Z</time>
      </trkpt>
      <trkpt lat="50.23324" lon="1.87326">
        <ele>70.322196960449</ele>
        <time>2019-05-07T20:54:38.671Z</time>
      </trkpt>
      <trkpt lat="50.23336" lon="1.87337">
        <ele>68.46443939209</ele>
        <time>2019-05-07T20:54:39.292Z</time>
      </trkpt>
      <trkpt lat="50.23348" lon="1.87354">
        <ele>65.967483520508</ele>
        <time>2019-05-07T20:54:39.916Z</time>
      </trkpt>
      <trkpt lat="50.23355" lon="1.87374">
        <ele>63.69157409668</ele>
        <time>2019-05-07T20:54:40.543Z</time>
      </trkpt>
      <trkpt lat="50.2336" lon="1.87386">
        <ele>62.284351348877</ele>
        <time>2019-05-07T20:54:41.172Z</time>
      </trkpt>
      <trkpt lat="50.23361" lon="1.87403">
        <ele>61.67463684082</ele>
        <time>2019-05-07T20:54:41.803Z</time>
      </trkpt>
      <trkpt lat="50.23357" lon="1.87422">
        <ele>60.938514709473</ele>
        <time>2019-05-07T20:54:42.437Z</time>
      </trkpt>
      <trkpt lat="50.23355" lon="1.87446">
        <ele>59.171169281006</ele>
        <time>2019-05-07T20:54:43.074Z</time>
      </trkpt>
      <trkpt lat="50.23356" lon="1.87462">
        <ele>57.607364654541</ele>
        <time>2019-05-07T20:54:43.713Z</time>
      </trkpt>
      <trkpt lat="50.23344" lon="1.87479">
        <ele>59.17204284668</ele>
        <time>2019-05-07T20:54:44.355Z</time>
      </trkpt>
      <trkpt lat="50.23333" lon="1.87494">
        <ele>60.661426544189</ele>
        <time>2019-05-07T20:54:45.000Z</time>
      </trkpt>
      <trkpt lat="50.23326" lon="1.87512">
        <ele>61.346683502197</ele>
        <time>2019-05-07T20:54:45.648Z</time>
      </trkpt>
      <trkpt lat="50.23305" lon="1.87534">
        <ele>62.104019165039</ele>
        <time>2019-05-07T20:54:46.301Z</time>
      </trkpt>
      <trkpt lat="50.23286" lon="1.87569">
        <ele>60.602920532227</ele>
        <time>2019-05-07T20:54:46.960Z</time>
      </trkpt>
      <trkpt lat="50.23277" lon="1.87578">
        <ele>60.754848480225</ele>
        <time>2019-05-07T20:54:47.621Z</time>
      </trkpt>
      <trkpt lat="50.23269" lon="1.87593">
        <ele>60.169250488281</ele>
        <time>2019-05-07T20:54:48.285Z</time>
      </trkpt>
      <trkpt lat="50.23253" lon="1.87623">
        <ele>58.756980895996</ele>
        <time>2019-05-07T20:54:48.954Z</time>
      </trkpt>
      <trkpt lat="50.23245" lon="1.87644">
        <ele>57.703147888184</ele>
        <time>2019-05-07T20:54:49.626Z</time>
      </trkpt>
      <trkpt lat="50.23236" lon="1.87665">
        <ele>57.465351104736</ele>
        <time>2019-05-07T20:54:50.301Z</time>
      </trkpt>
      <trkpt lat="50.23228" lon="1.87677">
        <ele>58.274379730225</ele>
        <time>2019-05-07T20:54:50.978Z</time>
      </trkpt>
      <trkpt lat="50.23216" lon="1.8768">
        <ele>59.44144821167</ele>
        <time>2019-05-07T20:54:51.658Z</time>
      </trkpt>
      <trkpt lat="50.23214" lon="1.87697">
        <ele>58.845897674561</ele>
        <time>2019-05-07T20:54:52.340Z</time>
      </trkpt>
      <trkpt lat="50.23208" lon="1.87718">
        <ele>57.926197052002</ele>
        <time>2019-05-07T20:54:53.025Z</time>
      </trkpt>
      <trkpt lat="50.23203" lon="1.87732">
        <ele>57.214538574219</ele>
        <time>2019-05-07T20:54:53.712Z</time>
      </trkpt>
      <trkpt lat="50.23201" lon="1.87768">
        <ele>55.575355529785</ele>
        <time>2019-05-07T20:54:54.403Z</time>
      </trkpt>
      <trkpt lat="50.23201" lon="1.87796">
        <ele>53.869049072266</ele>
        <time>2019-05-07T20:54:55.098Z</time>
      </trkpt>
      <trkpt lat="50.23197" lon="1.87818">
        <ele>53.242958068848</ele>
        <time>2019-05-07T20:54:55.796Z</time>
      </trkpt>
      <trkpt lat="50.23197" lon="1.87837">
        <ele>53.40295791626</ele>
        <time>2019-05-07T20:54:56.496Z</time>
      </trkpt>
      <trkpt lat="50.23199" lon="1.87851">
        <ele>53.430713653564</ele>
        <time>2019-05-07T20:54:57.198Z</time>
      </trkpt>
      <trkpt lat="50.23199" lon="1.87874">
        <ele>53.765697479248</ele>
        <time>2019-05-07T20:54:57.903Z</time>
      </trkpt>
      <trkpt lat="50.23193" lon="1.879">
        <ele>54.505363464355</ele>
        <time>2019-05-07T20:54:58.612Z</time>
      </trkpt>
      <trkpt lat="50.23195" lon="1.87926">
        <ele>54.691310882568</ele>
        <time>2019-05-07T20:54:59.324Z</time>
      </trkpt>
      <trkpt lat="50.23197" lon="1.87942">
        <ele>54.702472686768</ele>
        <time>2019-05-07T20:55:00.038Z</time>
      </trkpt>
      <trkpt lat="50.23196" lon="1.87968">
        <ele>55.116703033447</ele>
        <time>2019-05-07T20:55:00.756Z</time>
      </trkpt>
      <trkpt lat="50.23188" lon="1.88011">
        <ele>56.351360321045</ele>
        <time>2019-05-07T20:55:01.479Z</time>
      </trkpt>
      <trkpt lat="50.23187" lon="1.88044">
        <ele>56.41089630127</ele>
        <time>2019-05-07T20:55:02.207Z</time>
      </trkpt>
      <trkpt lat="50.23176" lon="1.88081">
        <ele>57.868968963623</ele>
        <time>2019-05-07T20:55:02.940Z</time>
      </trkpt>
      <trkpt lat="50.23167" lon="1.881">
        <ele>58.873622894287</ele>
        <time>2019-05-07T20:55:03.676Z</time>
      </trkpt>
      <trkpt lat="50.23161" lon="1.88112">
        <ele>59.657299041748</ele>
        <time>2019-05-07T20:55:04.414Z</time>
      </trkpt>
      <trkpt lat="50.23153" lon="1.88119">
        <ele>60.984470367432</ele>
        <time>2019-05-07T20:55:05.154Z</time>
      </trkpt>
      <trkpt lat="50.23136" lon="1.88123">
        <ele>63.227897644043</ele>
        <time>2019-05-07T20:55:05.897Z</time>
      </trkpt>
      <trkpt lat="50.23128" lon="1.8813">
        <ele>64.42366027832</ele>
        <time>2019-05-07T20:55:06.642Z</time>
      </trkpt>
      <trkpt lat="50.23118" lon="1.88146">
        <ele>65.392707824707</ele>
        <time>2019-05-07T20:55:07.390Z</time>
      </trkpt>
      <trkpt lat="50.23111" lon="1.88155">
        <ele>65.867881774902</ele>
        <time>2019-05-07T20:55:08.140Z</time>
      </trkpt>
      <trkpt lat="50.23098" lon="1.88166">
        <ele>66.036552429199</ele>
        <time>2019-05-07T20:55:08.893Z</time>
      </trkpt>
      <trkpt lat="50.23083" lon="1.88193">
        <ele>65.45125579834</ele>
        <time>2019-05-07T20:55:09.650Z</time>
      </trkpt>
      <trkpt lat="50.23079" lon="1.88221">
        <ele>64.683067321777</ele>
        <time>2019-05-07T20:55:10.411Z</time>
      </trkpt>
      <trkpt lat="50.23071" lon="1.88231">
        <ele>64.78987121582</ele>
        <time>2019-05-07T20:55:11.174Z</time>
      </trkpt>
      <trkpt lat="50.23062" lon="1.88244">
        <ele>64.754379272461</ele>
        <time>2019-05-07T20:55:11.939Z</time>
      </trkpt>
      <trkpt lat="50.2305" lon="1.88258">
        <ele>64.811676025391</ele>
        <time>2019-05-07T20:55:12.707Z</time>
      </trkpt>
      <trkpt lat="50.2303" lon="1.88286">
        <ele>66.070503234863</ele>
        <time>2019-05-07T20:55:13.481Z</time>
      </trkpt>
      <trkpt lat="50.23019" lon="1.88292">
        <ele>67.254768371582</ele>
        <time>2019-05-07T20:55:14.257Z</time>
      </trkpt>
      <trkpt lat="50.22994" lon="1.88297">
        <ele>70.094757080078</ele>
        <time>2019-05-07T20:55:15.038Z</time>
      </trkpt>
      <trkpt lat="50.22974" lon="1.88309">
        <ele>71.520782470703</ele>
        <time>2019-05-07T20:55:15.823Z</time>
      </trkpt>
      <trkpt lat="50.22953" lon="1.88333">
        <ele>72.184638977051</ele>
        <time>2019-05-07T20:55:16.614Z</time>
      </trkpt>
      <trkpt lat="50.22931" lon="1.88361">
        <ele>72.340209960938</ele>
        <time>2019-05-07T20:55:17.410Z</time>
      </trkpt>
      <trkpt lat="50.22918" lon="1.88384">
        <ele>72.577964782715</ele>
        <time>2019-05-07T20:55:18.210Z</time>
      </trkpt>
      <trkpt lat="50.22915" lon="1.88402">
        <ele>72.242774963379</ele>
        <time>2019-05-07T20:55:19.013Z</time>
      </trkpt>
      <trkpt lat="50.22917" lon="1.88421">
        <ele>70.975433349609</ele>
        <time>2019-05-07T20:55:19.818Z</time>
      </trkpt>
      <trkpt lat="50.22926" lon="1.88446">
        <ele>68.578346252441</ele>
        <time>2019-05-07T20:55:20.627Z</time>
      </trkpt>
      <trkpt lat="50.22933" lon="1.88455">
        <ele>67.257102966309</ele>
        <time>2019-05-07T20:55:21.437Z</time>
      </trkpt>
      <trkpt lat="50.22944" lon="1.88468">
        <ele>65.32975769043</ele>
        <time>2019-05-07T20:55:22.250Z</time>
      </trkpt>
      <trkpt lat="50.22948" lon="1.88489">
        <ele>63.886096954346</ele>
        <time>2019-05-07T20:55:23.066Z</time>
      </trkpt>
      <trkpt lat="50.2295" lon="1.88503">
        <ele>63.723209381104</ele>
        <time>2019-05-07T20:55:23.884Z</time>
      </trkpt>
      <trkpt lat="50.22952" lon="1.88521">
        <ele>63.787368774414</ele>
        <time>2019-05-07T20:55:24.704Z</time>
      </trkpt>
      <trkpt lat="50.22954" lon="1.88538">
        <ele>63.663974761963</ele>
        <time>2019-05-07T20:55:25.526Z</time>
      </trkpt>
      <trkpt lat="50.2297" lon="1.8857">
        <ele>62.279472351074</ele>
        <time>2019-05-07T20:55:26.354Z</time>
      </trkpt>
      <trkpt lat="50.22982" lon="1.88585">
        <ele>61.162059783936</ele>
        <time>2019-05-07T20:55:27.185Z</time>
      </trkpt>
      <trkpt lat="50.22989" lon="1.886">
        <ele>60.38941192627</ele>
        <time>2019-05-07T20:55:28.018Z</time>
      </trkpt>
      <trkpt lat="50.22988" lon="1.88622">
        <ele>61.067768096924</ele>
        <time>2019-05-07T20:55:28.854Z</time>
      </trkpt>
      <trkpt lat="50.22988" lon="1.88642">
        <ele>61.568588256836</ele>
        <time>2019-05-07T20:55:29.693Z</time>
      </trkpt>
      <trkpt lat="50.22972" lon="1.88671">
        <ele>63.58780670166</ele>
        <time>2019-05-07T20:55:30.536Z</time>
      </trkpt>
      <trkpt lat="50.22966" lon="1.88686">
        <ele>63.353088378906</ele>
        <time>2019-05-07T20:55:31.382Z</time>
      </trkpt>
      <trkpt lat="50.22951" lon="1.88708">
        <ele>63.321105957031</ele>
        <time>2019-05-07T20:55:32.232Z</time>
      </trkpt>
      <trkpt lat="50.22932" lon="1.88744">
        <ele>62.573024749756</ele>
        <time>2019-05-07T20:55:33.088Z</time>
      </trkpt>
      <trkpt lat="50.22915" lon="1.88762">
        <ele>62.466426849365</ele>
        <time>2019-05-07T20:55:33.948Z</time>
      </trkpt>
      <trkpt lat="50.22905" lon="1.88773">
        <ele>62.349063873291</ele>
        <time>2019-05-07T20:55:34.810Z</time>
      </trkpt>
      <trkpt lat="50.22893" lon="1.8879">
        <ele>61.720928192139</ele>
        <time>2019-05-07T20:55:35.676Z</time>
      </trkpt>
      <trkpt lat="50.22879" lon="1.88814">
        <ele>60.671825408936</ele>
        <time>2019-05-07T20:55:36.546Z</time>
      </trkpt>
      <trkpt lat="50.22868" lon="1.88828">
        <ele>61.358459472656</ele>
        <time>2019-05-07T20:55:37.419Z</time>
      </trkpt>
      <trkpt lat="50.22859" lon="1.88838">
        <ele>62.416416168213</ele>
        <time>2019-05-07T20:55:38.294Z</time>
      </trkpt>
      <trkpt lat="50.22849" lon="1.88843">
        <ele>63.598064422607</ele>
        <time>2019-05-07T20:55:39.171Z</time>
      </trkpt>
      <trkpt lat="50.22835" lon="1.88837">
        <ele>65.262435913086</ele>
        <time>2019-05-07T20:55:40.051Z</time>
      </trkpt>
      <trkpt lat="50.22828" lon="1.88827">
        <ele>66.125289916992</ele>
        <time>2019-05-07T20:55:40.933Z</time>
      </trkpt>
      <trkpt lat="50.22819" lon="1.88819">
        <ele>67.380516052246</ele>
        <time>2019-05-07T20:55:41.817Z</time>
      </trkpt>
      <trkpt lat="50.2281" lon="1.88812">
        <ele>68.661926269531</ele>
        <time>2019-05-07T20:55:42.703Z</time>
      </trkpt>
      <trkpt lat="50.22801" lon="1.88805">
        <ele>69.971702575684</ele>
        <time>2019-05-07T20:55:43.591Z</time>
      </trkpt>
      <trkpt lat="50.22791" lon="1.88803">
        <ele>70.790214538574</ele>
        <time>2019-05-07T20:55:44.481Z</time>
      </trkpt>
      <trkpt lat="50.22782" lon="1.8879">
        <ele>71.351776123047</ele>
        <time>2019-05-07T20:55:45.373Z</time>
      </trkpt>
      <trkpt lat="50.2277" lon="1.88774">
        <ele>72.067710876465</ele>
        <time>2019-05-07T20:55:46.269Z</time>
      </trkpt>
      <trkpt lat="50.22759" lon="1.88762">
        <ele>72.620719909668</ele>
        <time>2019-05-07T20:55:47.167Z</time>
      </trkpt>
      <trkpt lat="50.22751" lon="1.88752">
        <ele>73.085235595703</ele>
        <time>2019-05-07T20:55:48.067Z</time>
      </trkpt>
      <trkpt lat="50.22743" lon="1.8874">
        <ele>73.629684448242</ele>
        <time>2019-05-07T20:55:48.970Z</time>
      </trkpt>
      <trkpt lat="50.22728" lon="1.8872">
        <ele>74.741844177246</ele>
        <time>2019-05-07T20:55:49.876Z</time>
      </trkpt>
      <trkpt lat="50.2272" lon="1.88714">
        <ele>75.153762817383</ele>
        <time>2019-05-07T20:55:50.784Z</time>
      </trkpt>
      <trkpt lat="50.22711" lon="1.88698">
        <ele>75.961212158203</ele>
        <time>2019-05-07T20:55:51.695Z</time>
      </trkpt>
      <trkpt lat="50.22699" lon="1.88683">
        <ele>76.099189758301</ele>
        <time>2019-05-07T20:55:52.609Z</time>
      </trkpt>
      <trkpt lat="50.22685" lon="1.88662">
        <ele>76.432258605957</ele>
        <time>2019-05-07T20:55:53.527Z</time>
      </trkpt>
      <trkpt lat="50.22671" lon="1.88644">
        <ele>76.625747680664</ele>
        <time>2019-05-07T20:55:54.449Z</time>
      </trkpt>
      <trkpt lat="50.22665" lon="1.88631">
        <ele>76.926643371582</ele>
        <time>2019-05-07T20:55:55.373Z</time>
      </trkpt>
      <trkpt lat="50.22657" lon="1.88618">
        <ele>77.167602539062</ele>
        <time>2019-05-07T20:55:56.299Z</time>
      </trkpt>
      <trkpt lat="50.2265" lon="1.88608">
        <ele>77.301155090332</ele>
        <time>2019-05-07T20:55:57.227Z</time>
      </trkpt>
      <trkpt lat="50.22642" lon="1.88601">
        <ele>77.274200439453</ele>
        <time>2019-05-07T20:55:58.157Z</time>
      </trkpt>
      <trkpt lat="50.22633" lon="1.88587">
        <ele>77.554580688477</ele>
        <time>2019-05-07T20:55:59.089Z</time>
      </trkpt>
      <trkpt lat="50.22626" lon="1.88575">
        <ele>77.801940917969</ele>
        <time>2019-05-07T20:56:00.023Z</time>
      </trkpt>
      <trkpt lat="50.22617" lon="1.8856">
        <ele>78.037628173828</ele>
        <time>2019-05-07T20:56:00.960Z</time>
      </trkpt>
      <trkpt lat="50.22608" lon="1.88543">
        <ele>78.322731018066</ele>
        <time>2019-05-07T20:56:01.900Z</time>
      </trkpt>
      <trkpt lat="50.22596" lon="1.88529">
        <ele>78.419876098633</ele>
        <time>2019-05-07T20:56:02.843Z</time>
      </trkpt>
      <trkpt lat="50.2258" lon="1.8851">
        <ele>78.495903015137</ele>
        <time>2019-05-07T20:56:03.790Z</time>
      </trkpt>
      <trkpt lat="50.22565" lon="1.88498">
        <ele>78.411125183105</ele>
        <time>2019-05-07T20:56:04.740Z</time>
      </trkpt>
      <trkpt lat="50.2256" lon="1.88482">
        <ele>78.772262573242</ele>
        <time>2019-05-07T20:56:05.692Z</time>
      </trkpt>
      <trkpt lat="50.22546" lon="1.88454">
        <ele>79.293899536133</ele>
        <time>2019-05-07T20:56:06.649Z</time>
      </trkpt>
      <trkpt lat="50.22533" lon="1.88438">
        <ele>79.702690124512</ele>
        <time>2019-05-07T20:56:07.609Z</time>
      </trkpt>
      <trkpt lat="50.22515" lon="1.88419">
        <ele>80.163383483887</ele>
        <time>2019-05-07T20:56:08.574Z</time>
      </trkpt>
      <trkpt lat="50.225" lon="1.88411">
        <ele>80.277732849121</ele>
        <time>2019-05-07T20:56:09.542Z</time>
      </trkpt>
      <trkpt lat="50.22488" lon="1.88393">
        <ele>81.084266662598</ele>
        <time>2019-05-07T20:56:10.513Z</time>
      </trkpt>
      <trkpt lat="50.22476" lon="1.88377">
        <ele>81.920272827148</ele>
        <time>2019-05-07T20:56:11.487Z</time>
      </trkpt>
      <trkpt lat="50.22473" lon="1.88347">
        <ele>83.701393127441</ele>
        <time>2019-05-07T20:56:12.465Z</time>
      </trkpt>
      <trkpt lat="50.22465" lon="1.88326">
        <ele>84.861930847168</ele>
        <time>2019-05-07T20:56:13.446Z</time>
      </trkpt>
      <trkpt lat="50.22453" lon="1.88305">
        <ele>85.10710144043</ele>
        <time>2019-05-07T20:56:14.431Z</time>
      </trkpt>
      <trkpt lat="50.22434" lon="1.88282">
        <ele>85.150444030762</ele>
        <time>2019-05-07T20:56:15.421Z</time>
      </trkpt>
      <trkpt lat="50.22425" lon="1.88267">
        <ele>85.227081298828</ele>
        <time>2019-05-07T20:56:16.413Z</time>
      </trkpt>
      <trkpt lat="50.2242" lon="1.88255">
        <ele>85.308639526367</ele>
        <time>2019-05-07T20:56:17.407Z</time>
      </trkpt>
      <trkpt lat="50.22412" lon="1.88239">
        <ele>85.454627990723</ele>
        <time>2019-05-07T20:56:18.404Z</time>
      </trkpt>
      <trkpt lat="50.22406" lon="1.88226">
        <ele>85.99144744873</ele>
        <time>2019-05-07T20:56:19.403Z</time>
      </trkpt>
      <trkpt lat="50.22398" lon="1.88216">
        <ele>86.362236022949</ele>
        <time>2019-05-07T20:56:20.404Z</time>
      </trkpt>
      <trkpt lat="50.22391" lon="1.88204">
        <ele>86.861541748047</ele>
        <time>2019-05-07T20:56:21.407Z</time>
      </trkpt>
      <trkpt lat="50.22378" lon="1.88184">
        <ele>87.546569824219</ele>
        <time>2019-05-07T20:56:22.414Z</time>
      </trkpt>
      <trkpt lat="50.22367" lon="1.88166">
        <ele>87.591125488281</ele>
        <time>2019-05-07T20:56:23.424Z</time>
      </trkpt>
      <trkpt lat="50.22355" lon="1.8815">
        <ele>87.213813781738</ele>
        <time>2019-05-07T20:56:24.437Z</time>
      </trkpt>
      <trkpt lat="50.22345" lon="1.88135">
        <ele>86.978393554688</ele>
        <time>2019-05-07T20:56:25.453Z</time>
      </trkpt>
      <trkpt lat="50.22332" lon="1.8811">
        <ele>86.758651733398</ele>
        <time>2019-05-07T20:56:26.473Z</time>
      </trkpt>
      <trkpt lat="50.22319" lon="1.88092">
        <ele>86.066741943359</ele>
        <time>2019-05-07T20:56:27.497Z</time>
      </trkpt>
      <trkpt lat="50.22308" lon="1.88072">
        <ele>85.469833374023</ele>
        <time>2019-05-07T20:56:28.524Z</time>
      </trkpt>
      <trkpt lat="50.22286" lon="1.88059">
        <ele>85.60131072998</ele>
        <time>2019-05-07T20:56:29.556Z</time>
      </trkpt>
      <trkpt lat="50.22277" lon="1.88066">
        <ele>85.187438964844</ele>
        <time>2019-05-07T20:56:30.590Z</time>
      </trkpt>
      <trkpt lat="50.22247" lon="1.88097">
        <ele>83.556427001953</ele>
        <time>2019-05-07T20:56:31.631Z</time>
      </trkpt>
      <trkpt lat="50.22219" lon="1.88132">
        <ele>80.708099365234</ele>
        <time>2019-05-07T20:56:32.679Z</time>
      </trkpt>
      <trkpt lat="50.22207" lon="1.88148">
        <ele>79.704627990723</ele>
        <time>2019-05-07T20:56:33.730Z</time>
      </trkpt>
      <trkpt lat="50.22172" lon="1.88202">
        <ele>81.343437194824</ele>
        <time>2019-05-07T20:56:34.791Z</time>
      </trkpt>
      <trkpt lat="50.22166" lon="1.88214">
        <ele>81.281494140625</ele>
        <time>2019-05-07T20:56:35.854Z</time>
      </trkpt>
      <trkpt lat="50.2214" lon="1.88252">
        <ele>81.563598632812</ele>
        <time>2019-05-07T20:56:36.924Z</time>
      </trkpt>
      <trkpt lat="50.2211" lon="1.88285">
        <ele>82.065185546875</ele>
        <time>2019-05-07T20:56:38.001Z</time>
      </trkpt>
      <trkpt lat="50.2209" lon="1.88315">
        <ele>82.166137695312</ele>
        <time>2019-05-07T20:56:39.084Z</time>
      </trkpt>
      <trkpt lat="50.22073" lon="1.88345">
        <ele>82.93546295166</ele>
        <time>2019-05-07T20:56:40.172Z</time>
      </trkpt>
      <trkpt lat="50.22073" lon="1.88364">
        <ele>82.680297851562</ele>
        <time>2019-05-07T20:56:41.263Z</time>
      </trkpt>
      <trkpt lat="50.22071" lon="1.88382">
        <ele>82.28507232666</ele>
        <time>2019-05-07T20:56:42.356Z</time>
      </trkpt>
      <trkpt lat="50.22074" lon="1.88395">
        <ele>81.925346374512</ele>
        <time>2019-05-07T20:56:43.451Z</time>
      </trkpt>
      <trkpt lat="50.22076" lon="1.88416">
        <ele>81.741218566895</ele>
        <time>2019-05-07T20:56:44.548Z</time>
      </trkpt>
      <trkpt lat="50.22074" lon="1.88432">
        <ele>81.962966918945</ele>
        <time>2019-05-07T20:56:45.648Z</time>
      </trkpt>
      <trkpt lat="50.22073" lon="1.88458">
        <ele>81.421394348145</ele>
        <time>2019-05-07T20:56:46.751Z</time>
      </trkpt>
      <trkpt lat="50.22063" lon="1.88491">
        <ele>80.432693481445</ele>
        <time>2019-05-07T20:56:47.859Z</time>
      </trkpt>
      <trkpt lat="50.22064" lon="1.8852">
        <ele>81.015983581543</ele>
        <time>2019-05-07T20:56:48.970Z</time>
      </trkpt>
      <trkpt lat="50.22065" lon="1.88538">
        <ele>81.849273681641</ele>
        <time>2019-05-07T20:56:50.084Z</time>
      </trkpt>
      <trkpt lat="50.22061" lon="1.88554">
        <ele>82.687194824219</ele>
        <time>2019-05-07T20:56:51.200Z</time>
      </trkpt>
      <trkpt lat="50.22061" lon="1.8857">
        <ele>83.467987060547</ele>
        <time>2019-05-07T20:56:52.318Z</time>
      </trkpt>
      <trkpt lat="50.22061" lon="1.88624">
        <ele>85.156242370605</ele>
        <time>2019-05-07T20:56:53.443Z</time>
      </trkpt>
      <trkpt lat="50.22059" lon="1.88645">
        <ele>86.246078491211</ele>
        <time>2019-05-07T20:56:54.570Z</time>
      </trkpt>
      <trkpt lat="50.22061" lon="1.88676">
        <ele>87.366432189941</ele>
        <time>2019-05-07T20:56:55.701Z</time>
      </trkpt>
      <trkpt lat="50.22061" lon="1.88707">
        <ele>88.100166320801</ele>
        <time>2019-05-07T20:56:56.837Z</time>
      </trkpt>
      <trkpt lat="50.22057" lon="1.88726">
        <ele>88.850189208984</ele>
        <time>2019-05-07T20:56:57.975Z</time>
      </trkpt>
      <trkpt lat="50.22052" lon="1.8875">
        <ele>89.959777832031</ele>
        <time>2019-05-07T20:56:59.116Z</time>
      </trkpt>
      <trkpt lat="50.22051" lon="1.88809">
        <ele>92.156944274902</ele>
        <time>2019-05-07T20:57:00.265Z</time>
      </trkpt>
      <trkpt lat="50.22047" lon="1.88845">
        <ele>92.903335571289</ele>
        <time>2019-05-07T20:57:01.419Z</time>
      </trkpt>
      <trkpt lat="50.22044" lon="1.88865">
        <ele>93.032524108887</ele>
        <time>2019-05-07T20:57:02.575Z</time>
      </trkpt>
      <trkpt lat="50.22046" lon="1.88886">
        <ele>92.987007141113</ele>
        <time>2019-05-07T20:57:03.734Z</time>
      </trkpt>
      <trkpt lat="50.22046" lon="1.88913">
        <ele>92.993507385254</ele>
        <time>2019-05-07T20:57:04.896Z</time>
      </trkpt>
      <trkpt lat="50.22045" lon="1.88934">
        <ele>93.009017944336</ele>
        <time>2019-05-07T20:57:06.061Z</time>
      </trkpt>
      <trkpt lat="50.22037" lon="1.88961">
        <ele>93.104957580566</ele>
        <time>2019-05-07T20:57:07.230Z</time>
      </trkpt>
      <trkpt lat="50.22037" lon="1.88987">
        <ele>93.034187316895</ele>
        <time>2019-05-07T20:57:08.402Z</time>
      </trkpt>
      <trkpt lat="50.22038" lon="1.89023">
        <ele>93</ele>
        <time>2019-05-07T20:57:09.579Z</time>
      </trkpt>
      <trkpt lat="50.22037" lon="1.89039">
        <ele>93</ele>
        <time>2019-05-07T20:57:10.758Z</time>
      </trkpt>
      <trkpt lat="50.22035" lon="1.89062">
        <ele>93</ele>
        <time>2019-05-07T20:57:11.940Z</time>
      </trkpt>
      <trkpt lat="50.22035" lon="1.89076">
        <ele>92.963966369629</ele>
        <time>2019-05-07T20:57:13.124Z</time>
      </trkpt>
      <trkpt lat="50.22036" lon="1.89109">
        <ele>92.566825866699</ele>
        <time>2019-05-07T20:57:14.312Z</time>
      </trkpt>
      <trkpt lat="50.22041" lon="1.89127">
        <ele>92.354133605957</ele>
        <time>2019-05-07T20:57:15.502Z</time>
      </trkpt>
      <trkpt lat="50.22041" lon="1.89143">
        <ele>92.165367126465</ele>
        <time>2019-05-07T20:57:16.694Z</time>
      </trkpt>
      <trkpt lat="50.22039" lon="1.89169">
        <ele>92.081527709961</ele>
        <time>2019-05-07T20:57:17.890Z</time>
      </trkpt>
      <trkpt lat="50.22041" lon="1.89188">
        <ele>92.048042297363</ele>
        <time>2019-05-07T20:57:19.088Z</time>
      </trkpt>
      <trkpt lat="50.22044" lon="1.89205">
        <ele>92.017364501953</ele>
        <time>2019-05-07T20:57:20.289Z</time>
      </trkpt>
      <trkpt lat="50.22044" lon="1.89226">
        <ele>92.021392822266</ele>
        <time>2019-05-07T20:57:21.492Z</time>
      </trkpt>
      <trkpt lat="50.22046" lon="1.89256">
        <ele>91.989654541016</ele>
        <time>2019-05-07T20:57:22.699Z</time>
      </trkpt>
      <trkpt lat="50.22043" lon="1.89298">
        <ele>92</ele>
        <time>2019-05-07T20:57:23.912Z</time>
      </trkpt>
      <trkpt lat="50.2204" lon="1.89311">
        <ele>92</ele>
        <time>2019-05-07T20:57:25.126Z</time>
      </trkpt>
      <trkpt lat="50.22023" lon="1.89325">
        <ele>91.593139648438</ele>
        <time>2019-05-07T20:57:26.344Z</time>
      </trkpt>
      <trkpt lat="50.22014" lon="1.89334">
        <ele>90.970329284668</ele>
        <time>2019-05-07T20:57:27.564Z</time>
      </trkpt>
      <trkpt lat="50.22008" lon="1.89344">
        <ele>90.284271240234</ele>
        <time>2019-05-07T20:57:28.786Z</time>
      </trkpt>
      <trkpt lat="50.22001" lon="1.89361">
        <ele>89.223701477051</ele>
        <time>2019-05-07T20:57:30.011Z</time>
      </trkpt>
      <trkpt lat="50.21991" lon="1.89382">
        <ele>88.890686035156</ele>
        <time>2019-05-07T20:57:31.239Z</time>
      </trkpt>
      <trkpt lat="50.21998" lon="1.89415">
        <ele>87.565826416016</ele>
        <time>2019-05-07T20:57:32.471Z</time>
      </trkpt>
      <trkpt lat="50.2199" lon="1.89437">
        <ele>86.263893127441</ele>
        <time>2019-05-07T20:57:33.707Z</time>
      </trkpt>
      <trkpt lat="50.21986" lon="1.89453">
        <ele>86.131950378418</ele>
        <time>2019-05-07T20:57:34.945Z</time>
      </trkpt>
      <trkpt lat="50.21984" lon="1.89467">
        <ele>85.94751739502</ele>
        <time>2019-05-07T20:57:36.185Z</time>
      </trkpt>
      <trkpt lat="50.21972" lon="1.89485">
        <ele>86.396644592285</ele>
        <time>2019-05-07T20:57:37.428Z</time>
      </trkpt>
      <trkpt lat="50.21961" lon="1.89504">
        <ele>85.977973937988</ele>
        <time>2019-05-07T20:57:38.674Z</time>
      </trkpt>
      <trkpt lat="50.21945" lon="1.89506">
        <ele>85.81867980957</ele>
        <time>2019-05-07T20:57:39.924Z</time>
      </trkpt>
      <trkpt lat="50.21927" lon="1.89512">
        <ele>85.421043395996</ele>
        <time>2019-05-07T20:57:41.177Z</time>
      </trkpt>
      <trkpt lat="50.21912" lon="1.89524">
        <ele>84.548637390137</ele>
        <time>2019-05-07T20:57:42.434Z</time>
      </trkpt>
      <trkpt lat="50.21902" lon="1.89537">
        <ele>83.927841186523</ele>
        <time>2019-05-07T20:57:43.693Z</time>
      </trkpt>
      <trkpt lat="50.21892" lon="1.89533">
        <ele>84.226623535156</ele>
        <time>2019-05-07T20:57:44.954Z</time>
      </trkpt>
      <trkpt lat="50.21878" lon="1.89549">
        <ele>83.459106445312</ele>
        <time>2019-05-07T20:57:46.219Z</time>
      </trkpt>
      <trkpt lat="50.21869" lon="1.89556">
        <ele>83.175407409668</ele>
        <time>2019-05-07T20:57:47.486Z</time>
      </trkpt>
      <trkpt lat="50.21856" lon="1.89571">
        <ele>82.889770507812</ele>
        <time>2019-05-07T20:57:48.756Z</time>
      </trkpt>
      <trkpt lat="50.21824" lon="1.89606">
        <ele>82.092636108398</ele>
        <time>2019-05-07T20:57:50.034Z</time>
      </trkpt>
      <trkpt lat="50.21814" lon="1.89614">
        <ele>82.156997680664</ele>
        <time>2019-05-07T20:57:51.314Z</time>
      </trkpt>
      <trkpt lat="50.21798" lon="1.89618">
        <ele>82.722175598145</ele>
        <time>2019-05-07T20:57:52.597Z</time>
      </trkpt>
      <trkpt lat="50.2178" lon="1.89611">
        <ele>83.903625488281</ele>
        <time>2019-05-07T20:57:53.884Z</time>
      </trkpt>
      <trkpt lat="50.2176" lon="1.89612">
        <ele>84.804702758789</ele>
        <time>2019-05-07T20:57:55.175Z</time>
      </trkpt>
      <trkpt lat="50.21747" lon="1.89613">
        <ele>85.517707824707</ele>
        <time>2019-05-07T20:57:56.469Z</time>
      </trkpt>
      <trkpt lat="50.2173" lon="1.89618">
        <ele>86.278793334961</ele>
        <time>2019-05-07T20:57:57.766Z</time>
      </trkpt>
      <trkpt lat="50.21713" lon="1.89641">
        <ele>86.503555297852</ele>
        <time>2019-05-07T20:57:59.068Z</time>
      </trkpt>
      <trkpt lat="50.21702" lon="1.89663">
        <ele>86.08740234375</ele>
        <time>2019-05-07T20:58:00.373Z</time>
      </trkpt>
      <trkpt lat="50.21699" lon="1.89682">
        <ele>85.243957519531</ele>
        <time>2019-05-07T20:58:01.681Z</time>
      </trkpt>
      <trkpt lat="50.21695" lon="1.89695">
        <ele>84.750885009766</ele>
        <time>2019-05-07T20:58:02.991Z</time>
      </trkpt>
      <trkpt lat="50.21682" lon="1.89702">
        <ele>84.917724609375</ele>
        <time>2019-05-07T20:58:04.303Z</time>
      </trkpt>
      <trkpt lat="50.21663" lon="1.89707">
        <ele>85.316970825195</ele>
        <time>2019-05-07T20:58:05.619Z</time>
      </trkpt>
      <trkpt lat="50.21649" lon="1.8973">
        <ele>84.763053894043</ele>
        <time>2019-05-07T20:58:06.939Z</time>
      </trkpt>
      <trkpt lat="50.21639" lon="1.89737">
        <ele>84.769187927246</ele>
        <time>2019-05-07T20:58:08.261Z</time>
      </trkpt>
      <trkpt lat="50.21627" lon="1.8976">
        <ele>83.907081604004</ele>
        <time>2019-05-07T20:58:09.587Z</time>
      </trkpt>
      <trkpt lat="50.21622" lon="1.89772">
        <ele>83.379508972168</ele>
        <time>2019-05-07T20:58:10.915Z</time>
      </trkpt>
      <trkpt lat="50.21606" lon="1.89788">
        <ele>83.194473266602</ele>
        <time>2019-05-07T20:58:12.247Z</time>
      </trkpt>
      <trkpt lat="50.21594" lon="1.89814">
        <ele>82.86986541748</ele>
        <time>2019-05-07T20:58:13.583Z</time>
      </trkpt>
      <trkpt lat="50.21582" lon="1.89823">
        <ele>83.370681762695</ele>
        <time>2019-05-07T20:58:14.922Z</time>
      </trkpt>
      <trkpt lat="50.21572" lon="1.89836">
        <ele>83.73673248291</ele>
        <time>2019-05-07T20:58:16.263Z</time>
      </trkpt>
      <trkpt lat="50.21543" lon="1.89851">
        <ele>84.409812927246</ele>
        <time>2019-05-07T20:58:17.610Z</time>
      </trkpt>
      <trkpt lat="50.21523" lon="1.89868">
        <ele>84.143714904785</ele>
        <time>2019-05-07T20:58:18.962Z</time>
      </trkpt>
      <trkpt lat="50.21503" lon="1.89889">
        <ele>83.613731384277</ele>
        <time>2019-05-07T20:58:20.319Z</time>
      </trkpt>
      <trkpt lat="50.21495" lon="1.89896">
        <ele>83.43522644043</ele>
        <time>2019-05-07T20:58:21.678Z</time>
      </trkpt>
      <trkpt lat="50.2148" lon="1.89908">
        <ele>83.247970581055</ele>
        <time>2019-05-07T20:58:23.040Z</time>
      </trkpt>
      <trkpt lat="50.21464" lon="1.89935">
        <ele>82.228630065918</ele>
        <time>2019-05-07T20:58:24.407Z</time>
      </trkpt>
      <trkpt lat="50.21441" lon="1.89975">
        <ele>81.792114257812</ele>
        <time>2019-05-07T20:58:25.781Z</time>
      </trkpt>
      <trkpt lat="50.21436" lon="1.89988">
        <ele>81.866638183594</ele>
        <time>2019-05-07T20:58:27.156Z</time>
      </trkpt>
      <trkpt lat="50.21407" lon="1.90029">
        <ele>83.949447631836</ele>
        <time>2019-05-07T20:58:28.539Z</time>
      </trkpt>
      <trkpt lat="50.214" lon="1.90049">
        <ele>83.200736999512</ele>
        <time>2019-05-07T20:58:29.925Z</time>
      </trkpt>
      <trkpt lat="50.21386" lon="1.9007">
        <ele>82.728576660156</ele>
        <time>2019-05-07T20:58:31.315Z</time>
      </trkpt>
      <trkpt lat="50.21369" lon="1.90071">
        <ele>83.78466796875</ele>
        <time>2019-05-07T20:58:32.709Z</time>
      </trkpt>
      <trkpt lat="50.21353" lon="1.90072">
        <ele>84.877616882324</ele>
        <time>2019-05-07T20:58:34.106Z</time>
      </trkpt>
      <trkpt lat="50.21338" lon="1.90086">
        <ele>85.115112304688</ele>
        <time>2019-05-07T20:58:35.506Z</time>
      </trkpt>
      <trkpt lat="50.21328" lon="1.90101">
        <ele>84.969795227051</ele>
        <time>2019-05-07T20:58:36.909Z</time>
      </trkpt>
      <trkpt lat="50.21308" lon="1.90121">
        <ele>86.063468933105</ele>
        <time>2019-05-07T20:58:38.317Z</time>
      </trkpt>
      <trkpt lat="50.21289" lon="1.90139">
        <ele>86.77368927002</ele>
        <time>2019-05-07T20:58:39.729Z</time>
      </trkpt>
      <trkpt lat="50.21281" lon="1.90156">
        <ele>86.69905090332</ele>
        <time>2019-05-07T20:58:41.144Z</time>
      </trkpt>
      <trkpt lat="50.21257" lon="1.90164">
        <ele>87.271621704102</ele>
        <time>2019-05-07T20:58:42.564Z</time>
      </trkpt>
      <trkpt lat="50.21249" lon="1.90173">
        <ele>87.027450561523</ele>
        <time>2019-05-07T20:58:43.986Z</time>
      </trkpt>
      <trkpt lat="50.21238" lon="1.90183">
        <ele>86.851661682129</ele>
        <time>2019-05-07T20:58:45.410Z</time>
      </trkpt>
      <trkpt lat="50.21225" lon="1.90199">
        <ele>86.308403015137</ele>
        <time>2019-05-07T20:58:46.838Z</time>
      </trkpt>
      <trkpt lat="50.2119" lon="1.90219">
        <ele>86.291343688965</ele>
        <time>2019-05-07T20:58:48.273Z</time>
      </trkpt>
      <trkpt lat="50.2116" lon="1.90232">
        <ele>86.41926574707</ele>
        <time>2019-05-07T20:58:49.714Z</time>
      </trkpt>
      <trkpt lat="50.21143" lon="1.90241">
        <ele>86.427574157715</ele>
        <time>2019-05-07T20:58:51.159Z</time>
      </trkpt>
      <trkpt lat="50.21135" lon="1.90233">
        <ele>87.286643981934</ele>
        <time>2019-05-07T20:58:52.606Z</time>
      </trkpt>
      <trkpt lat="50.21125" lon="1.90234">
        <ele>87.359603881836</ele>
        <time>2019-05-07T20:58:54.055Z</time>
      </trkpt>
      <trkpt lat="50.21108" lon="1.90239">
        <ele>86.850540161133</ele>
        <time>2019-05-07T20:58:55.507Z</time>
      </trkpt>
      <trkpt lat="50.21095" lon="1.90238">
        <ele>86.732475280762</ele>
        <time>2019-05-07T20:58:56.962Z</time>
      </trkpt>
      <trkpt lat="50.21083" lon="1.90223">
        <ele>87.653762817383</ele>
        <time>2019-05-07T20:58:58.420Z</time>
      </trkpt>
      <trkpt lat="50.21079" lon="1.90204">
        <ele>88.993202209473</ele>
        <time>2019-05-07T20:58:59.881Z</time>
      </trkpt>
      <trkpt lat="50.21067" lon="1.90194">
        <ele>89.574066162109</ele>
        <time>2019-05-07T20:59:01.344Z</time>
      </trkpt>
      <trkpt lat="50.21057" lon="1.90193">
        <ele>89.508399963379</ele>
        <time>2019-05-07T20:59:02.809Z</time>
      </trkpt>
      <trkpt lat="50.21033" lon="1.90174">
        <ele>89.699676513672</ele>
        <time>2019-05-07T20:59:04.280Z</time>
      </trkpt>
      <trkpt lat="50.21024" lon="1.90156">
        <ele>90.234825134277</ele>
        <time>2019-05-07T20:59:05.754Z</time>
      </trkpt>
      <trkpt lat="50.21011" lon="1.90133">
        <ele>89.665115356445</ele>
        <time>2019-05-07T20:59:07.232Z</time>
      </trkpt>
      <trkpt lat="50.21003" lon="1.9012">
        <ele>89.330932617188</ele>
        <time>2019-05-07T20:59:08.712Z</time>
      </trkpt>
      <trkpt lat="50.21001" lon="1.90092">
        <ele>89.576850891113</ele>
        <time>2019-05-07T20:59:10.195Z</time>
      </trkpt>
      <trkpt lat="50.21006" lon="1.90072">
        <ele>90.180465698242</ele>
        <time>2019-05-07T20:59:11.681Z</time>
      </trkpt>
      <trkpt lat="50.21005" lon="1.90058">
        <ele>90.49543762207</ele>
        <time>2019-05-07T20:59:13.169Z</time>
      </trkpt>
      <trkpt lat="50.21006" lon="1.90035">
        <ele>91.071281433105</ele>
        <time>2019-05-07T20:59:14.660Z</time>
      </trkpt>
      <trkpt lat="50.21011" lon="1.90014">
        <ele>91.34220123291</ele>
        <time>2019-05-07T20:59:16.154Z</time>
      </trkpt>
      <trkpt lat="50.21011" lon="1.89984">
        <ele>91.54377746582</ele>
        <time>2019-05-07T20:59:17.652Z</time>
      </trkpt>
      <trkpt lat="50.21008" lon="1.8997">
        <ele>91.913154602051</ele>
        <time>2019-05-07T20:59:19.152Z</time>
      </trkpt>
      <trkpt lat="50.21004" lon="1.8995">
        <ele>92.450881958008</ele>
        <time>2019-05-07T20:59:20.654Z</time>
      </trkpt>
      <trkpt lat="50.21005" lon="1.89922">
        <ele>92.842826843262</ele>
        <time>2019-05-07T20:59:22.160Z</time>
      </trkpt>
      <trkpt lat="50.20998" lon="1.89899">
        <ele>93.055603027344</ele>
        <time>2019-05-07T20:59:23.669Z</time>
      </trkpt>
      <trkpt lat="50.2098" lon="1.89861">
        <ele>93.533088684082</ele>
        <time>2019-05-07T20:59:25.184Z</time>
      </trkpt>
      <trkpt lat="50.20971" lon="1.89834">
        <ele>93.950843811035</ele>
        <time>2019-05-07T20:59:26.703Z</time>
      </trkpt>
      <trkpt lat="50.20965" lon="1.89819">
        <ele>94.092529296875</ele>
        <time>2019-05-07T20:59:28.224Z</time>
      </trkpt>
      <trkpt lat="50.20957" lon="1.89811">
        <ele>93.985855102539</ele>
        <time>2019-05-07T20:59:29.747Z</time>
      </trkpt>
      <trkpt lat="50.20945" lon="1.89781">
        <ele>93.800811767578</ele>
        <time>2019-05-07T20:59:31.275Z</time>
      </trkpt>
      <trkpt lat="50.2094" lon="1.89762">
        <ele>93.884887695312</ele>
        <time>2019-05-07T20:59:32.806Z</time>
      </trkpt>
      <trkpt lat="50.20921" lon="1.8973">
        <ele>93.619499206543</ele>
        <time>2019-05-07T20:59:34.342Z</time>
      </trkpt>
      <trkpt lat="50.20904" lon="1.89699">
        <ele>94.265235900879</ele>
        <time>2019-05-07T20:59:35.883Z</time>
      </trkpt>
      <trkpt lat="50.2088" lon="1.89671">
        <ele>94.27880859375</ele>
        <time>2019-05-07T20:59:37.430Z</time>
      </trkpt>
      <trkpt lat="50.20873" lon="1.89661">
        <ele>94.12109375</ele>
        <time>2019-05-07T20:59:38.979Z</time>
      </trkpt>
      <trkpt lat="50.20858" lon="1.89622">
        <ele>94.203300476074</ele>
        <time>2019-05-07T20:59:40.534Z</time>
      </trkpt>
      <trkpt lat="50.20842" lon="1.89608">
        <ele>93.422607421875</ele>
        <time>2019-05-07T20:59:42.093Z</time>
      </trkpt>
      <trkpt lat="50.20827" lon="1.89577">
        <ele>92.87784576416</ele>
        <time>2019-05-07T20:59:43.657Z</time>
      </trkpt>
      <trkpt lat="50.20821" lon="1.89555">
        <ele>93.416954040527</ele>
        <time>2019-05-07T20:59:45.224Z</time>
      </trkpt>
      <trkpt lat="50.20818" lon="1.89529">
        <ele>94.507995605469</ele>
        <time>2019-05-07T20:59:46.794Z</time>
      </trkpt>
      <trkpt lat="50.20801" lon="1.89473">
        <ele>95.333587646484</ele>
        <time>2019-05-07T20:59:48.372Z</time>
      </trkpt>
      <trkpt lat="50.20794" lon="1.89462">
        <ele>95.269111633301</ele>
        <time>2019-05-07T20:59:49.952Z</time>
      </trkpt>
      <trkpt lat="50.2079" lon="1.89439">
        <ele>95.210983276367</ele>
        <time>2019-05-07T20:59:51.535Z</time>
      </trkpt>
      <trkpt lat="50.20786" lon="1.89416">
        <ele>95.254829406738</ele>
        <time>2019-05-07T20:59:53.121Z</time>
      </trkpt>
      <trkpt lat="50.20771" lon="1.89385">
        <ele>95.065765380859</ele>
        <time>2019-05-07T20:59:54.712Z</time>
      </trkpt>
      <trkpt lat="50.20755" lon="1.89331">
        <ele>94.970542907715</ele>
        <time>2019-05-07T20:59:56.311Z</time>
      </trkpt>
      <trkpt lat="50.20748" lon="1.8931">
        <ele>94.738456726074</ele>
        <time>2019-05-07T20:59:57.913Z</time>
      </trkpt>
      <trkpt lat="50.20739" lon="1.89297">
        <ele>94.325325012207</ele>
        <time>2019-05-07T20:59:59.517Z</time>
      </trkpt>
      <trkpt lat="50.20721" lon="1.89265">
        <ele>93.442764282227</ele>
        <time>2019-05-07T21:00:01.127Z</time>
      </trkpt>
      <trkpt lat="50.20709" lon="1.89252">
        <ele>92.843788146973</ele>
        <time>2019-05-07T21:00:02.740Z</time>
      </trkpt>
      <trkpt lat="50.20691" lon="1.8923">
        <ele>92.558326721191</ele>
        <time>2019-05-07T21:00:04.357Z</time>
      </trkpt>
      <trkpt lat="50.20676" lon="1.89217">
        <ele>92.665222167969</ele>
        <time>2019-05-07T21:00:05.978Z</time>
      </trkpt>
      <trkpt lat="50.20655" lon="1.89198">
        <ele>92.755531311035</ele>
        <time>2019-05-07T21:00:07.604Z</time>
      </trkpt>
      <trkpt lat="50.20639" lon="1.89182">
        <ele>93.014091491699</ele>
        <time>2019-05-07T21:00:09.233Z</time>
      </trkpt>
      <trkpt lat="50.20629" lon="1.89176">
        <ele>92.856101989746</ele>
        <time>2019-05-07T21:00:10.865Z</time>
      </trkpt>
      <trkpt lat="50.20617" lon="1.89168">
        <ele>92.370780944824</ele>
        <time>2019-05-07T21:00:12.499Z</time>
      </trkpt>
      <trkpt lat="50.20598" lon="1.8915">
        <ele>91.649948120117</ele>
        <time>2019-05-07T21:00:14.138Z</time>
      </trkpt>
      <trkpt lat="50.20578" lon="1.89137">
        <ele>90.424453735352</ele>
        <time>2019-05-07T21:00:15.781Z</time>
      </trkpt>
      <trkpt lat="50.20568" lon="1.89134">
        <ele>89.742012023926</ele>
        <time>2019-05-07T21:00:17.426Z</time>
      </trkpt>
      <trkpt lat="50.20556" lon="1.89116">
        <ele>89.373741149902</ele>
        <time>2019-05-07T21:00:19.074Z</time>
      </trkpt>
      <trkpt lat="50.20543" lon="1.89106">
        <ele>88.689064025879</ele>
        <time>2019-05-07T21:00:20.725Z</time>
      </trkpt>
      <trkpt lat="50.20532" lon="1.89102">
        <ele>88.135848999023</ele>
        <time>2019-05-07T21:00:22.379Z</time>
      </trkpt>
      <trkpt lat="50.20515" lon="1.89092">
        <ele>87.522499084473</ele>
        <time>2019-05-07T21:00:24.036Z</time>
      </trkpt>
      <trkpt lat="50.20493" lon="1.89074">
        <ele>86.860473632812</ele>
        <time>2019-05-07T21:00:25.698Z</time>
      </trkpt>
      <trkpt lat="50.20482" lon="1.8906">
        <ele>86.970825195312</ele>
        <time>2019-05-07T21:00:27.363Z</time>
      </trkpt>
      <trkpt lat="50.20469" lon="1.89037">
        <ele>87.587799072266</ele>
        <time>2019-05-07T21:00:29.032Z</time>
      </trkpt>
      <trkpt lat="50.20452" lon="1.89017">
        <ele>87.334091186523</ele>
        <time>2019-05-07T21:00:30.705Z</time>
      </trkpt>
      <trkpt lat="50.20446" lon="1.88999">
        <ele>87.764617919922</ele>
        <time>2019-05-07T21:00:32.381Z</time>
      </trkpt>
      <trkpt lat="50.20441" lon="1.88978">
        <ele>88.152809143066</ele>
        <time>2019-05-07T21:00:34.060Z</time>
      </trkpt>
      <trkpt lat="50.20438" lon="1.8894">
        <ele>87.96736907959</ele>
        <time>2019-05-07T21:00:35.744Z</time>
      </trkpt>
      <trkpt lat="50.20429" lon="1.88916">
        <ele>87.17440032959</ele>
        <time>2019-05-07T21:00:37.431Z</time>
      </trkpt>
      <trkpt lat="50.20415" lon="1.88892">
        <ele>86.677803039551</ele>
        <time>2019-05-07T21:00:39.122Z</time>
      </trkpt>
      <trkpt lat="50.20403" lon="1.88866">
        <ele>86.92951965332</ele>
        <time>2019-05-07T21:00:40.817Z</time>
      </trkpt>
      <trkpt lat="50.20394" lon="1.88855">
        <ele>86.81095123291</ele>
        <time>2019-05-07T21:00:42.515Z</time>
      </trkpt>
      <trkpt lat="50.20391" lon="1.88828">
        <ele>87.309844970703</ele>
        <time>2019-05-07T21:00:44.216Z</time>
      </trkpt>
      <trkpt lat="50.20386" lon="1.88795">
        <ele>87.181526184082</ele>
        <time>2019-05-07T21:00:45.921Z</time>
      </trkpt>
      <trkpt lat="50.20372" lon="1.88775">
        <ele>86.554397583008</ele>
        <time>2019-05-07T21:00:47.630Z</time>
      </trkpt>
      <trkpt lat="50.20341" lon="1.88752">
        <ele>84.328468322754</ele>
        <time>2019-05-07T21:00:49.346Z</time>
      </trkpt>
      <trkpt lat="50.20304" lon="1.88715">
        <ele>82.875419616699</ele>
        <time>2019-05-07T21:00:51.071Z</time>
      </trkpt>
      <trkpt lat="50.20282" lon="1.8869">
        <ele>82.437553405762</ele>
        <time>2019-05-07T21:00:52.801Z</time>
      </trkpt>
      <trkpt lat="50.20258" lon="1.8867">
        <ele>81.648109436035</ele>
        <time>2019-05-07T21:00:54.537Z</time>
      </trkpt>
      <trkpt lat="50.20239" lon="1.88657">
        <ele>80.934898376465</ele>
        <time>2019-05-07T21:00:56.277Z</time>
      </trkpt>
      <trkpt lat="50.20218" lon="1.88635">
        <ele>80.446952819824</ele>
        <time>2019-05-07T21:00:58.022Z</time>
      </trkpt>
      <trkpt lat="50.20194" lon="1.88605">
        <ele>80.821479797363</ele>
        <time>2019-05-07T21:00:59.773Z</time>
      </trkpt>
      <trkpt lat="50.20186" lon="1.88587">
        <ele>81.405662536621</ele>
        <time>2019-05-07T21:01:01.527Z</time>
      </trkpt>
      <trkpt lat="50.2017" lon="1.88561">
        <ele>82.073219299316</ele>
        <time>2019-05-07T21:01:03.286Z</time>
      </trkpt>
      <trkpt lat="50.20154" lon="1.88535">
        <ele>82.737663269043</ele>
        <time>2019-05-07T21:01:05.049Z</time>
      </trkpt>
      <trkpt lat="50.20126" lon="1.88501">
        <ele>83.347663879395</ele>
        <time>2019-05-07T21:01:06.819Z</time>
      </trkpt>
      <trkpt lat="50.20115" lon="1.88491">
        <ele>83.317893981934</ele>
        <time>2019-05-07T21:01:08.592Z</time>
      </trkpt>
      <trkpt lat="50.20095" lon="1.8848">
        <ele>82.87580871582</ele>
        <time>2019-05-07T21:01:10.369Z</time>
      </trkpt>
      <trkpt lat="50.2007" lon="1.88471">
        <ele>82.101448059082</ele>
        <time>2019-05-07T21:01:12.151Z</time>
      </trkpt>
      <trkpt lat="50.20046" lon="1.88457">
        <ele>81.605453491211</ele>
        <time>2019-05-07T21:01:13.939Z</time>
      </trkpt>
      <trkpt lat="50.20029" lon="1.8844">
        <ele>81.246101379395</ele>
        <time>2019-05-07T21:01:15.731Z</time>
      </trkpt>
      <trkpt lat="50.20025" lon="1.88425">
        <ele>81.68497467041</ele>
        <time>2019-05-07T21:01:17.525Z</time>
      </trkpt>
      <trkpt lat="50.20023" lon="1.88407">
        <ele>82.426750183105</ele>
        <time>2019-05-07T21:01:19.321Z</time>
      </trkpt>
      <trkpt lat="50.20013" lon="1.88377">
        <ele>82.414482116699</ele>
        <time>2019-05-07T21:01:21.121Z</time>
      </trkpt>
      <trkpt lat="50.20006" lon="1.88354">
        <ele>82.752456665039</ele>
        <time>2019-05-07T21:01:22.925Z</time>
      </trkpt>
      <trkpt lat="50.2" lon="1.88327">
        <ele>83.526809692383</ele>
        <time>2019-05-07T21:01:24.732Z</time>
      </trkpt>
      <trkpt lat="50.19999" lon="1.88299">
        <ele>84.212219238281</ele>
        <time>2019-05-07T21:01:26.543Z</time>
      </trkpt>
      <trkpt lat="50.19992" lon="1.88265">
        <ele>84.062927246094</ele>
        <time>2019-05-07T21:01:28.359Z</time>
      </trkpt>
      <trkpt lat="50.1998" lon="1.88228">
        <ele>83.171936035156</ele>
        <time>2019-05-07T21:01:30.180Z</time>
      </trkpt>
      <trkpt lat="50.19974" lon="1.88201">
        <ele>83.535583496094</ele>
        <time>2019-05-07T21:01:32.004Z</time>
      </trkpt>
      <trkpt lat="50.1998" lon="1.88174">
        <ele>84.426727294922</ele>
        <time>2019-05-07T21:01:33.832Z</time>
      </trkpt>
      <trkpt lat="50.19983" lon="1.88157">
        <ele>84.272354125977</ele>
        <time>2019-05-07T21:01:35.662Z</time>
      </trkpt>
      <trkpt lat="50.19988" lon="1.88144">
        <ele>84.013008117676</ele>
        <time>2019-05-07T21:01:37.494Z</time>
      </trkpt>
      <trkpt lat="50.19996" lon="1.88124">
        <ele>83.647956848145</ele>
        <time>2019-05-07T21:01:39.329Z</time>
      </trkpt>
      <trkpt lat="50.20004" lon="1.88102">
        <ele>83.368301391602</ele>
        <time>2019-05-07T21:01:41.168Z</time>
      </trkpt>
      <trkpt lat="50.2001" lon="1.88084">
        <ele>83.303939819336</ele>
        <time>2019-05-07T21:01:43.009Z</time>
      </trkpt>
      <trkpt lat="50.20012" lon="1.88056">
        <ele>82.795265197754</ele>
        <time>2019-05-07T21:01:44.854Z</time>
      </trkpt>
      <trkpt lat="50.20017" lon="1.88011">
        <ele>82.648536682129</ele>
        <time>2019-05-07T21:01:46.705Z</time>
      </trkpt>
      <trkpt lat="50.20022" lon="1.87963">
        <ele>82.274726867676</ele>
        <time>2019-05-07T21:01:48.562Z</time>
      </trkpt>
      <trkpt lat="50.2003" lon="1.87927">
        <ele>82.37629699707</ele>
        <time>2019-05-07T21:01:50.424Z</time>
      </trkpt>
      <trkpt lat="50.2004" lon="1.87897">
        <ele>82.555107116699</ele>
        <time>2019-05-07T21:01:52.290Z</time>
      </trkpt>
      <trkpt lat="50.20043" lon="1.87846">
        <ele>82.180595397949</ele>
        <time>2019-05-07T21:01:54.163Z</time>
      </trkpt>
      <trkpt lat="50.20053" lon="1.87827">
        <ele>82.187728881836</ele>
        <time>2019-05-07T21:01:56.039Z</time>
      </trkpt>
      <trkpt lat="50.20064" lon="1.87806">
        <ele>82.87378692627</ele>
        <time>2019-05-07T21:01:57.918Z</time>
      </trkpt>
      <trkpt lat="50.20074" lon="1.87788">
        <ele>83.527671813965</ele>
        <time>2019-05-07T21:01:59.800Z</time>
      </trkpt>
      <trkpt lat="50.20077" lon="1.87764">
        <ele>84</ele>
        <time>2019-05-07T21:02:01.686Z</time>
      </trkpt>
      <trkpt lat="50.20075" lon="1.87744">
        <ele>84</ele>
        <time>2019-05-07T21:02:03.574Z</time>
      </trkpt>
      <trkpt lat="50.20065" lon="1.87702">
        <ele>84.448455810547</ele>
        <time>2019-05-07T21:02:05.468Z</time>
      </trkpt>
      <trkpt lat="50.20059" lon="1.8768">
        <ele>84.71223449707</ele>
        <time>2019-05-07T21:02:07.365Z</time>
      </trkpt>
      <trkpt lat="50.2004" lon="1.87655">
        <ele>84.711814880371</ele>
        <time>2019-05-07T21:02:09.267Z</time>
      </trkpt>
      <trkpt lat="50.20019" lon="1.87641">
        <ele>83.599349975586</ele>
        <time>2019-05-07T21:02:11.174Z</time>
      </trkpt>
      <trkpt lat="50.2001" lon="1.87636">
        <ele>83.11060333252</ele>
        <time>2019-05-07T21:02:13.083Z</time>
      </trkpt>
      <trkpt lat="50.19997" lon="1.87634">
        <ele>82.364807128906</ele>
        <time>2019-05-07T21:02:14.994Z</time>
      </trkpt>
      <trkpt lat="50.19973" lon="1.8762">
        <ele>81.11124420166</ele>
        <time>2019-05-07T21:02:16.910Z</time>
      </trkpt>
      <trkpt lat="50.19955" lon="1.87615">
        <ele>80.328117370605</ele>
        <time>2019-05-07T21:02:18.830Z</time>
      </trkpt>
      <trkpt lat="50.19938" lon="1.87608">
        <ele>80.004096984863</ele>
        <time>2019-05-07T21:02:20.754Z</time>
      </trkpt>
      <trkpt lat="50.1992" lon="1.87603">
        <ele>79.630790710449</ele>
        <time>2019-05-07T21:02:22.681Z</time>
      </trkpt>
      <trkpt lat="50.19904" lon="1.87595">
        <ele>79.35725402832</ele>
        <time>2019-05-07T21:02:24.611Z</time>
      </trkpt>
      <trkpt lat="50.19893" lon="1.87592">
        <ele>79.037178039551</ele>
        <time>2019-05-07T21:02:26.544Z</time>
      </trkpt>
      <trkpt lat="50.19872" lon="1.87585">
        <ele>78.481918334961</ele>
        <time>2019-05-07T21:02:28.481Z</time>
      </trkpt>
      <trkpt lat="50.19856" lon="1.87576">
        <ele>78.600891113281</ele>
        <time>2019-05-07T21:02:30.421Z</time>
      </trkpt>
      <trkpt lat="50.19837" lon="1.87568">
        <ele>78.808029174805</ele>
        <time>2019-05-07T21:02:32.365Z</time>
      </trkpt>
      <trkpt lat="50.19817" lon="1.87561">
        <ele>78.965515136719</ele>
        <time>2019-05-07T21:02:34.313Z</time>
      </trkpt>
      <trkpt lat="50.19802" lon="1.87561">
        <ele>78.812156677246</ele>
        <time>2019-05-07T21:02:36.264Z</time>
      </trkpt>
      <trkpt lat="50.19785" lon="1.87558">
        <ele>79.02173614502</ele>
        <time>2019-05-07T21:02:38.219Z</time>
      </trkpt>
      <trkpt lat="50.19764" lon="1.87558">
        <ele>79.24690246582</ele>
        <time>2019-05-07T21:02:40.178Z</time>
      </trkpt>
      <trkpt lat="50.19747" lon="1.87558">
        <ele>79.477905273438</ele>
        <time>2019-05-07T21:02:42.141Z</time>
      </trkpt>
      <trkpt lat="50.1973" lon="1.8756">
        <ele>79.534622192383</ele>
        <time>2019-05-07T21:02:44.107Z</time>
      </trkpt>
      <trkpt lat="50.19719" lon="1.87562">
        <ele>79.583198547363</ele>
        <time>2019-05-07T21:02:46.075Z</time>
      </trkpt>
      <trkpt lat="50.1971" lon="1.87565">
        <ele>79.464668273926</ele>
        <time>2019-05-07T21:02:48.045Z</time>
      </trkpt>
      <trkpt lat="50.19696" lon="1.8756">
        <ele>79.608474731445</ele>
        <time>2019-05-07T21:02:50.018Z</time>
      </trkpt>
      <trkpt lat="50.19685" lon="1.87557">
        <ele>79.658561706543</ele>
        <time>2019-05-07T21:02:51.993Z</time>
      </trkpt>
      <trkpt lat="50.19662" lon="1.87563">
        <ele>78.98225402832</ele>
        <time>2019-05-07T21:02:53.973Z</time>
      </trkpt>
      <trkpt lat="50.19647" lon="1.87562">
        <ele>78.882591247559</ele>
        <time>2019-05-07T21:02:55.956Z</time>
      </trkpt>
      <trkpt lat="50.19624" lon="1.87553">
        <ele>79.085624694824</ele>
        <time>2019-05-07T21:02:57.944Z</time>
      </trkpt>
      <trkpt lat="50.19601" lon="1.87559">
        <ele>78.354431152344</ele>
        <time>2019-05-07T21:02:59.936Z</time>
      </trkpt>
      <trkpt lat="50.19586" lon="1.87555">
        <ele>78.35684967041</ele>
        <time>2019-05-07T21:03:01.931Z</time>
      </trkpt>
      <trkpt lat="50.19571" lon="1.8756">
        <ele>77.944320678711</ele>
        <time>2019-05-07T21:03:03.929Z</time>
      </trkpt>
      <trkpt lat="50.19549" lon="1.87563">
        <ele>77.507568359375</ele>
        <time>2019-05-07T21:03:05.932Z</time>
      </trkpt>
      <trkpt lat="50.19525" lon="1.87559">
        <ele>77.98828125</ele>
        <time>2019-05-07T21:03:07.940Z</time>
      </trkpt>
      <trkpt lat="50.19506" lon="1.87561">
        <ele>77.869415283203</ele>
        <time>2019-05-07T21:03:09.951Z</time>
      </trkpt>
      <trkpt lat="50.19489" lon="1.87557">
        <ele>78.162666320801</ele>
        <time>2019-05-07T21:03:11.966Z</time>
      </trkpt>
      <trkpt lat="50.19479" lon="1.8756">
        <ele>77.938804626465</ele>
        <time>2019-05-07T21:03:13.983Z</time>
      </trkpt>
      <trkpt lat="50.19469" lon="1.87561">
        <ele>77.846481323242</ele>
        <time>2019-05-07T21:03:16.002Z</time>
      </trkpt>
      <trkpt lat="50.19453" lon="1.87565">
        <ele>77.48021697998</ele>
        <time>2019-05-07T21:03:18.024Z</time>
      </trkpt>
      <trkpt lat="50.19441" lon="1.87563">
        <ele>77.718559265137</ele>
        <time>2019-05-07T21:03:20.049Z</time>
      </trkpt>
      <trkpt lat="50.19421" lon="1.87563">
        <ele>77.963035583496</ele>
        <time>2019-05-07T21:03:22.077Z</time>
      </trkpt>
      <trkpt lat="50.19412" lon="1.87543">
        <ele>79.024208068848</ele>
        <time>2019-05-07T21:03:24.109Z</time>
      </trkpt>
      <trkpt lat="50.194" lon="1.8753">
        <ele>79.799468994141</ele>
        <time>2019-05-07T21:03:26.143Z</time>
      </trkpt>
      <trkpt lat="50.1939" lon="1.87512">
        <ele>80.764503479004</ele>
        <time>2019-05-07T21:03:28.181Z</time>
      </trkpt>
      <trkpt lat="50.19384" lon="1.87498">
        <ele>81.513114929199</ele>
        <time>2019-05-07T21:03:30.221Z</time>
      </trkpt>
      <trkpt lat="50.19376" lon="1.87478">
        <ele>81.936996459961</ele>
        <time>2019-05-07T21:03:32.264Z</time>
      </trkpt>
      <trkpt lat="50.19366" lon="1.87463">
        <ele>81.305938720703</ele>
        <time>2019-05-07T21:03:34.310Z</time>
      </trkpt>
      <trkpt lat="50.19359" lon="1.87434">
        <ele>81.07413482666</ele>
        <time>2019-05-07T21:03:36.359Z</time>
      </trkpt>
      <trkpt lat="50.19359" lon="1.87407">
        <ele>81.356727600098</ele>
        <time>2019-05-07T21:03:38.412Z</time>
      </trkpt>
      <trkpt lat="50.19349" lon="1.87366">
        <ele>80.9267578125</ele>
        <time>2019-05-07T21:03:40.471Z</time>
      </trkpt>
      <trkpt lat="50.19345" lon="1.8732">
        <ele>80.60572052002</ele>
        <time>2019-05-07T21:03:42.536Z</time>
      </trkpt>
      <trkpt lat="50.19344" lon="1.87301">
        <ele>80.791870117188</ele>
        <time>2019-05-07T21:03:44.603Z</time>
      </trkpt>
      <trkpt lat="50.19346" lon="1.87281">
        <ele>81.046028137207</ele>
        <time>2019-05-07T21:03:46.673Z</time>
      </trkpt>
      <trkpt lat="50.19352" lon="1.87267">
        <ele>81.451805114746</ele>
        <time>2019-05-07T21:03:48.745Z</time>
      </trkpt>
      <trkpt lat="50.19357" lon="1.87255">
        <ele>81.695175170898</ele>
        <time>2019-05-07T21:03:50.819Z</time>
      </trkpt>
      <trkpt lat="50.19359" lon="1.87236">
        <ele>81.830436706543</ele>
        <time>2019-05-07T21:03:52.895Z</time>
      </trkpt>
      <trkpt lat="50.19357" lon="1.87212">
        <ele>81.729370117188</ele>
        <time>2019-05-07T21:03:54.974Z</time>
      </trkpt>
      <trkpt lat="50.19361" lon="1.87182">
        <ele>81.959663391113</ele>
        <time>2019-05-07T21:03:57.057Z</time>
      </trkpt>
      <trkpt lat="50.19368" lon="1.87162">
        <ele>82.354385375977</ele>
        <time>2019-05-07T21:03:59.143Z</time>
      </trkpt>
      <trkpt lat="50.19371" lon="1.871">
        <ele>81.245185852051</ele>
        <time>2019-05-07T21:04:01.237Z</time>
      </trkpt>
      <trkpt lat="50.19369" lon="1.87083">
        <ele>80.65234375</ele>
        <time>2019-05-07T21:04:03.333Z</time>
      </trkpt>
      <trkpt lat="50.19364" lon="1.87067">
        <ele>80.047904968262</ele>
        <time>2019-05-07T21:04:05.431Z</time>
      </trkpt>
      <trkpt lat="50.19363" lon="1.8705">
        <ele>79.713455200195</ele>
        <time>2019-05-07T21:04:07.532Z</time>
      </trkpt>
      <trkpt lat="50.19363" lon="1.87036">
        <ele>79.369117736816</ele>
        <time>2019-05-07T21:04:09.635Z</time>
      </trkpt>
      <trkpt lat="50.19363" lon="1.87021">
        <ele>79.014518737793</ele>
        <time>2019-05-07T21:04:11.739Z</time>
      </trkpt>
      <trkpt lat="50.19363" lon="1.86983">
        <ele>78.360107421875</ele>
        <time>2019-05-07T21:04:13.848Z</time>
      </trkpt>
      <trkpt lat="50.19358" lon="1.86957">
        <ele>78.269599914551</ele>
        <time>2019-05-07T21:04:15.961Z</time>
      </trkpt>
      <trkpt lat="50.19347" lon="1.8692">
        <ele>77.880714416504</ele>
        <time>2019-05-07T21:04:18.079Z</time>
      </trkpt>
      <trkpt lat="50.19344" lon="1.86889">
        <ele>77.96410369873</ele>
        <time>2019-05-07T21:04:20.201Z</time>
      </trkpt>
      <trkpt lat="50.19342" lon="1.86872">
        <ele>78.097450256348</ele>
        <time>2019-05-07T21:04:22.325Z</time>
      </trkpt>
      <trkpt lat="50.19339" lon="1.86839">
        <ele>78.06233215332</ele>
        <time>2019-05-07T21:04:24.454Z</time>
      </trkpt>
      <trkpt lat="50.19338" lon="1.86805">
        <ele>78.469718933105</ele>
        <time>2019-05-07T21:04:26.587Z</time>
      </trkpt>
      <trkpt lat="50.19341" lon="1.86788">
        <ele>78.939964294434</ele>
        <time>2019-05-07T21:04:28.722Z</time>
      </trkpt>
      <trkpt lat="50.19353" lon="1.86771">
        <ele>79.327598571777</ele>
        <time>2019-05-07T21:04:30.861Z</time>
      </trkpt>
      <trkpt lat="50.19359" lon="1.86756">
        <ele>79.573181152344</ele>
        <time>2019-05-07T21:04:33.002Z</time>
      </trkpt>
      <trkpt lat="50.19372" lon="1.86734">
        <ele>79.992736816406</ele>
        <time>2019-05-07T21:04:35.147Z</time>
      </trkpt>
      <trkpt lat="50.19381" lon="1.86718">
        <ele>80.22966003418</ele>
        <time>2019-05-07T21:04:37.294Z</time>
      </trkpt>
      <trkpt lat="50.19388" lon="1.86706">
        <ele>80.292816162109</ele>
        <time>2019-05-07T21:04:39.443Z</time>
      </trkpt>
      <trkpt lat="50.19398" lon="1.86687">
        <ele>80.390472412109</ele>
        <time>2019-05-07T21:04:41.596Z</time>
      </trkpt>
      <trkpt lat="50.19406" lon="1.8667">
        <ele>80.506820678711</ele>
        <time>2019-05-07T21:04:43.751Z</time>
      </trkpt>
      <trkpt lat="50.19413" lon="1.86656">
        <ele>80.581535339355</ele>
        <time>2019-05-07T21:04:45.909Z</time>
      </trkpt>
      <trkpt lat="50.19422" lon="1.86648">
        <ele>80.378189086914</ele>
        <time>2019-05-07T21:04:48.069Z</time>
      </trkpt>
      <trkpt lat="50.1945" lon="1.86624">
        <ele>80.492446899414</ele>
        <time>2019-05-07T21:04:50.235Z</time>
      </trkpt>
      <trkpt lat="50.19472" lon="1.86612">
        <ele>81.060173034668</ele>
        <time>2019-05-07T21:04:52.406Z</time>
      </trkpt>
      <trkpt lat="50.19495" lon="1.86607">
        <ele>81.174217224121</ele>
        <time>2019-05-07T21:04:54.581Z</time>
      </trkpt>
      <trkpt lat="50.19515" lon="1.86599">
        <ele>80.385276794434</ele>
        <time>2019-05-07T21:04:56.761Z</time>
      </trkpt>
      <trkpt lat="50.19531" lon="1.86589">
        <ele>79.712791442871</ele>
        <time>2019-05-07T21:04:58.944Z</time>
      </trkpt>
      <trkpt lat="50.19549" lon="1.86592">
        <ele>79.123138427734</ele>
        <time>2019-05-07T21:05:01.131Z</time>
      </trkpt>
      <trkpt lat="50.19557" lon="1.86601">
        <ele>79.050727844238</ele>
        <time>2019-05-07T21:05:03.320Z</time>
      </trkpt>
      <trkpt lat="50.19581" lon="1.86633">
        <ele>78.858749389648</ele>
        <time>2019-05-07T21:05:05.515Z</time>
      </trkpt>
      <trkpt lat="50.19611" lon="1.86655">
        <ele>78.398254394531</ele>
        <time>2019-05-07T21:05:07.717Z</time>
      </trkpt>
      <trkpt lat="50.1962" lon="1.86665">
        <ele>78.204772949219</ele>
        <time>2019-05-07T21:05:09.921Z</time>
      </trkpt>
      <trkpt lat="50.19628" lon="1.86673">
        <ele>78.00464630127</ele>
        <time>2019-05-07T21:05:12.127Z</time>
      </trkpt>
      <trkpt lat="50.19636" lon="1.86683">
        <ele>77.909698486328</ele>
        <time>2019-05-07T21:05:14.335Z</time>
      </trkpt>
      <trkpt lat="50.19648" lon="1.86707">
        <ele>77.76146697998</ele>
        <time>2019-05-07T21:05:16.547Z</time>
      </trkpt>
      <trkpt lat="50.19664" lon="1.86729">
        <ele>77.568984985352</ele>
        <time>2019-05-07T21:05:18.763Z</time>
      </trkpt>
      <trkpt lat="50.19674" lon="1.86749">
        <ele>77.456245422363</ele>
        <time>2019-05-07T21:05:20.982Z</time>
      </trkpt>
      <trkpt lat="50.19694" lon="1.86784">
        <ele>77.20613861084</ele>
        <time>2019-05-07T21:05:23.207Z</time>
      </trkpt>
      <trkpt lat="50.19709" lon="1.86808">
        <ele>77.03547668457</ele>
        <time>2019-05-07T21:05:25.436Z</time>
      </trkpt>
      <trkpt lat="50.1972" lon="1.86825">
        <ele>77.027305603027</ele>
        <time>2019-05-07T21:05:27.669Z</time>
      </trkpt>
      <trkpt lat="50.19727" lon="1.86837">
        <ele>77.175239562988</ele>
        <time>2019-05-07T21:05:29.904Z</time>
      </trkpt>
      <trkpt lat="50.19748" lon="1.86856">
        <ele>77.398094177246</ele>
        <time>2019-05-07T21:05:32.144Z</time>
      </trkpt>
      <trkpt lat="50.1978" lon="1.86895">
        <ele>77.817726135254</ele>
        <time>2019-05-07T21:05:34.392Z</time>
      </trkpt>
      <trkpt lat="50.19789" lon="1.86918">
        <ele>78.070831298828</ele>
        <time>2019-05-07T21:05:36.643Z</time>
      </trkpt>
      <trkpt lat="50.19798" lon="1.86945">
        <ele>78.463287353516</ele>
        <time>2019-05-07T21:05:38.898Z</time>
      </trkpt>
      <trkpt lat="50.19811" lon="1.86973">
        <ele>78.80290222168</ele>
        <time>2019-05-07T21:05:41.158Z</time>
      </trkpt>
      <trkpt lat="50.19829" lon="1.86997">
        <ele>79</ele>
        <time>2019-05-07T21:05:43.422Z</time>
      </trkpt>
      <trkpt lat="50.19841" lon="1.87015">
        <ele>79</ele>
        <time>2019-05-07T21:05:45.690Z</time>
      </trkpt>
      <trkpt lat="50.19845" lon="1.87028">
        <ele>79</ele>
        <time>2019-05-07T21:05:47.959Z</time>
      </trkpt>
      <trkpt lat="50.19852" lon="1.87051">
        <ele>79</ele>
        <time>2019-05-07T21:05:50.232Z</time>
      </trkpt>
      <trkpt lat="50.19873" lon="1.87079">
        <ele>79.071746826172</ele>
        <time>2019-05-07T21:05:52.510Z</time>
      </trkpt>
      <trkpt lat="50.19881" lon="1.87096">
        <ele>79.373680114746</ele>
        <time>2019-05-07T21:05:54.791Z</time>
      </trkpt>
      <trkpt lat="50.1989" lon="1.87115">
        <ele>79.93684387207</ele>
        <time>2019-05-07T21:05:57.075Z</time>
      </trkpt>
      <trkpt lat="50.19899" lon="1.87127">
        <ele>80.376724243164</ele>
        <time>2019-05-07T21:05:59.361Z</time>
      </trkpt>
      <trkpt lat="50.19917" lon="1.87159">
        <ele>81.373565673828</ele>
        <time>2019-05-07T21:06:01.653Z</time>
      </trkpt>
      <trkpt lat="50.19935" lon="1.8719">
        <ele>82.045143127441</ele>
        <time>2019-05-07T21:06:03.950Z</time>
      </trkpt>
      <trkpt lat="50.19944" lon="1.87206">
        <ele>82.362533569336</ele>
        <time>2019-05-07T21:06:06.250Z</time>
      </trkpt>
      <trkpt lat="50.19951" lon="1.87223">
        <ele>82.628631591797</ele>
        <time>2019-05-07T21:06:08.553Z</time>
      </trkpt>
      <trkpt lat="50.19958" lon="1.87237">
        <ele>82.896224975586</ele>
        <time>2019-05-07T21:06:10.858Z</time>
      </trkpt>
      <trkpt lat="50.1997" lon="1.87253">
        <ele>83.156074523926</ele>
        <time>2019-05-07T21:06:13.166Z</time>
      </trkpt>
      <trkpt lat="50.19993" lon="1.87294">
        <ele>83.657096862793</ele>
        <time>2019-05-07T21:06:15.481Z</time>
      </trkpt>
      <trkpt lat="50.20002" lon="1.87314">
        <ele>83.89111328125</ele>
        <time>2019-05-07T21:06:17.799Z</time>
      </trkpt>
      <trkpt lat="50.20018" lon="1.87331">
        <ele>84</ele>
        <time>2019-05-07T21:06:20.121Z</time>
      </trkpt>
      <trkpt lat="50.20033" lon="1.87354">
        <ele>84</ele>
        <time>2019-05-07T21:06:22.447Z</time>
      </trkpt>
      <trkpt lat="50.20055" lon="1.87388">
        <ele>83.883605957031</ele>
        <time>2019-05-07T21:06:24.779Z</time>
      </trkpt>
      <trkpt lat="50.20066" lon="1.87402">
        <ele>83.748245239258</ele>
        <time>2019-05-07T21:06:27.114Z</time>
      </trkpt>
      <trkpt lat="50.20077" lon="1.87418">
        <ele>83.762886047363</ele>
        <time>2019-05-07T21:06:29.452Z</time>
      </trkpt>
      <trkpt lat="50.20083" lon="1.8743">
        <ele>83.835090637207</ele>
        <time>2019-05-07T21:06:31.792Z</time>
      </trkpt>
      <trkpt lat="50.20092" lon="1.87452">
        <ele>83.979904174805</ele>
        <time>2019-05-07T21:06:34.136Z</time>
      </trkpt>
      <trkpt lat="50.20105" lon="1.87469">
        <ele>84.039443969727</ele>
        <time>2019-05-07T21:06:36.483Z</time>
      </trkpt>
      <trkpt lat="50.20116" lon="1.8749">
        <ele>84.148773193359</ele>
        <time>2019-05-07T21:06:38.833Z</time>
      </trkpt>
      <trkpt lat="50.2013" lon="1.87518">
        <ele>83.963066101074</ele>
        <time>2019-05-07T21:06:41.188Z</time>
      </trkpt>
      <trkpt lat="50.20142" lon="1.87541">
        <ele>83.679664611816</ele>
        <time>2019-05-07T21:06:43.547Z</time>
      </trkpt>
      <trkpt lat="50.2015" lon="1.87548">
        <ele>83.490203857422</ele>
        <time>2019-05-07T21:06:45.908Z</time>
      </trkpt>
      <trkpt lat="50.20164" lon="1.87578">
        <ele>83.279037475586</ele>
        <time>2019-05-07T21:06:48.273Z</time>
      </trkpt>
      <trkpt lat="50.20175" lon="1.87592">
        <ele>83.35969543457</ele>
        <time>2019-05-07T21:06:50.641Z</time>
      </trkpt>
      <trkpt lat="50.20181" lon="1.87608">
        <ele>83.565452575684</ele>
        <time>2019-05-07T21:06:53.012Z</time>
      </trkpt>
      <trkpt lat="50.2019" lon="1.87627">
        <ele>83.807411193848</ele>
        <time>2019-05-07T21:06:55.386Z</time>
      </trkpt>
      <trkpt lat="50.20199" lon="1.87648">
        <ele>84</ele>
        <time>2019-05-07T21:06:57.763Z</time>
      </trkpt>
      <trkpt lat="50.20212" lon="1.87664">
        <ele>83.992172241211</ele>
        <time>2019-05-07T21:07:00.143Z</time>
      </trkpt>
      <trkpt lat="50.20219" lon="1.87677">
        <ele>83.816780090332</ele>
        <time>2019-05-07T21:07:02.525Z</time>
      </trkpt>
      <trkpt lat="50.20235" lon="1.87699">
        <ele>83.449310302734</ele>
        <time>2019-05-07T21:07:04.912Z</time>
      </trkpt>
      <trkpt lat="50.2025" lon="1.8773">
        <ele>83.073997497559</ele>
        <time>2019-05-07T21:07:07.304Z</time>
      </trkpt>
      <trkpt lat="50.20266" lon="1.8776">
        <ele>83.186378479004</ele>
        <time>2019-05-07T21:07:09.701Z</time>
      </trkpt>
      <trkpt lat="50.20278" lon="1.87776">
        <ele>83.282112121582</ele>
        <time>2019-05-07T21:07:12.101Z</time>
      </trkpt>
      <trkpt lat="50.20297" lon="1.87796">
        <ele>83.312484741211</ele>
        <time>2019-05-07T21:07:14.505Z</time>
      </trkpt>
      <trkpt lat="50.20311" lon="1.8781">
        <ele>83.306045532227</ele>
        <time>2019-05-07T21:07:16.913Z</time>
      </trkpt>
      <trkpt lat="50.20331" lon="1.87838">
        <ele>83.139106750488</ele>
        <time>2019-05-07T21:07:19.326Z</time>
      </trkpt>
      <trkpt lat="50.20334" lon="1.87853">
        <ele>83.058860778809</ele>
        <time>2019-05-07T21:07:21.741Z</time>
      </trkpt>
      <trkpt lat="50.20325" lon="1.87834">
        <ele>83.281105041504</ele>
        <time>2019-05-07T21:07:24.159Z</time>
      </trkpt>
      <trkpt lat="50.20314" lon="1.87816">
        <ele>83.362770080566</ele>
        <time>2019-05-07T21:07:26.580Z</time>
      </trkpt>
      <trkpt lat="50.20318" lon="1.87799">
        <ele>82.880249023438</ele>
        <time>2019-05-07T21:07:29.004Z</time>
      </trkpt>
      <trkpt lat="50.20316" lon="1.87782">
        <ele>82.511779785156</ele>
        <time>2019-05-07T21:07:31.430Z</time>
      </trkpt>
      <trkpt lat="50.20308" lon="1.87753">
        <ele>82.012771606445</ele>
        <time>2019-05-07T21:07:33.860Z</time>
      </trkpt>
      <trkpt lat="50.20301" lon="1.8774">
        <ele>81.935287475586</ele>
        <time>2019-05-07T21:07:36.292Z</time>
      </trkpt>
      <trkpt lat="50.20293" lon="1.87714">
        <ele>81.767593383789</ele>
        <time>2019-05-07T21:07:38.728Z</time>
      </trkpt>
      <trkpt lat="50.20285" lon="1.87696">
        <ele>81.852470397949</ele>
        <time>2019-05-07T21:07:41.167Z</time>
      </trkpt>
      <trkpt lat="50.20267" lon="1.87664">
        <ele>82.102081298828</ele>
        <time>2019-05-07T21:07:43.611Z</time>
      </trkpt>
      <trkpt lat="50.20255" lon="1.8764">
        <ele>82.033332824707</ele>
        <time>2019-05-07T21:07:46.059Z</time>
      </trkpt>
      <trkpt lat="50.20247" lon="1.87624">
        <ele>81.928848266602</ele>
        <time>2019-05-07T21:07:48.510Z</time>
      </trkpt>
      <trkpt lat="50.2024" lon="1.87605">
        <ele>81.743705749512</ele>
        <time>2019-05-07T21:07:50.963Z</time>
      </trkpt>
      <trkpt lat="50.20231" lon="1.87589">
        <ele>81.723167419434</ele>
        <time>2019-05-07T21:07:53.419Z</time>
      </trkpt>
      <trkpt lat="50.20223" lon="1.87581">
        <ele>81.814178466797</ele>
        <time>2019-05-07T21:07:55.877Z</time>
      </trkpt>
      <trkpt lat="50.20212" lon="1.87566">
        <ele>81.896949768066</ele>
        <time>2019-05-07T21:07:58.338Z</time>
      </trkpt>
      <trkpt lat="50.20205" lon="1.87546">
        <ele>81.917366027832</ele>
        <time>2019-05-07T21:08:00.802Z</time>
      </trkpt>
      <trkpt lat="50.20196" lon="1.87524">
        <ele>81.998123168945</ele>
        <time>2019-05-07T21:08:03.269Z</time>
      </trkpt>
      <trkpt lat="50.20189" lon="1.87513">
        <ele>82.080284118652</ele>
        <time>2019-05-07T21:08:05.738Z</time>
      </trkpt>
      <trkpt lat="50.20163" lon="1.87473">
        <ele>82.558479309082</ele>
        <time>2019-05-07T21:08:08.215Z</time>
      </trkpt>
      <trkpt lat="50.20149" lon="1.87452">
        <ele>82.818237304688</ele>
        <time>2019-05-07T21:08:10.695Z</time>
      </trkpt>
      <trkpt lat="50.20141" lon="1.87443">
        <ele>83.001472473145</ele>
        <time>2019-05-07T21:08:13.177Z</time>
      </trkpt>
      <trkpt lat="50.20129" lon="1.87423">
        <ele>83.177261352539</ele>
        <time>2019-05-07T21:08:15.663Z</time>
      </trkpt>
      <trkpt lat="50.20119" lon="1.87403">
        <ele>83.115783691406</ele>
        <time>2019-05-07T21:08:18.152Z</time>
      </trkpt>
      <trkpt lat="50.20107" lon="1.87374">
        <ele>83.259292602539</ele>
        <time>2019-05-07T21:08:20.646Z</time>
      </trkpt>
      <trkpt lat="50.20092" lon="1.87347">
        <ele>83.436996459961</ele>
        <time>2019-05-07T21:08:23.144Z</time>
      </trkpt>
      <trkpt lat="50.20085" lon="1.87334">
        <ele>83.52579498291</ele>
        <time>2019-05-07T21:08:25.644Z</time>
      </trkpt>
      <trkpt lat="50.20074" lon="1.87321">
        <ele>83.625282287598</ele>
        <time>2019-05-07T21:08:28.147Z</time>
      </trkpt>
      <trkpt lat="50.20061" lon="1.87301">
        <ele>83.545631408691</ele>
        <time>2019-05-07T21:08:30.654Z</time>
      </trkpt>
      <trkpt lat="50.20038" lon="1.87277">
        <ele>83.452743530273</ele>
        <time>2019-05-07T21:08:33.166Z</time>
      </trkpt>
      <trkpt lat="50.20027" lon="1.87258">
        <ele>83.226974487305</ele>
        <time>2019-05-07T21:08:35.682Z</time>
      </trkpt>
      <trkpt lat="50.19977" lon="1.87211">
        <ele>83</ele>
        <time>2019-05-07T21:08:38.209Z</time>
      </trkpt>
      <trkpt lat="50.19964" lon="1.87191">
        <ele>83</ele>
        <time>2019-05-07T21:08:40.740Z</time>
      </trkpt>
      <trkpt lat="50.1995" lon="1.87165">
        <ele>82.572814941406</ele>
        <time>2019-05-07T21:08:43.275Z</time>
      </trkpt>
      <trkpt lat="50.19937" lon="1.8714">
        <ele>81.896980285645</ele>
        <time>2019-05-07T21:08:45.815Z</time>
      </trkpt>
      <trkpt lat="50.19931" lon="1.87124">
        <ele>81.523979187012</ele>
        <time>2019-05-07T21:08:48.357Z</time>
      </trkpt>
      <trkpt lat="50.19923" lon="1.87112">
        <ele>81.079078674316</ele>
        <time>2019-05-07T21:08:50.901Z</time>
      </trkpt>
      <trkpt lat="50.19925" lon="1.87091">
        <ele>80.914047241211</ele>
        <time>2019-05-07T21:08:53.448Z</time>
      </trkpt>
      <trkpt lat="50.19926" lon="1.87073">
        <ele>80.722267150879</ele>
        <time>2019-05-07T21:08:55.997Z</time>
      </trkpt>
      <trkpt lat="50.19935" lon="1.8706">
        <ele>81.028251647949</ele>
        <time>2019-05-07T21:08:58.548Z</time>
      </trkpt>
      <trkpt lat="50.19942" lon="1.87048">
        <ele>81.230323791504</ele>
        <time>2019-05-07T21:09:01.102Z</time>
      </trkpt>
      <trkpt lat="50.19954" lon="1.87027">
        <ele>81.25757598877</ele>
        <time>2019-05-07T21:09:03.659Z</time>
      </trkpt>
      <trkpt lat="50.19962" lon="1.87016">
        <ele>81.318710327148</ele>
        <time>2019-05-07T21:09:06.218Z</time>
      </trkpt>
      <trkpt lat="50.19988" lon="1.86991">
        <ele>81.642227172852</ele>
        <time>2019-05-07T21:09:08.784Z</time>
      </trkpt>
      <trkpt lat="50.20009" lon="1.86976">
        <ele>82.12353515625</ele>
        <time>2019-05-07T21:09:11.354Z</time>
      </trkpt>
      <trkpt lat="50.20028" lon="1.86947">
        <ele>82.282005310059</ele>
        <time>2019-05-07T21:09:13.929Z</time>
      </trkpt>
      <trkpt lat="50.20054" lon="1.8691">
        <ele>82.049758911133</ele>
        <time>2019-05-07T21:09:16.511Z</time>
      </trkpt>
      <trkpt lat="50.20065" lon="1.86891">
        <ele>82</ele>
        <time>2019-05-07T21:09:19.097Z</time>
      </trkpt>
      <trkpt lat="50.20094" lon="1.86846">
        <ele>82</ele>
        <time>2019-05-07T21:09:21.691Z</time>
      </trkpt>
      <trkpt lat="50.20116" lon="1.8682">
        <ele>81.930313110352</ele>
        <time>2019-05-07T21:09:24.290Z</time>
      </trkpt>
      <trkpt lat="50.20157" lon="1.86775">
        <ele>75.98454284668</ele>
        <time>2019-05-07T21:09:26.900Z</time>
      </trkpt>
      <trkpt lat="50.20196" lon="1.86745">
        <ele>71.788681030273</ele>
        <time>2019-05-07T21:09:29.518Z</time>
      </trkpt>
      <trkpt lat="50.20205" lon="1.86739">
        <ele>70.830787658691</ele>
        <time>2019-05-07T21:09:32.138Z</time>
      </trkpt>
      <trkpt lat="50.20217" lon="1.86726">
        <ele>69.816673278809</ele>
        <time>2019-05-07T21:09:34.761Z</time>
      </trkpt>
      <trkpt lat="50.20231" lon="1.86711">
        <ele>69.170944213867</ele>
        <time>2019-05-07T21:09:37.388Z</time>
      </trkpt>
      <trkpt lat="50.20246" lon="1.86697">
        <ele>68.442436218262</ele>
        <time>2019-05-07T21:09:40.018Z</time>
      </trkpt>
      <trkpt lat="50.20262" lon="1.86685">
        <ele>67.408020019531</ele>
        <time>2019-05-07T21:09:42.651Z</time>
      </trkpt>
      <trkpt lat="50.20309" lon="1.86641">
        <ele>65.199188232422</ele>
        <time>2019-05-07T21:09:45.295Z</time>
      </trkpt>
      <trkpt lat="50.20336" lon="1.86617">
        <ele>65.43270111084</ele>
        <time>2019-05-07T21:09:47.946Z</time>
      </trkpt>
      <trkpt lat="50.2035" lon="1.86606">
        <ele>65.490928649902</ele>
        <time>2019-05-07T21:09:50.600Z</time>
      </trkpt>
      <trkpt lat="50.20363" lon="1.86596">
        <ele>65.542419433594</ele>
        <time>2019-05-07T21:09:53.257Z</time>
      </trkpt>
      <trkpt lat="50.20377" lon="1.86586">
        <ele>65.570983886719</ele>
        <time>2019-05-07T21:09:55.917Z</time>
      </trkpt>
      <trkpt lat="50.2039" lon="1.86577">
        <ele>65.684020996094</ele>
        <time>2019-05-07T21:09:58.580Z</time>
      </trkpt>
      <trkpt lat="50.20409" lon="1.86564">
        <ele>66.313865661621</ele>
        <time>2019-05-07T21:10:01.247Z</time>
      </trkpt>
      <trkpt lat="50.20443" lon="1.86531">
        <ele>68.042823791504</ele>
        <time>2019-05-07T21:10:03.922Z</time>
      </trkpt>
      <trkpt lat="50.20451" lon="1.86522">
        <ele>68.768211364746</ele>
        <time>2019-05-07T21:10:06.599Z</time>
      </trkpt>
      <trkpt lat="50.20461" lon="1.86513">
        <ele>69.560768127441</ele>
        <time>2019-05-07T21:10:09.278Z</time>
      </trkpt>
      <trkpt lat="50.20471" lon="1.86505">
        <ele>70.204612731934</ele>
        <time>2019-05-07T21:10:11.960Z</time>
      </trkpt>
      <trkpt lat="50.20481" lon="1.86498">
        <ele>70.20484161377</ele>
        <time>2019-05-07T21:10:14.644Z</time>
      </trkpt>
      <trkpt lat="50.20491" lon="1.8649">
        <ele>69.941864013672</ele>
        <time>2019-05-07T21:10:17.330Z</time>
      </trkpt>
      <trkpt lat="50.20505" lon="1.86479">
        <ele>69.20874786377</ele>
        <time>2019-05-07T21:10:20.019Z</time>
      </trkpt>
      <trkpt lat="50.20526" lon="1.86462">
        <ele>68.118286132812</ele>
        <time>2019-05-07T21:10:22.713Z</time>
      </trkpt>
      <trkpt lat="50.20546" lon="1.86446">
        <ele>67.499755859375</ele>
        <time>2019-05-07T21:10:25.411Z</time>
      </trkpt>
      <trkpt lat="50.20552" lon="1.86425">
        <ele>67.573974609375</ele>
        <time>2019-05-07T21:10:28.112Z</time>
      </trkpt>
      <trkpt lat="50.20551" lon="1.86408">
        <ele>67.312400817871</ele>
        <time>2019-05-07T21:10:30.815Z</time>
      </trkpt>
      <trkpt lat="50.20553" lon="1.86388">
        <ele>67.389427185059</ele>
        <time>2019-05-07T21:10:33.521Z</time>
      </trkpt>
      <trkpt lat="50.20559" lon="1.86369">
        <ele>67.678657531738</ele>
        <time>2019-05-07T21:10:36.230Z</time>
      </trkpt>
      <trkpt lat="50.20566" lon="1.86337">
        <ele>68.013343811035</ele>
        <time>2019-05-07T21:10:38.943Z</time>
      </trkpt>
      <trkpt lat="50.20566" lon="1.86321">
        <ele>68.036293029785</ele>
        <time>2019-05-07T21:10:41.658Z</time>
      </trkpt>
      <trkpt lat="50.20554" lon="1.86278">
        <ele>67.970924377441</ele>
        <time>2019-05-07T21:10:44.379Z</time>
      </trkpt>
      <trkpt lat="50.20549" lon="1.86253">
        <ele>68.00390625</ele>
        <time>2019-05-07T21:10:47.104Z</time>
      </trkpt>
      <trkpt lat="50.20542" lon="1.86217">
        <ele>67.892623901367</ele>
        <time>2019-05-07T21:10:49.833Z</time>
      </trkpt>
      <trkpt lat="50.20543" lon="1.86167">
        <ele>67.925811767578</ele>
        <time>2019-05-07T21:10:52.569Z</time>
      </trkpt>
      <trkpt lat="50.20543" lon="1.86146">
        <ele>67.906196594238</ele>
        <time>2019-05-07T21:10:55.307Z</time>
      </trkpt>
      <trkpt lat="50.20553" lon="1.86115">
        <ele>68.625183105469</ele>
        <time>2019-05-07T21:10:58.050Z</time>
      </trkpt>
      <trkpt lat="50.20557" lon="1.86095">
        <ele>69.035591125488</ele>
        <time>2019-05-07T21:11:00.796Z</time>
      </trkpt>
      <trkpt lat="50.20557" lon="1.86066">
        <ele>69.142501831055</ele>
        <time>2019-05-07T21:11:03.545Z</time>
      </trkpt>
      <trkpt lat="50.20553" lon="1.8604">
        <ele>68.786102294922</ele>
        <time>2019-05-07T21:11:06.298Z</time>
      </trkpt>
      <trkpt lat="50.20552" lon="1.86015">
        <ele>68.644500732422</ele>
        <time>2019-05-07T21:11:09.054Z</time>
      </trkpt>
      <trkpt lat="50.20553" lon="1.85996">
        <ele>68.714492797852</ele>
        <time>2019-05-07T21:11:11.813Z</time>
      </trkpt>
      <trkpt lat="50.20559" lon="1.85942">
        <ele>68.775199890137</ele>
        <time>2019-05-07T21:11:14.579Z</time>
      </trkpt>
      <trkpt lat="50.20566" lon="1.85916">
        <ele>69.012664794922</ele>
        <time>2019-05-07T21:11:17.348Z</time>
      </trkpt>
      <trkpt lat="50.20568" lon="1.85901">
        <ele>68.887390136719</ele>
        <time>2019-05-07T21:11:20.119Z</time>
      </trkpt>
      <trkpt lat="50.2057" lon="1.85872">
        <ele>69.102096557617</ele>
        <time>2019-05-07T21:11:22.894Z</time>
      </trkpt>
      <trkpt lat="50.20572" lon="1.85848">
        <ele>69.221160888672</ele>
        <time>2019-05-07T21:11:25.672Z</time>
      </trkpt>
      <trkpt lat="50.20576" lon="1.85819">
        <ele>68.767105102539</ele>
        <time>2019-05-07T21:11:28.454Z</time>
      </trkpt>
      <trkpt lat="50.2058" lon="1.85796">
        <ele>68.460983276367</ele>
        <time>2019-05-07T21:11:31.239Z</time>
      </trkpt>
      <trkpt lat="50.20584" lon="1.85781">
        <ele>68.360816955566</ele>
        <time>2019-05-07T21:11:34.026Z</time>
      </trkpt>
      <trkpt lat="50.20597" lon="1.85756">
        <ele>68.501815795898</ele>
        <time>2019-05-07T21:11:36.817Z</time>
      </trkpt>
      <trkpt lat="50.20606" lon="1.85734">
        <ele>68.580474853516</ele>
        <time>2019-05-07T21:11:39.611Z</time>
      </trkpt>
      <trkpt lat="50.20613" lon="1.85719">
        <ele>68.761131286621</ele>
        <time>2019-05-07T21:11:42.408Z</time>
      </trkpt>
      <trkpt lat="50.20618" lon="1.8569">
        <ele>68.31079864502</ele>
        <time>2019-05-07T21:11:45.209Z</time>
      </trkpt>
      <trkpt lat="50.20626" lon="1.85649">
        <ele>67.677307128906</ele>
        <time>2019-05-07T21:11:48.015Z</time>
      </trkpt>
      <trkpt lat="50.20632" lon="1.8561">
        <ele>66.446212768555</ele>
        <time>2019-05-07T21:11:50.826Z</time>
      </trkpt>
      <trkpt lat="50.20642" lon="1.85578">
        <ele>65.788429260254</ele>
        <time>2019-05-07T21:11:53.642Z</time>
      </trkpt>
      <trkpt lat="50.20654" lon="1.85535">
        <ele>64.88013458252</ele>
        <time>2019-05-07T21:11:56.464Z</time>
      </trkpt>
      <trkpt lat="50.20662" lon="1.85507">
        <ele>64.625701904297</ele>
        <time>2019-05-07T21:11:59.290Z</time>
      </trkpt>
      <trkpt lat="50.20672" lon="1.85455">
        <ele>65.15478515625</ele>
        <time>2019-05-07T21:12:02.123Z</time>
      </trkpt>
      <trkpt lat="50.20675" lon="1.85414">
        <ele>64.408233642578</ele>
        <time>2019-05-07T21:12:04.961Z</time>
      </trkpt>
      <trkpt lat="50.20661" lon="1.85391">
        <ele>63.577835083008</ele>
        <time>2019-05-07T21:12:07.803Z</time>
      </trkpt>
      <trkpt lat="50.20665" lon="1.85374">
        <ele>63.739143371582</ele>
        <time>2019-05-07T21:12:10.647Z</time>
      </trkpt>
      <trkpt lat="50.20666" lon="1.8535">
        <ele>63.694686889648</ele>
        <time>2019-05-07T21:12:13.494Z</time>
      </trkpt>
      <trkpt lat="50.20674" lon="1.85325">
        <ele>63.651443481445</ele>
        <time>2019-05-07T21:12:16.345Z</time>
      </trkpt>
      <trkpt lat="50.20676" lon="1.85297">
        <ele>63.086193084717</ele>
        <time>2019-05-07T21:12:19.200Z</time>
      </trkpt>
      <trkpt lat="50.20677" lon="1.85272">
        <ele>62.543239593506</ele>
        <time>2019-05-07T21:12:22.058Z</time>
      </trkpt>
      <trkpt lat="50.20685" lon="1.85247">
        <ele>62.226356506348</ele>
        <time>2019-05-07T21:12:24.919Z</time>
      </trkpt>
      <trkpt lat="50.20694" lon="1.85231">
        <ele>62.143890380859</ele>
        <time>2019-05-07T21:12:27.783Z</time>
      </trkpt>
      <trkpt lat="50.20702" lon="1.85199">
        <ele>61.680179595947</ele>
        <time>2019-05-07T21:12:30.652Z</time>
      </trkpt>
      <trkpt lat="50.20711" lon="1.85162">
        <ele>61.10725402832</ele>
        <time>2019-05-07T21:12:33.526Z</time>
      </trkpt>
      <trkpt lat="50.20705" lon="1.8514">
        <ele>60.524341583252</ele>
        <time>2019-05-07T21:12:36.403Z</time>
      </trkpt>
      <trkpt lat="50.20697" lon="1.85067">
        <ele>58.825885772705</ele>
        <time>2019-05-07T21:12:39.289Z</time>
      </trkpt>
      <trkpt lat="50.20699" lon="1.85048">
        <ele>58.703475952148</ele>
        <time>2019-05-07T21:12:42.178Z</time>
      </trkpt>
      <trkpt lat="50.20701" lon="1.85029">
        <ele>58.483135223389</ele>
        <time>2019-05-07T21:12:45.069Z</time>
      </trkpt>
      <trkpt lat="50.20705" lon="1.85011">
        <ele>58.266616821289</ele>
        <time>2019-05-07T21:12:47.963Z</time>
      </trkpt>
      <trkpt lat="50.20711" lon="1.84983">
        <ele>57.943431854248</ele>
        <time>2019-05-07T21:12:50.860Z</time>
      </trkpt>
      <trkpt lat="50.20717" lon="1.84963">
        <ele>57.932506561279</ele>
        <time>2019-05-07T21:12:53.760Z</time>
      </trkpt>
      <trkpt lat="50.20724" lon="1.84935">
        <ele>57.941356658936</ele>
        <time>2019-05-07T21:12:56.664Z</time>
      </trkpt>
      <trkpt lat="50.20727" lon="1.84912">
        <ele>57.570209503174</ele>
        <time>2019-05-07T21:12:59.571Z</time>
      </trkpt>
      <trkpt lat="50.20728" lon="1.84893">
        <ele>57.240375518799</ele>
        <time>2019-05-07T21:13:02.481Z</time>
      </trkpt>
      <trkpt lat="50.2072" lon="1.84879">
        <ele>56.879344940186</ele>
        <time>2019-05-07T21:13:05.393Z</time>
      </trkpt>
      <trkpt lat="50.2072" lon="1.84864">
        <ele>56.708782196045</ele>
        <time>2019-05-07T21:13:08.307Z</time>
      </trkpt>
      <trkpt lat="50.2072" lon="1.84846">
        <ele>56.467021942139</ele>
        <time>2019-05-07T21:13:11.223Z</time>
      </trkpt>
      <trkpt lat="50.20721" lon="1.84818">
        <ele>56.1130027771</ele>
        <time>2019-05-07T21:13:14.143Z</time>
      </trkpt>
      <trkpt lat="50.20721" lon="1.84803">
        <ele>56.110088348389</ele>
        <time>2019-05-07T21:13:17.065Z</time>
      </trkpt>
      <trkpt lat="50.20719" lon="1.8478">
        <ele>56.086353302002</ele>
        <time>2019-05-07T21:13:19.990Z</time>
      </trkpt>
      <trkpt lat="50.20721" lon="1.84763">
        <ele>56.114711761475</ele>
        <time>2019-05-07T21:13:22.917Z</time>
      </trkpt>
      <trkpt lat="50.20725" lon="1.84717">
        <ele>56.310882568359</ele>
        <time>2019-05-07T21:13:25.850Z</time>
      </trkpt>
      <trkpt lat="50.20723" lon="1.84679">
        <ele>56.269046783447</ele>
        <time>2019-05-07T21:13:28.788Z</time>
      </trkpt>
      <trkpt lat="50.20743" lon="1.84568">
        <ele>56.625022888184</ele>
        <time>2019-05-07T21:13:31.741Z</time>
      </trkpt>
      <trkpt lat="50.20751" lon="1.84536">
        <ele>56.530994415283</ele>
        <time>2019-05-07T21:13:34.698Z</time>
      </trkpt>
      <trkpt lat="50.20755" lon="1.84499">
        <ele>55.702079772949</ele>
        <time>2019-05-07T21:13:37.660Z</time>
      </trkpt>
      <trkpt lat="50.20751" lon="1.84476">
        <ele>55.251342773438</ele>
        <time>2019-05-07T21:13:40.625Z</time>
      </trkpt>
      <trkpt lat="50.20746" lon="1.84461">
        <ele>55.093154907227</ele>
        <time>2019-05-07T21:13:43.592Z</time>
      </trkpt>
      <trkpt lat="50.20746" lon="1.84441">
        <ele>54.637386322021</ele>
        <time>2019-05-07T21:13:46.562Z</time>
      </trkpt>
      <trkpt lat="50.20755" lon="1.84407">
        <ele>54.989727020264</ele>
        <time>2019-05-07T21:13:49.536Z</time>
      </trkpt>
      <trkpt lat="50.20758" lon="1.84386">
        <ele>54.760971069336</ele>
        <time>2019-05-07T21:13:52.513Z</time>
      </trkpt>
      <trkpt lat="50.2076" lon="1.84356">
        <ele>54.572994232178</ele>
        <time>2019-05-07T21:13:55.494Z</time>
      </trkpt>
      <trkpt lat="50.20764" lon="1.84335">
        <ele>54.620258331299</ele>
        <time>2019-05-07T21:13:58.478Z</time>
      </trkpt>
      <trkpt lat="50.20762" lon="1.84312">
        <ele>54.361473083496</ele>
        <time>2019-05-07T21:14:01.465Z</time>
      </trkpt>
      <trkpt lat="50.2076" lon="1.84288">
        <ele>53.75757598877</ele>
        <time>2019-05-07T21:14:04.455Z</time>
      </trkpt>
      <trkpt lat="50.20757" lon="1.84263">
        <ele>54.148315429688</ele>
        <time>2019-05-07T21:14:07.448Z</time>
      </trkpt>
      <trkpt lat="50.20752" lon="1.8423">
        <ele>54.322769165039</ele>
        <time>2019-05-07T21:14:10.446Z</time>
      </trkpt>
      <trkpt lat="50.20754" lon="1.84211">
        <ele>54.218883514404</ele>
        <time>2019-05-07T21:14:13.446Z</time>
      </trkpt>
      <trkpt lat="50.20754" lon="1.84192">
        <ele>54.13890838623</ele>
        <time>2019-05-07T21:14:16.448Z</time>
      </trkpt>
      <trkpt lat="50.20755" lon="1.84167">
        <ele>54.46907043457</ele>
        <time>2019-05-07T21:14:19.454Z</time>
      </trkpt>
      <trkpt lat="50.20744" lon="1.84144">
        <ele>53.811466217041</ele>
        <time>2019-05-07T21:14:22.463Z</time>
      </trkpt>
      <trkpt lat="50.20741" lon="1.84111">
        <ele>53.993190765381</ele>
        <time>2019-05-07T21:14:25.477Z</time>
      </trkpt>
      <trkpt lat="50.20738" lon="1.84086">
        <ele>54.519454956055</ele>
        <time>2019-05-07T21:14:28.494Z</time>
      </trkpt>
      <trkpt lat="50.20736" lon="1.84062">
        <ele>55.066230773926</ele>
        <time>2019-05-07T21:14:31.514Z</time>
      </trkpt>
      <trkpt lat="50.20738" lon="1.84046">
        <ele>55.502487182617</ele>
        <time>2019-05-07T21:14:34.536Z</time>
      </trkpt>
      <trkpt lat="50.20741" lon="1.84015">
        <ele>56.215190887451</ele>
        <time>2019-05-07T21:14:37.562Z</time>
      </trkpt>
      <trkpt lat="50.2074" lon="1.83993">
        <ele>56.895824432373</ele>
        <time>2019-05-07T21:14:40.591Z</time>
      </trkpt>
      <trkpt lat="50.20742" lon="1.8396">
        <ele>58.110229492188</ele>
        <time>2019-05-07T21:14:43.624Z</time>
      </trkpt>
      <trkpt lat="50.20746" lon="1.83924">
        <ele>58.863189697266</ele>
        <time>2019-05-07T21:14:46.662Z</time>
      </trkpt>
      <trkpt lat="50.20746" lon="1.83905">
        <ele>58.697875976562</ele>
        <time>2019-05-07T21:14:49.702Z</time>
      </trkpt>
      <trkpt lat="50.20742" lon="1.83887">
        <ele>58.496143341064</ele>
        <time>2019-05-07T21:14:52.745Z</time>
      </trkpt>
      <trkpt lat="50.20739" lon="1.83867">
        <ele>58.450786590576</ele>
        <time>2019-05-07T21:14:55.790Z</time>
      </trkpt>
      <trkpt lat="50.20744" lon="1.83844">
        <ele>58.962459564209</ele>
        <time>2019-05-07T21:14:58.838Z</time>
      </trkpt>
      <trkpt lat="50.20747" lon="1.8382">
        <ele>58.848930358887</ele>
        <time>2019-05-07T21:15:01.890Z</time>
      </trkpt>
      <trkpt lat="50.20744" lon="1.838">
        <ele>58.203598022461</ele>
        <time>2019-05-07T21:15:04.944Z</time>
      </trkpt>
      <trkpt lat="50.20747" lon="1.83775">
        <ele>57.824363708496</ele>
        <time>2019-05-07T21:15:08.001Z</time>
      </trkpt>
      <trkpt lat="50.20752" lon="1.83754">
        <ele>57.440017700195</ele>
        <time>2019-05-07T21:15:11.061Z</time>
      </trkpt>
      <trkpt lat="50.20751" lon="1.83705">
        <ele>55.978103637695</ele>
        <time>2019-05-07T21:15:14.128Z</time>
      </trkpt>
      <trkpt lat="50.20745" lon="1.8367">
        <ele>54.707553863525</ele>
        <time>2019-05-07T21:15:17.199Z</time>
      </trkpt>
      <trkpt lat="50.20744" lon="1.83621">
        <ele>54.742183685303</ele>
        <time>2019-05-07T21:15:20.277Z</time>
      </trkpt>
      <trkpt lat="50.20742" lon="1.83605">
        <ele>54.79638671875</ele>
        <time>2019-05-07T21:15:23.357Z</time>
      </trkpt>
      <trkpt lat="50.20746" lon="1.83559">
        <ele>54.640705108643</ele>
        <time>2019-05-07T21:15:26.443Z</time>
      </trkpt>
      <trkpt lat="50.20749" lon="1.83543">
        <ele>54.805633544922</ele>
        <time>2019-05-07T21:15:29.531Z</time>
      </trkpt>
      <trkpt lat="50.20755" lon="1.8352">
        <ele>54.945346832275</ele>
        <time>2019-05-07T21:15:32.622Z</time>
      </trkpt>
      <trkpt lat="50.20762" lon="1.83505">
        <ele>54.988994598389</ele>
        <time>2019-05-07T21:15:35.715Z</time>
      </trkpt>
      <trkpt lat="50.20767" lon="1.83492">
        <ele>55.016952514648</ele>
        <time>2019-05-07T21:15:38.810Z</time>
      </trkpt>
      <trkpt lat="50.20771" lon="1.83478">
        <ele>55.258819580078</ele>
        <time>2019-05-07T21:15:41.907Z</time>
      </trkpt>
      <trkpt lat="50.20778" lon="1.83461">
        <ele>55.596321105957</ele>
        <time>2019-05-07T21:15:45.007Z</time>
      </trkpt>
      <trkpt lat="50.20786" lon="1.83446">
        <ele>55.773113250732</ele>
        <time>2019-05-07T21:15:48.109Z</time>
      </trkpt>
      <trkpt lat="50.20789" lon="1.83427">
        <ele>55.857387542725</ele>
        <time>2019-05-07T21:15:51.214Z</time>
      </trkpt>
      <trkpt lat="50.20803" lon="1.83433">
        <ele>56.099456787109</ele>
        <time>2019-05-07T21:15:54.322Z</time>
      </trkpt>
      <trkpt lat="50.20812" lon="1.83443">
        <ele>56.199718475342</ele>
        <time>2019-05-07T21:15:57.432Z</time>
      </trkpt>
      <trkpt lat="50.20829" lon="1.83467">
        <ele>56.401054382324</ele>
        <time>2019-05-07T21:16:00.546Z</time>
      </trkpt>
      <trkpt lat="50.20835" lon="1.83477">
        <ele>56.478187561035</ele>
        <time>2019-05-07T21:16:03.662Z</time>
      </trkpt>
      <trkpt lat="50.20856" lon="1.83505">
        <ele>56.918464660645</ele>
        <time>2019-05-07T21:16:06.784Z</time>
      </trkpt>
      <trkpt lat="50.20862" lon="1.83516">
        <ele>57.126636505127</ele>
        <time>2019-05-07T21:16:09.908Z</time>
      </trkpt>
      <trkpt lat="50.20869" lon="1.83539">
        <ele>57.487266540527</ele>
        <time>2019-05-07T21:16:13.035Z</time>
      </trkpt>
      <trkpt lat="50.20882" lon="1.83565">
        <ele>57.95389175415</ele>
        <time>2019-05-07T21:16:16.166Z</time>
      </trkpt>
      <trkpt lat="50.20891" lon="1.83577">
        <ele>58.025215148926</ele>
        <time>2019-05-07T21:16:19.299Z</time>
      </trkpt>
      <trkpt lat="50.20897" lon="1.83609">
        <ele>58.231479644775</ele>
        <time>2019-05-07T21:16:22.437Z</time>
      </trkpt>
      <trkpt lat="50.20904" lon="1.83618">
        <ele>58.20573425293</ele>
        <time>2019-05-07T21:16:25.577Z</time>
      </trkpt>
      <trkpt lat="50.20915" lon="1.83628">
        <ele>58.008625030518</ele>
        <time>2019-05-07T21:16:28.719Z</time>
      </trkpt>
      <trkpt lat="50.20931" lon="1.83656">
        <ele>58.143886566162</ele>
        <time>2019-05-07T21:16:31.866Z</time>
      </trkpt>
      <trkpt lat="50.20943" lon="1.83688">
        <ele>58.445384979248</ele>
        <time>2019-05-07T21:16:35.018Z</time>
      </trkpt>
      <trkpt lat="50.20956" lon="1.83702">
        <ele>58.338584899902</ele>
        <time>2019-05-07T21:16:38.173Z</time>
      </trkpt>
      <trkpt lat="50.20965" lon="1.83701">
        <ele>58.091251373291</ele>
        <time>2019-05-07T21:16:41.330Z</time>
      </trkpt>
      <trkpt lat="50.20971" lon="1.8373">
        <ele>58.776508331299</ele>
        <time>2019-05-07T21:16:44.491Z</time>
      </trkpt>
      <trkpt lat="50.2098" lon="1.83745">
        <ele>58.924491882324</ele>
        <time>2019-05-07T21:16:47.654Z</time>
      </trkpt>
      <trkpt lat="50.20991" lon="1.83768">
        <ele>58.653064727783</ele>
        <time>2019-05-07T21:16:50.821Z</time>
      </trkpt>
      <trkpt lat="50.21003" lon="1.83784">
        <ele>58.612022399902</ele>
        <time>2019-05-07T21:16:53.991Z</time>
      </trkpt>
      <trkpt lat="50.21016" lon="1.83814">
        <ele>58.841613769531</ele>
        <time>2019-05-07T21:16:57.166Z</time>
      </trkpt>
      <trkpt lat="50.21029" lon="1.83827">
        <ele>58.700923919678</ele>
        <time>2019-05-07T21:17:00.344Z</time>
      </trkpt>
      <trkpt lat="50.21041" lon="1.83846">
        <ele>58.714096069336</ele>
        <time>2019-05-07T21:17:03.525Z</time>
      </trkpt>
      <trkpt lat="50.21049" lon="1.83857">
        <ele>58.75732421875</ele>
        <time>2019-05-07T21:17:06.708Z</time>
      </trkpt>
      <trkpt lat="50.21058" lon="1.83884">
        <ele>59.180503845215</ele>
        <time>2019-05-07T21:17:09.895Z</time>
      </trkpt>
      <trkpt lat="50.21065" lon="1.83907">
        <ele>59.543304443359</ele>
        <time>2019-05-07T21:17:13.085Z</time>
      </trkpt>
      <trkpt lat="50.21087" lon="1.83925">
        <ele>59.228534698486</ele>
        <time>2019-05-07T21:17:16.281Z</time>
      </trkpt>
      <trkpt lat="50.21098" lon="1.83944">
        <ele>59.190319061279</ele>
        <time>2019-05-07T21:17:19.480Z</time>
      </trkpt>
      <trkpt lat="50.21105" lon="1.83958">
        <ele>59.195045471191</ele>
        <time>2019-05-07T21:17:22.681Z</time>
      </trkpt>
      <trkpt lat="50.21116" lon="1.83975">
        <ele>59.120021820068</ele>
        <time>2019-05-07T21:17:25.885Z</time>
      </trkpt>
      <trkpt lat="50.21146" lon="1.84003">
        <ele>58.953598022461</ele>
        <time>2019-05-07T21:17:29.096Z</time>
      </trkpt>
      <trkpt lat="50.21163" lon="1.84025">
        <ele>59.018562316895</ele>
        <time>2019-05-07T21:17:32.312Z</time>
      </trkpt>
      <trkpt lat="50.2118" lon="1.84051">
        <ele>59.119129180908</ele>
        <time>2019-05-07T21:17:35.532Z</time>
      </trkpt>
      <trkpt lat="50.21189" lon="1.84069">
        <ele>59.241619110107</ele>
        <time>2019-05-07T21:17:38.755Z</time>
      </trkpt>
      <trkpt lat="50.21214" lon="1.84092">
        <ele>59.575843811035</ele>
        <time>2019-05-07T21:17:41.984Z</time>
      </trkpt>
      <trkpt lat="50.21225" lon="1.84107">
        <ele>60.584922790527</ele>
        <time>2019-05-07T21:17:45.216Z</time>
      </trkpt>
      <trkpt lat="50.21245" lon="1.84124">
        <ele>62.207859039307</ele>
        <time>2019-05-07T21:17:48.453Z</time>
      </trkpt>
      <trkpt lat="50.21253" lon="1.84143">
        <ele>63.175807952881</ele>
        <time>2019-05-07T21:17:51.693Z</time>
      </trkpt>
      <trkpt lat="50.21262" lon="1.84162">
        <ele>63.981986999512</ele>
        <time>2019-05-07T21:17:54.936Z</time>
      </trkpt>
      <trkpt lat="50.21279" lon="1.84163">
        <ele>65.025863647461</ele>
        <time>2019-05-07T21:17:58.182Z</time>
      </trkpt>
      <trkpt lat="50.21302" lon="1.84126">
        <ele>65.45874786377</ele>
        <time>2019-05-07T21:18:01.435Z</time>
      </trkpt>
      <trkpt lat="50.21313" lon="1.84109">
        <ele>65.313331604004</ele>
        <time>2019-05-07T21:18:04.691Z</time>
      </trkpt>
      <trkpt lat="50.21323" lon="1.84095">
        <ele>65.249237060547</ele>
        <time>2019-05-07T21:18:07.949Z</time>
      </trkpt>
      <trkpt lat="50.21331" lon="1.84081">
        <ele>65.405517578125</ele>
        <time>2019-05-07T21:18:11.210Z</time>
      </trkpt>
      <trkpt lat="50.21342" lon="1.84066">
        <ele>65.602828979492</ele>
        <time>2019-05-07T21:18:14.474Z</time>
      </trkpt>
      <trkpt lat="50.21379" lon="1.84012">
        <ele>67.018699645996</ele>
        <time>2019-05-07T21:18:17.748Z</time>
      </trkpt>
      <trkpt lat="50.21394" lon="1.8399">
        <ele>67.542449951172</ele>
        <time>2019-05-07T21:18:21.026Z</time>
      </trkpt>
      <trkpt lat="50.21402" lon="1.83976">
        <ele>67.988487243652</ele>
        <time>2019-05-07T21:18:24.306Z</time>
      </trkpt>
      <trkpt lat="50.2141" lon="1.83964">
        <ele>68.414184570312</ele>
        <time>2019-05-07T21:18:27.589Z</time>
      </trkpt>
      <trkpt lat="50.21411" lon="1.83949">
        <ele>68.64820098877</ele>
        <time>2019-05-07T21:18:30.874Z</time>
      </trkpt>
      <trkpt lat="50.21399" lon="1.83931">
        <ele>68.424240112305</ele>
        <time>2019-05-07T21:18:34.162Z</time>
      </trkpt>
      <trkpt lat="50.21389" lon="1.83911">
        <ele>68.180358886719</ele>
        <time>2019-05-07T21:18:37.453Z</time>
      </trkpt>
      <trkpt lat="50.21374" lon="1.83891">
        <ele>68.127571105957</ele>
        <time>2019-05-07T21:18:40.748Z</time>
      </trkpt>
      <trkpt lat="50.21365" lon="1.83879">
        <ele>68.147689819336</ele>
        <time>2019-05-07T21:18:44.046Z</time>
      </trkpt>
      <trkpt lat="50.21352" lon="1.83849">
        <ele>68.362701416016</ele>
        <time>2019-05-07T21:18:47.348Z</time>
      </trkpt>
      <trkpt lat="50.21341" lon="1.83833">
        <ele>68.419013977051</ele>
        <time>2019-05-07T21:18:50.653Z</time>
      </trkpt>
      <trkpt lat="50.21334" lon="1.83819">
        <ele>68.432922363281</ele>
        <time>2019-05-07T21:18:53.960Z</time>
      </trkpt>
      <trkpt lat="50.21325" lon="1.83802">
        <ele>68.109901428223</ele>
        <time>2019-05-07T21:18:57.270Z</time>
      </trkpt>
      <trkpt lat="50.21318" lon="1.83792">
        <ele>67.909675598145</ele>
        <time>2019-05-07T21:19:00.582Z</time>
      </trkpt>
      <trkpt lat="50.21302" lon="1.8376">
        <ele>67.334838867188</ele>
        <time>2019-05-07T21:19:03.899Z</time>
      </trkpt>
      <trkpt lat="50.21283" lon="1.8373">
        <ele>66.965187072754</ele>
        <time>2019-05-07T21:19:07.222Z</time>
      </trkpt>
      <trkpt lat="50.21275" lon="1.83717">
        <ele>66.974769592285</ele>
        <time>2019-05-07T21:19:10.547Z</time>
      </trkpt>
      <trkpt lat="50.21264" lon="1.83701">
        <ele>66.911613464355</ele>
        <time>2019-05-07T21:19:13.875Z</time>
      </trkpt>
      <trkpt lat="50.21243" lon="1.83681">
        <ele>66.925193786621</ele>
        <time>2019-05-07T21:19:17.208Z</time>
      </trkpt>
      <trkpt lat="50.21224" lon="1.83649">
        <ele>66.704605102539</ele>
        <time>2019-05-07T21:19:20.547Z</time>
      </trkpt>
      <trkpt lat="50.21214" lon="1.83632">
        <ele>66.402404785156</ele>
        <time>2019-05-07T21:19:23.889Z</time>
      </trkpt>
      <trkpt lat="50.21204" lon="1.83615">
        <ele>66.133392333984</ele>
        <time>2019-05-07T21:19:27.234Z</time>
      </trkpt>
      <trkpt lat="50.21187" lon="1.83597">
        <ele>65.890022277832</ele>
        <time>2019-05-07T21:19:30.583Z</time>
      </trkpt>
      <trkpt lat="50.21178" lon="1.83586">
        <ele>65.746208190918</ele>
        <time>2019-05-07T21:19:33.934Z</time>
      </trkpt>
      <trkpt lat="50.21172" lon="1.83566">
        <ele>65.550735473633</ele>
        <time>2019-05-07T21:19:37.288Z</time>
      </trkpt>
      <trkpt lat="50.2116" lon="1.83534">
        <ele>66.082122802734</ele>
        <time>2019-05-07T21:19:40.647Z</time>
      </trkpt>
      <trkpt lat="50.21155" lon="1.83518">
        <ele>66.334342956543</ele>
        <time>2019-05-07T21:19:44.008Z</time>
      </trkpt>
      <trkpt lat="50.21147" lon="1.83506">
        <ele>66.559585571289</ele>
        <time>2019-05-07T21:19:47.371Z</time>
      </trkpt>
      <trkpt lat="50.21136" lon="1.83485">
        <ele>66.649185180664</ele>
        <time>2019-05-07T21:19:50.738Z</time>
      </trkpt>
      <trkpt lat="50.21127" lon="1.83476">
        <ele>66.692451477051</ele>
        <time>2019-05-07T21:19:54.107Z</time>
      </trkpt>
      <trkpt lat="50.21117" lon="1.83473">
        <ele>66.759628295898</ele>
        <time>2019-05-07T21:19:57.478Z</time>
      </trkpt>
      <trkpt lat="50.21106" lon="1.83449">
        <ele>66.316940307617</ele>
        <time>2019-05-07T21:20:00.853Z</time>
      </trkpt>
      <trkpt lat="50.21095" lon="1.83426">
        <ele>65.89737701416</ele>
        <time>2019-05-07T21:20:04.231Z</time>
      </trkpt>
      <trkpt lat="50.21077" lon="1.83403">
        <ele>65.619979858398</ele>
        <time>2019-05-07T21:20:07.614Z</time>
      </trkpt>
      <trkpt lat="50.21056" lon="1.83371">
        <ele>65.870788574219</ele>
        <time>2019-05-07T21:20:11.003Z</time>
      </trkpt>
      <trkpt lat="50.21027" lon="1.8333">
        <ele>65.780746459961</ele>
        <time>2019-05-07T21:20:14.400Z</time>
      </trkpt>
      <trkpt lat="50.21013" lon="1.8331">
        <ele>65.611297607422</ele>
        <time>2019-05-07T21:20:17.801Z</time>
      </trkpt>
      <trkpt lat="50.20994" lon="1.83276">
        <ele>65.388038635254</ele>
        <time>2019-05-07T21:20:21.207Z</time>
      </trkpt>
      <trkpt lat="50.20984" lon="1.83259">
        <ele>65.223426818848</ele>
        <time>2019-05-07T21:20:24.616Z</time>
      </trkpt>
      <trkpt lat="50.20963" lon="1.83226">
        <ele>64.99129486084</ele>
        <time>2019-05-07T21:20:28.031Z</time>
      </trkpt>
      <trkpt lat="50.20946" lon="1.83201">
        <ele>65.563407897949</ele>
        <time>2019-05-07T21:20:31.451Z</time>
      </trkpt>
      <trkpt lat="50.20932" lon="1.83178">
        <ele>66.058494567871</ele>
        <time>2019-05-07T21:20:34.875Z</time>
      </trkpt>
      <trkpt lat="50.20921" lon="1.83158">
        <ele>66.478759765625</ele>
        <time>2019-05-07T21:20:38.302Z</time>
      </trkpt>
      <trkpt lat="50.20912" lon="1.83139">
        <ele>66.603141784668</ele>
        <time>2019-05-07T21:20:41.732Z</time>
      </trkpt>
      <trkpt lat="50.20894" lon="1.83116">
        <ele>66.978858947754</ele>
        <time>2019-05-07T21:20:45.167Z</time>
      </trkpt>
      <trkpt lat="50.20879" lon="1.83096">
        <ele>67.25048828125</ele>
        <time>2019-05-07T21:20:48.606Z</time>
      </trkpt>
      <trkpt lat="50.20871" lon="1.83079">
        <ele>66.716354370117</ele>
        <time>2019-05-07T21:20:52.048Z</time>
      </trkpt>
      <trkpt lat="50.20859" lon="1.83061">
        <ele>66.086158752441</ele>
        <time>2019-05-07T21:20:55.493Z</time>
      </trkpt>
      <trkpt lat="50.20852" lon="1.83048">
        <ele>65.728141784668</ele>
        <time>2019-05-07T21:20:58.940Z</time>
      </trkpt>
      <trkpt lat="50.2084" lon="1.8303">
        <ele>65.106063842773</ele>
        <time>2019-05-07T21:21:02.390Z</time>
      </trkpt>
      <trkpt lat="50.20834" lon="1.83018">
        <ele>64.759613037109</ele>
        <time>2019-05-07T21:21:05.842Z</time>
      </trkpt>
      <trkpt lat="50.20828" lon="1.82998">
        <ele>64.299629211426</ele>
        <time>2019-05-07T21:21:09.297Z</time>
      </trkpt>
      <trkpt lat="50.20824" lon="1.82979">
        <ele>63.896057128906</ele>
        <time>2019-05-07T21:21:12.755Z</time>
      </trkpt>
      <trkpt lat="50.20823" lon="1.8295">
        <ele>63.521949768066</ele>
        <time>2019-05-07T21:21:16.217Z</time>
      </trkpt>
      <trkpt lat="50.20817" lon="1.82923">
        <ele>62.948921203613</ele>
        <time>2019-05-07T21:21:19.682Z</time>
      </trkpt>
      <trkpt lat="50.20814" lon="1.82907">
        <ele>62.487125396729</ele>
        <time>2019-05-07T21:21:23.149Z</time>
      </trkpt>
      <trkpt lat="50.20809" lon="1.82895">
        <ele>62.3310546875</ele>
        <time>2019-05-07T21:21:26.618Z</time>
      </trkpt>
      <trkpt lat="50.20803" lon="1.8288">
        <ele>62.177188873291</ele>
        <time>2019-05-07T21:21:30.090Z</time>
      </trkpt>
      <trkpt lat="50.20802" lon="1.82858">
        <ele>62.159088134766</ele>
        <time>2019-05-07T21:21:33.564Z</time>
      </trkpt>
      <trkpt lat="50.20798" lon="1.8282">
        <ele>62.027187347412</ele>
        <time>2019-05-07T21:21:37.043Z</time>
      </trkpt>
      <trkpt lat="50.20799" lon="1.82784">
        <ele>62.457508087158</ele>
        <time>2019-05-07T21:21:40.527Z</time>
      </trkpt>
      <trkpt lat="50.20792" lon="1.82745">
        <ele>62.929767608643</ele>
        <time>2019-05-07T21:21:44.016Z</time>
      </trkpt>
      <trkpt lat="50.20782" lon="1.82729">
        <ele>63.117824554443</ele>
        <time>2019-05-07T21:21:47.508Z</time>
      </trkpt>
      <trkpt lat="50.20773" lon="1.82715">
        <ele>63.28426361084</ele>
        <time>2019-05-07T21:21:51.003Z</time>
      </trkpt>
      <trkpt lat="50.20755" lon="1.82683">
        <ele>63.666213989258</ele>
        <time>2019-05-07T21:21:54.503Z</time>
      </trkpt>
      <trkpt lat="50.20748" lon="1.82666">
        <ele>63.871269226074</ele>
        <time>2019-05-07T21:21:58.006Z</time>
      </trkpt>
      <trkpt lat="50.20736" lon="1.82631">
        <ele>62.815364837646</ele>
        <time>2019-05-07T21:22:01.514Z</time>
      </trkpt>
      <trkpt lat="50.20744" lon="1.82624">
        <ele>62.491542816162</ele>
        <time>2019-05-07T21:22:05.024Z</time>
      </trkpt>
      <trkpt lat="50.20759" lon="1.82616">
        <ele>62.234760284424</ele>
        <time>2019-05-07T21:22:08.537Z</time>
      </trkpt>
      <trkpt lat="50.20775" lon="1.82621">
        <ele>62.86852645874</ele>
        <time>2019-05-07T21:22:12.053Z</time>
      </trkpt>
      <trkpt lat="50.20793" lon="1.82623">
        <ele>63.532264709473</ele>
        <time>2019-05-07T21:22:15.573Z</time>
      </trkpt>
      <trkpt lat="50.20804" lon="1.82623">
        <ele>63.40406036377</ele>
        <time>2019-05-07T21:22:19.095Z</time>
      </trkpt>
      <trkpt lat="50.20815" lon="1.82625">
        <ele>63.151641845703</ele>
        <time>2019-05-07T21:22:22.619Z</time>
      </trkpt>
      <trkpt lat="50.20829" lon="1.8262">
        <ele>62.763454437256</ele>
        <time>2019-05-07T21:22:26.146Z</time>
      </trkpt>
      <trkpt lat="50.20849" lon="1.82612">
        <ele>62.524341583252</ele>
        <time>2019-05-07T21:22:29.677Z</time>
      </trkpt>
      <trkpt lat="50.20864" lon="1.82586">
        <ele>62.836502075195</ele>
        <time>2019-05-07T21:22:33.213Z</time>
      </trkpt>
      <trkpt lat="50.20871" lon="1.82566">
        <ele>62.925258636475</ele>
        <time>2019-05-07T21:22:36.751Z</time>
      </trkpt>
      <trkpt lat="50.20885" lon="1.82534">
        <ele>62.846084594727</ele>
        <time>2019-05-07T21:22:40.294Z</time>
      </trkpt>
      <trkpt lat="50.20896" lon="1.82501">
        <ele>62.582401275635</ele>
        <time>2019-05-07T21:22:43.842Z</time>
      </trkpt>
      <trkpt lat="50.20906" lon="1.82471">
        <ele>62.135334014893</ele>
        <time>2019-05-07T21:22:47.394Z</time>
      </trkpt>
      <trkpt lat="50.20911" lon="1.8245">
        <ele>61.749965667725</ele>
        <time>2019-05-07T21:22:50.949Z</time>
      </trkpt>
      <trkpt lat="50.2092" lon="1.8243">
        <ele>61.313003540039</ele>
        <time>2019-05-07T21:22:54.507Z</time>
      </trkpt>
      <trkpt lat="50.20933" lon="1.82387">
        <ele>60.468952178955</ele>
        <time>2019-05-07T21:22:58.072Z</time>
      </trkpt>
      <trkpt lat="50.20942" lon="1.82347">
        <ele>60.234565734863</ele>
        <time>2019-05-07T21:23:01.642Z</time>
      </trkpt>
      <trkpt lat="50.20949" lon="1.82325">
        <ele>60.156425476074</ele>
        <time>2019-05-07T21:23:05.215Z</time>
      </trkpt>
      <trkpt lat="50.20953" lon="1.82307">
        <ele>60.218521118164</ele>
        <time>2019-05-07T21:23:08.791Z</time>
      </trkpt>
      <trkpt lat="50.20956" lon="1.82286">
        <ele>60.144908905029</ele>
        <time>2019-05-07T21:23:12.369Z</time>
      </trkpt>
      <trkpt lat="50.2096" lon="1.82271">
        <ele>60.034484863281</ele>
        <time>2019-05-07T21:23:15.950Z</time>
      </trkpt>
      <trkpt lat="50.20972" lon="1.82253">
        <ele>59.623920440674</ele>
        <time>2019-05-07T21:23:19.534Z</time>
      </trkpt>
      <trkpt lat="50.20987" lon="1.82249">
        <ele>58.91926574707</ele>
        <time>2019-05-07T21:23:23.121Z</time>
      </trkpt>
      <trkpt lat="50.21015" lon="1.82245">
        <ele>57.511642456055</ele>
        <time>2019-05-07T21:23:26.714Z</time>
      </trkpt>
      <trkpt lat="50.21037" lon="1.82239">
        <ele>56.413597106934</ele>
        <time>2019-05-07T21:23:30.311Z</time>
      </trkpt>
      <trkpt lat="50.21049" lon="1.82235">
        <ele>55.791458129883</ele>
        <time>2019-05-07T21:23:33.910Z</time>
      </trkpt>
      <trkpt lat="50.21059" lon="1.82236">
        <ele>55.296672821045</ele>
        <time>2019-05-07T21:23:37.511Z</time>
      </trkpt>
      <trkpt lat="50.21074" lon="1.82234">
        <ele>54.579738616943</ele>
        <time>2019-05-07T21:23:41.115Z</time>
      </trkpt>
      <trkpt lat="50.21084" lon="1.82231">
        <ele>54.045429229736</ele>
        <time>2019-05-07T21:23:44.721Z</time>
      </trkpt>
      <trkpt lat="50.21098" lon="1.8223">
        <ele>53.370330810547</ele>
        <time>2019-05-07T21:23:48.330Z</time>
      </trkpt>
      <trkpt lat="50.21113" lon="1.82234">
        <ele>52.697643280029</ele>
        <time>2019-05-07T21:23:51.942Z</time>
      </trkpt>
      <trkpt lat="50.21134" lon="1.8224">
        <ele>52.022655487061</ele>
        <time>2019-05-07T21:23:55.559Z</time>
      </trkpt>
      <trkpt lat="50.21149" lon="1.82241">
        <ele>52.043170928955</ele>
        <time>2019-05-07T21:23:59.179Z</time>
      </trkpt>
      <trkpt lat="50.2116" lon="1.82239">
        <ele>52.012397766113</ele>
        <time>2019-05-07T21:24:02.801Z</time>
      </trkpt>
      <trkpt lat="50.21181" lon="1.82242">
        <ele>52.08540725708</ele>
        <time>2019-05-07T21:24:06.427Z</time>
      </trkpt>
      <trkpt lat="50.21191" lon="1.82245">
        <ele>52.147357940674</ele>
        <time>2019-05-07T21:24:10.055Z</time>
      </trkpt>
      <trkpt lat="50.21201" lon="1.82246">
        <ele>52.172496795654</ele>
        <time>2019-05-07T21:24:13.685Z</time>
      </trkpt>
      <trkpt lat="50.21212" lon="1.82246">
        <ele>52.177528381348</ele>
        <time>2019-05-07T21:24:17.317Z</time>
      </trkpt>
      <trkpt lat="50.21222" lon="1.82247">
        <ele>52.841667175293</ele>
        <time>2019-05-07T21:24:20.951Z</time>
      </trkpt>
      <trkpt lat="50.21237" lon="1.82243">
        <ele>53.585655212402</ele>
        <time>2019-05-07T21:24:24.588Z</time>
      </trkpt>
      <trkpt lat="50.21239" lon="1.82215">
        <ele>53.06120300293</ele>
        <time>2019-05-07T21:24:28.229Z</time>
      </trkpt>
      <trkpt lat="50.21239" lon="1.82189">
        <ele>52.401588439941</ele>
        <time>2019-05-07T21:24:31.873Z</time>
      </trkpt>
      <trkpt lat="50.21234" lon="1.82165">
        <ele>51.741580963135</ele>
        <time>2019-05-07T21:24:35.520Z</time>
      </trkpt>
      <trkpt lat="50.21218" lon="1.82134">
        <ele>50.18773651123</ele>
        <time>2019-05-07T21:24:39.173Z</time>
      </trkpt>
      <trkpt lat="50.2121" lon="1.8212">
        <ele>49.537815093994</ele>
        <time>2019-05-07T21:24:42.828Z</time>
      </trkpt>
      <trkpt lat="50.21202" lon="1.82107">
        <ele>49.188648223877</ele>
        <time>2019-05-07T21:24:46.485Z</time>
      </trkpt>
      <trkpt lat="50.21204" lon="1.82088">
        <ele>49.012557983398</ele>
        <time>2019-05-07T21:24:50.145Z</time>
      </trkpt>
      <trkpt lat="50.21211" lon="1.82067">
        <ele>48.966514587402</ele>
        <time>2019-05-07T21:24:53.808Z</time>
      </trkpt>
      <trkpt lat="50.21212" lon="1.82039">
        <ele>49.004730224609</ele>
        <time>2019-05-07T21:24:57.474Z</time>
      </trkpt>
      <trkpt lat="50.21211" lon="1.82025">
        <ele>48.938858032227</ele>
        <time>2019-05-07T21:25:01.142Z</time>
      </trkpt>
      <trkpt lat="50.2121" lon="1.81985">
        <ele>49.012077331543</ele>
        <time>2019-05-07T21:25:04.815Z</time>
      </trkpt>
      <trkpt lat="50.21211" lon="1.81969">
        <ele>49.443504333496</ele>
        <time>2019-05-07T21:25:08.490Z</time>
      </trkpt>
      <trkpt lat="50.21207" lon="1.81928">
        <ele>50.189102172852</ele>
        <time>2019-05-07T21:25:12.171Z</time>
      </trkpt>
      <trkpt lat="50.21194" lon="1.81901">
        <ele>50.245822906494</ele>
        <time>2019-05-07T21:25:15.856Z</time>
      </trkpt>
      <trkpt lat="50.21165" lon="1.81858">
        <ele>49.864677429199</ele>
        <time>2019-05-07T21:25:19.549Z</time>
      </trkpt>
      <trkpt lat="50.21169" lon="1.81832">
        <ele>50.695552825928</ele>
        <time>2019-05-07T21:25:23.246Z</time>
      </trkpt>
      <trkpt lat="50.2118" lon="1.81814">
        <ele>51.567783355713</ele>
        <time>2019-05-07T21:25:26.946Z</time>
      </trkpt>
      <trkpt lat="50.21193" lon="1.81794">
        <ele>52.641468048096</ele>
        <time>2019-05-07T21:25:30.649Z</time>
      </trkpt>
      <trkpt lat="50.21213" lon="1.81762">
        <ele>55.228790283203</ele>
        <time>2019-05-07T21:25:34.358Z</time>
      </trkpt>
      <trkpt lat="50.2122" lon="1.81736">
        <ele>56.55233001709</ele>
        <time>2019-05-07T21:25:38.071Z</time>
      </trkpt>
      <trkpt lat="50.21228" lon="1.81716">
        <ele>57.52912902832</ele>
        <time>2019-05-07T21:25:41.787Z</time>
      </trkpt>
      <trkpt lat="50.21234" lon="1.817">
        <ele>58.236915588379</ele>
        <time>2019-05-07T21:25:45.505Z</time>
      </trkpt>
      <trkpt lat="50.21237" lon="1.81683">
        <ele>58.875205993652</ele>
        <time>2019-05-07T21:25:49.226Z</time>
      </trkpt>
      <trkpt lat="50.21246" lon="1.81664">
        <ele>59.837322235107</ele>
        <time>2019-05-07T21:25:52.950Z</time>
      </trkpt>
      <trkpt lat="50.21255" lon="1.81643">
        <ele>60.609390258789</ele>
        <time>2019-05-07T21:25:56.677Z</time>
      </trkpt>
      <trkpt lat="50.21258" lon="1.81629">
        <ele>60.792419433594</ele>
        <time>2019-05-07T21:26:00.406Z</time>
      </trkpt>
      <trkpt lat="50.21269" lon="1.81611">
        <ele>61.647945404053</ele>
        <time>2019-05-07T21:26:04.138Z</time>
      </trkpt>
      <trkpt lat="50.21277" lon="1.81588">
        <ele>62.45951461792</ele>
        <time>2019-05-07T21:26:07.873Z</time>
      </trkpt>
      <trkpt lat="50.2128" lon="1.81571">
        <ele>62.888359069824</ele>
        <time>2019-05-07T21:26:11.610Z</time>
      </trkpt>
      <trkpt lat="50.21291" lon="1.81548">
        <ele>63.947658538818</ele>
        <time>2019-05-07T21:26:15.351Z</time>
      </trkpt>
      <trkpt lat="50.21298" lon="1.81534">
        <ele>64.294982910156</ele>
        <time>2019-05-07T21:26:19.094Z</time>
      </trkpt>
      <trkpt lat="50.21305" lon="1.81523">
        <ele>64.018829345703</ele>
        <time>2019-05-07T21:26:22.839Z</time>
      </trkpt>
      <trkpt lat="50.21318" lon="1.81507">
        <ele>63.391529083252</ele>
        <time>2019-05-07T21:26:26.588Z</time>
      </trkpt>
      <trkpt lat="50.21335" lon="1.81496">
        <ele>62.132843017578</ele>
        <time>2019-05-07T21:26:30.340Z</time>
      </trkpt>
      <trkpt lat="50.21345" lon="1.8148">
        <ele>61.234996795654</ele>
        <time>2019-05-07T21:26:34.095Z</time>
      </trkpt>
      <trkpt lat="50.21353" lon="1.81463">
        <ele>60.244018554688</ele>
        <time>2019-05-07T21:26:37.853Z</time>
      </trkpt>
      <trkpt lat="50.21363" lon="1.81447">
        <ele>59.7317237854</ele>
        <time>2019-05-07T21:26:41.614Z</time>
      </trkpt>
      <trkpt lat="50.21373" lon="1.8143">
        <ele>59.2900390625</ele>
        <time>2019-05-07T21:26:45.378Z</time>
      </trkpt>
      <trkpt lat="50.21397" lon="1.8141">
        <ele>56.177406311035</ele>
        <time>2019-05-07T21:26:49.147Z</time>
      </trkpt>
      <trkpt lat="50.21413" lon="1.81384">
        <ele>53.64115524292</ele>
        <time>2019-05-07T21:26:52.921Z</time>
      </trkpt>
      <trkpt lat="50.21424" lon="1.81366">
        <ele>51.986892700195</ele>
        <time>2019-05-07T21:26:56.698Z</time>
      </trkpt>
      <trkpt lat="50.21434" lon="1.81361">
        <ele>50.095043182373</ele>
        <time>2019-05-07T21:27:00.477Z</time>
      </trkpt>
      <trkpt lat="50.21442" lon="1.81352">
        <ele>48.729457855225</ele>
        <time>2019-05-07T21:27:04.258Z</time>
      </trkpt>
      <trkpt lat="50.21454" lon="1.81342">
        <ele>46.628227233887</ele>
        <time>2019-05-07T21:27:08.042Z</time>
      </trkpt>
      <trkpt lat="50.2147" lon="1.81318">
        <ele>45.770721435547</ele>
        <time>2019-05-07T21:27:11.830Z</time>
      </trkpt>
      <trkpt lat="50.21481" lon="1.81307">
        <ele>47.089344024658</ele>
        <time>2019-05-07T21:27:15.621Z</time>
      </trkpt>
      <trkpt lat="50.21494" lon="1.81302">
        <ele>48.283866882324</ele>
        <time>2019-05-07T21:27:19.415Z</time>
      </trkpt>
      <trkpt lat="50.21503" lon="1.81294">
        <ele>49.279270172119</ele>
        <time>2019-05-07T21:27:23.211Z</time>
      </trkpt>
      <trkpt lat="50.21531" lon="1.8127">
        <ele>52.439254760742</ele>
        <time>2019-05-07T21:27:27.013Z</time>
      </trkpt>
      <trkpt lat="50.21546" lon="1.81257">
        <ele>54.210338592529</ele>
        <time>2019-05-07T21:27:30.819Z</time>
      </trkpt>
      <trkpt lat="50.21553" lon="1.81245">
        <ele>55.382377624512</ele>
        <time>2019-05-07T21:27:34.627Z</time>
      </trkpt>
      <trkpt lat="50.21537" lon="1.81259">
        <ele>53.40991973877</ele>
        <time>2019-05-07T21:27:38.438Z</time>
      </trkpt>
      <trkpt lat="50.21527" lon="1.81272">
        <ele>52.022911071777</ele>
        <time>2019-05-07T21:27:42.252Z</time>
      </trkpt>
      <trkpt lat="50.21505" lon="1.81292">
        <ele>49.538928985596</ele>
        <time>2019-05-07T21:27:46.071Z</time>
      </trkpt>
      <trkpt lat="50.21505" lon="1.81317">
        <ele>48.314842224121</ele>
        <time>2019-05-07T21:27:49.893Z</time>
      </trkpt>
      <trkpt lat="50.21505" lon="1.81341">
        <ele>48.123344421387</ele>
        <time>2019-05-07T21:27:53.718Z</time>
      </trkpt>
      <trkpt lat="50.21512" lon="1.81363">
        <ele>48.610286712646</ele>
        <time>2019-05-07T21:27:57.546Z</time>
      </trkpt>
      <trkpt lat="50.21523" lon="1.81385">
        <ele>49.408195495605</ele>
        <time>2019-05-07T21:28:01.378Z</time>
      </trkpt>
      <trkpt lat="50.21526" lon="1.81405">
        <ele>49.815612792969</ele>
        <time>2019-05-07T21:28:05.213Z</time>
      </trkpt>
      <trkpt lat="50.2153" lon="1.81426">
        <ele>50.054962158203</ele>
        <time>2019-05-07T21:28:09.050Z</time>
      </trkpt>
      <trkpt lat="50.21537" lon="1.81445">
        <ele>50.510021209717</ele>
        <time>2019-05-07T21:28:12.890Z</time>
      </trkpt>
      <trkpt lat="50.21542" lon="1.81457">
        <ele>50.789093017578</ele>
        <time>2019-05-07T21:28:16.732Z</time>
      </trkpt>
      <trkpt lat="50.21545" lon="1.81475">
        <ele>50.956031799316</ele>
        <time>2019-05-07T21:28:20.577Z</time>
      </trkpt>
      <trkpt lat="50.21548" lon="1.81494">
        <ele>51.279514312744</ele>
        <time>2019-05-07T21:28:24.424Z</time>
      </trkpt>
      <trkpt lat="50.21555" lon="1.81524">
        <ele>52.145992279053</ele>
        <time>2019-05-07T21:28:28.275Z</time>
      </trkpt>
      <trkpt lat="50.21563" lon="1.81548">
        <ele>53.001205444336</ele>
        <time>2019-05-07T21:28:32.130Z</time>
      </trkpt>
      <trkpt lat="50.2157" lon="1.81576">
        <ele>53.752368927002</ele>
        <time>2019-05-07T21:28:35.989Z</time>
      </trkpt>
      <trkpt lat="50.21575" lon="1.81593">
        <ele>53.885013580322</ele>
        <time>2019-05-07T21:28:39.850Z</time>
      </trkpt>
      <trkpt lat="50.21578" lon="1.81607">
        <ele>54.032775878906</ele>
        <time>2019-05-07T21:28:43.713Z</time>
      </trkpt>
      <trkpt lat="50.21588" lon="1.81642">
        <ele>55.218952178955</ele>
        <time>2019-05-07T21:28:47.581Z</time>
      </trkpt>
      <trkpt lat="50.21594" lon="1.81661">
        <ele>55.911552429199</ele>
        <time>2019-05-07T21:28:51.452Z</time>
      </trkpt>
      <trkpt lat="50.21601" lon="1.81685">
        <ele>56.738101959229</ele>
        <time>2019-05-07T21:28:55.326Z</time>
      </trkpt>
      <trkpt lat="50.21605" lon="1.81699">
        <ele>57.185321807861</ele>
        <time>2019-05-07T21:28:59.202Z</time>
      </trkpt>
      <trkpt lat="50.21607" lon="1.81713">
        <ele>57.62228012085</ele>
        <time>2019-05-07T21:29:03.080Z</time>
      </trkpt>
      <trkpt lat="50.21617" lon="1.8175">
        <ele>59.117702484131</ele>
        <time>2019-05-07T21:29:06.963Z</time>
      </trkpt>
      <trkpt lat="50.21626" lon="1.8178">
        <ele>60.445274353027</ele>
        <time>2019-05-07T21:29:10.850Z</time>
      </trkpt>
      <trkpt lat="50.2163" lon="1.81797">
        <ele>61.095378875732</ele>
        <time>2019-05-07T21:29:14.739Z</time>
      </trkpt>
      <trkpt lat="50.21633" lon="1.81811">
        <ele>61.553760528564</ele>
        <time>2019-05-07T21:29:18.630Z</time>
      </trkpt>
      <trkpt lat="50.21639" lon="1.81831">
        <ele>62.085231781006</ele>
        <time>2019-05-07T21:29:22.524Z</time>
      </trkpt>
      <trkpt lat="50.21646" lon="1.81851">
        <ele>62.47452545166</ele>
        <time>2019-05-07T21:29:26.421Z</time>
      </trkpt>
      <trkpt lat="50.21657" lon="1.81878">
        <ele>63.015369415283</ele>
        <time>2019-05-07T21:29:30.322Z</time>
      </trkpt>
      <trkpt lat="50.2166" lon="1.81896">
        <ele>63.404758453369</ele>
        <time>2019-05-07T21:29:34.226Z</time>
      </trkpt>
      <trkpt lat="50.21666" lon="1.8192">
        <ele>64.078903198242</ele>
        <time>2019-05-07T21:29:38.133Z</time>
      </trkpt>
      <trkpt lat="50.21673" lon="1.81945">
        <ele>64.885543823242</ele>
        <time>2019-05-07T21:29:42.043Z</time>
      </trkpt>
      <trkpt lat="50.21679" lon="1.81961">
        <ele>65.331588745117</ele>
        <time>2019-05-07T21:29:45.956Z</time>
      </trkpt>
      <trkpt lat="50.21683" lon="1.81977">
        <ele>65.708312988281</ele>
        <time>2019-05-07T21:29:49.871Z</time>
      </trkpt>
      <trkpt lat="50.21686" lon="1.81995">
        <ele>66.070671081543</ele>
        <time>2019-05-07T21:29:53.788Z</time>
      </trkpt>
      <trkpt lat="50.21689" lon="1.82012">
        <ele>66.280151367188</ele>
        <time>2019-05-07T21:29:57.708Z</time>
      </trkpt>
      <trkpt lat="50.2169" lon="1.82032">
        <ele>66.524528503418</ele>
        <time>2019-05-07T21:30:01.630Z</time>
      </trkpt>
      <trkpt lat="50.21694" lon="1.82052">
        <ele>66.7568359375</ele>
        <time>2019-05-07T21:30:05.555Z</time>
      </trkpt>
      <trkpt lat="50.21703" lon="1.82081">
        <ele>67.1044921875</ele>
        <time>2019-05-07T21:30:09.484Z</time>
      </trkpt>
      <trkpt lat="50.21708" lon="1.82098">
        <ele>67.308746337891</ele>
        <time>2019-05-07T21:30:13.415Z</time>
      </trkpt>
      <trkpt lat="50.21709" lon="1.82117">
        <ele>67.539741516113</ele>
        <time>2019-05-07T21:30:17.349Z</time>
      </trkpt>
      <trkpt lat="50.21715" lon="1.8215">
        <ele>67.970985412598</ele>
        <time>2019-05-07T21:30:21.287Z</time>
      </trkpt>
      <trkpt lat="50.2172" lon="1.82169">
        <ele>68.096557617188</ele>
        <time>2019-05-07T21:30:25.228Z</time>
      </trkpt>
      <trkpt lat="50.21729" lon="1.82197">
        <ele>68.206573486328</ele>
        <time>2019-05-07T21:30:29.173Z</time>
      </trkpt>
      <trkpt lat="50.21735" lon="1.82207">
        <ele>68.276069641113</ele>
        <time>2019-05-07T21:30:33.120Z</time>
      </trkpt>
      <trkpt lat="50.21743" lon="1.82223">
        <ele>68.369697570801</ele>
        <time>2019-05-07T21:30:37.069Z</time>
      </trkpt>
      <trkpt lat="50.21747" lon="1.8225">
        <ele>68.416763305664</ele>
        <time>2019-05-07T21:30:41.022Z</time>
      </trkpt>
      <trkpt lat="50.2175" lon="1.8227">
        <ele>68.450553894043</ele>
        <time>2019-05-07T21:30:44.977Z</time>
      </trkpt>
      <trkpt lat="50.21757" lon="1.82282">
        <ele>68.543472290039</ele>
        <time>2019-05-07T21:30:48.935Z</time>
      </trkpt>
      <trkpt lat="50.21762" lon="1.82299">
        <ele>68.487808227539</ele>
        <time>2019-05-07T21:30:52.895Z</time>
      </trkpt>
      <trkpt lat="50.21768" lon="1.82313">
        <ele>68.449897766113</ele>
        <time>2019-05-07T21:30:56.857Z</time>
      </trkpt>
      <trkpt lat="50.21783" lon="1.8235">
        <ele>68.709045410156</ele>
        <time>2019-05-07T21:31:00.825Z</time>
      </trkpt>
      <trkpt lat="50.2179" lon="1.82375">
        <ele>68.880615234375</ele>
        <time>2019-05-07T21:31:04.796Z</time>
      </trkpt>
      <trkpt lat="50.21791" lon="1.82397">
        <ele>68.900321960449</ele>
        <time>2019-05-07T21:31:08.770Z</time>
      </trkpt>
      <trkpt lat="50.21802" lon="1.82421">
        <ele>68.731521606445</ele>
        <time>2019-05-07T21:31:12.748Z</time>
      </trkpt>
      <trkpt lat="50.218" lon="1.82438">
        <ele>68.553619384766</ele>
        <time>2019-05-07T21:31:16.728Z</time>
      </trkpt>
      <trkpt lat="50.21801" lon="1.82459">
        <ele>68.283905029297</ele>
        <time>2019-05-07T21:31:20.711Z</time>
      </trkpt>
      <trkpt lat="50.21809" lon="1.82483">
        <ele>67.903663635254</ele>
        <time>2019-05-07T21:31:24.697Z</time>
      </trkpt>
      <trkpt lat="50.21815" lon="1.82508">
        <ele>67.763023376465</ele>
        <time>2019-05-07T21:31:28.687Z</time>
      </trkpt>
      <trkpt lat="50.21818" lon="1.82522">
        <ele>67.849517822266</ele>
        <time>2019-05-07T21:31:32.678Z</time>
      </trkpt>
      <trkpt lat="50.21825" lon="1.82541">
        <ele>67.925247192383</ele>
        <time>2019-05-07T21:31:36.672Z</time>
      </trkpt>
      <trkpt lat="50.21831" lon="1.82564">
        <ele>68.043914794922</ele>
        <time>2019-05-07T21:31:40.670Z</time>
      </trkpt>
      <trkpt lat="50.21833" lon="1.82581">
        <ele>68.201499938965</ele>
        <time>2019-05-07T21:31:44.670Z</time>
      </trkpt>
      <trkpt lat="50.21844" lon="1.826">
        <ele>68.170524597168</ele>
        <time>2019-05-07T21:31:48.673Z</time>
      </trkpt>
      <trkpt lat="50.21861" lon="1.82631">
        <ele>68.127281188965</ele>
        <time>2019-05-07T21:31:52.681Z</time>
      </trkpt>
      <trkpt lat="50.21863" lon="1.82649">
        <ele>68.394920349121</ele>
        <time>2019-05-07T21:31:56.692Z</time>
      </trkpt>
      <trkpt lat="50.21866" lon="1.82669">
        <ele>68.113609313965</ele>
        <time>2019-05-07T21:32:00.705Z</time>
      </trkpt>
      <trkpt lat="50.21873" lon="1.82699">
        <ele>67.17854309082</ele>
        <time>2019-05-07T21:32:04.722Z</time>
      </trkpt>
      <trkpt lat="50.21877" lon="1.82722">
        <ele>66.468246459961</ele>
        <time>2019-05-07T21:32:08.742Z</time>
      </trkpt>
      <trkpt lat="50.21884" lon="1.8275">
        <ele>65.419898986816</ele>
        <time>2019-05-07T21:32:12.766Z</time>
      </trkpt>
      <trkpt lat="50.21895" lon="1.82782">
        <ele>63.963703155518</ele>
        <time>2019-05-07T21:32:16.795Z</time>
      </trkpt>
      <trkpt lat="50.21909" lon="1.82815">
        <ele>62.359375</ele>
        <time>2019-05-07T21:32:20.829Z</time>
      </trkpt>
      <trkpt lat="50.21919" lon="1.82803">
        <ele>62.041988372803</ele>
        <time>2019-05-07T21:32:24.866Z</time>
      </trkpt>
      <trkpt lat="50.21932" lon="1.82778">
        <ele>61.485687255859</ele>
        <time>2019-05-07T21:32:28.907Z</time>
      </trkpt>
      <trkpt lat="50.21943" lon="1.82759">
        <ele>60.560680389404</ele>
        <time>2019-05-07T21:32:32.951Z</time>
      </trkpt>
      <trkpt lat="50.21951" lon="1.82726">
        <ele>60.179332733154</ele>
        <time>2019-05-07T21:32:36.999Z</time>
      </trkpt>
      <trkpt lat="50.21958" lon="1.8271">
        <ele>59.49055480957</ele>
        <time>2019-05-07T21:32:41.050Z</time>
      </trkpt>
      <trkpt lat="50.21971" lon="1.82665">
        <ele>58.794441223145</ele>
        <time>2019-05-07T21:32:45.107Z</time>
      </trkpt>
      <trkpt lat="50.21973" lon="1.82643">
        <ele>59.183708190918</ele>
        <time>2019-05-07T21:32:49.167Z</time>
      </trkpt>
      <trkpt lat="50.21985" lon="1.82616">
        <ele>59.886463165283</ele>
        <time>2019-05-07T21:32:53.231Z</time>
      </trkpt>
      <trkpt lat="50.21993" lon="1.82593">
        <ele>60.745040893555</ele>
        <time>2019-05-07T21:32:57.299Z</time>
      </trkpt>
      <trkpt lat="50.21997" lon="1.82569">
        <ele>62.104751586914</ele>
        <time>2019-05-07T21:33:01.370Z</time>
      </trkpt>
      <trkpt lat="50.21994" lon="1.82543">
        <ele>63.061435699463</ele>
        <time>2019-05-07T21:33:05.444Z</time>
      </trkpt>
      <trkpt lat="50.21999" lon="1.82517">
        <ele>64.166961669922</ele>
        <time>2019-05-07T21:33:09.522Z</time>
      </trkpt>
      <trkpt lat="50.2201" lon="1.82484">
        <ele>66.194679260254</ele>
        <time>2019-05-07T21:33:13.604Z</time>
      </trkpt>
      <trkpt lat="50.22015" lon="1.8245">
        <ele>66.635475158691</ele>
        <time>2019-05-07T21:33:17.691Z</time>
      </trkpt>
      <trkpt lat="50.22023" lon="1.8242">
        <ele>66.734130859375</ele>
        <time>2019-05-07T21:33:21.782Z</time>
      </trkpt>
      <trkpt lat="50.22029" lon="1.824">
        <ele>66.799705505371</ele>
        <time>2019-05-07T21:33:25.876Z</time>
      </trkpt>
      <trkpt lat="50.22032" lon="1.82385">
        <ele>66.837913513184</ele>
        <time>2019-05-07T21:33:29.972Z</time>
      </trkpt>
      <trkpt lat="50.2204" lon="1.82359">
        <ele>66.929534912109</ele>
        <time>2019-05-07T21:33:34.072Z</time>
      </trkpt>
      <trkpt lat="50.22047" lon="1.82341">
        <ele>67.015518188477</ele>
        <time>2019-05-07T21:33:38.174Z</time>
      </trkpt>
      <trkpt lat="50.22051" lon="1.82319">
        <ele>67.10391998291</ele>
        <time>2019-05-07T21:33:42.279Z</time>
      </trkpt>
      <trkpt lat="50.22055" lon="1.82302">
        <ele>67.347793579102</ele>
        <time>2019-05-07T21:33:46.387Z</time>
      </trkpt>
      <trkpt lat="50.22061" lon="1.82279">
        <ele>67.697463989258</ele>
        <time>2019-05-07T21:33:50.498Z</time>
      </trkpt>
      <trkpt lat="50.22068" lon="1.82245">
        <ele>68.20401763916</ele>
        <time>2019-05-07T21:33:54.613Z</time>
      </trkpt>
      <trkpt lat="50.22074" lon="1.82222">
        <ele>68.536285400391</ele>
        <time>2019-05-07T21:33:58.732Z</time>
      </trkpt>
      <trkpt lat="50.2208" lon="1.82204">
        <ele>68.826316833496</ele>
        <time>2019-05-07T21:34:02.853Z</time>
      </trkpt>
      <trkpt lat="50.22079" lon="1.82184">
        <ele>69</ele>
        <time>2019-05-07T21:34:06.977Z</time>
      </trkpt>
      <trkpt lat="50.22083" lon="1.82162">
        <ele>69</ele>
        <time>2019-05-07T21:34:11.104Z</time>
      </trkpt>
      <trkpt lat="50.22086" lon="1.82146">
        <ele>69</ele>
        <time>2019-05-07T21:34:15.233Z</time>
      </trkpt>
      <trkpt lat="50.22087" lon="1.82128">
        <ele>69</ele>
        <time>2019-05-07T21:34:19.364Z</time>
      </trkpt>
      <trkpt lat="50.22092" lon="1.82109">
        <ele>68.773277282715</ele>
        <time>2019-05-07T21:34:23.498Z</time>
      </trkpt>
      <trkpt lat="50.22101" lon="1.82088">
        <ele>68.041358947754</ele>
        <time>2019-05-07T21:34:27.635Z</time>
      </trkpt>
      <trkpt lat="50.22105" lon="1.82072">
        <ele>67.571296691895</ele>
        <time>2019-05-07T21:34:31.774Z</time>
      </trkpt>
      <trkpt lat="50.22117" lon="1.8204">
        <ele>67.05534362793</ele>
        <time>2019-05-07T21:34:35.918Z</time>
      </trkpt>
      <trkpt lat="50.2212" lon="1.82019">
        <ele>66.670974731445</ele>
        <time>2019-05-07T21:34:40.065Z</time>
      </trkpt>
      <trkpt lat="50.22126" lon="1.81997">
        <ele>66.20093536377</ele>
        <time>2019-05-07T21:34:44.215Z</time>
      </trkpt>
      <trkpt lat="50.22134" lon="1.81956">
        <ele>64.442337036133</ele>
        <time>2019-05-07T21:34:48.370Z</time>
      </trkpt>
      <trkpt lat="50.22142" lon="1.81925">
        <ele>62.922985076904</ele>
        <time>2019-05-07T21:34:52.530Z</time>
      </trkpt>
      <trkpt lat="50.22151" lon="1.81897">
        <ele>61.435005187988</ele>
        <time>2019-05-07T21:34:56.694Z</time>
      </trkpt>
      <trkpt lat="50.22154" lon="1.8188">
        <ele>60.774688720703</ele>
        <time>2019-05-07T21:35:00.860Z</time>
      </trkpt>
      <trkpt lat="50.22159" lon="1.81857">
        <ele>59.889808654785</ele>
        <time>2019-05-07T21:35:05.029Z</time>
      </trkpt>
      <trkpt lat="50.22167" lon="1.81834">
        <ele>58.662055969238</ele>
        <time>2019-05-07T21:35:09.201Z</time>
      </trkpt>
      <trkpt lat="50.22173" lon="1.81809">
        <ele>57.609897613525</ele>
        <time>2019-05-07T21:35:13.377Z</time>
      </trkpt>
      <trkpt lat="50.2217" lon="1.81795">
        <ele>57.348827362061</ele>
        <time>2019-05-07T21:35:17.555Z</time>
      </trkpt>
      <trkpt lat="50.22179" lon="1.81764">
        <ele>57</ele>
        <time>2019-05-07T21:35:21.737Z</time>
      </trkpt>
      <trkpt lat="50.22185" lon="1.81743">
        <ele>57</ele>
        <time>2019-05-07T21:35:25.922Z</time>
      </trkpt>
      <trkpt lat="50.2219" lon="1.81721">
        <ele>56.791213989258</ele>
        <time>2019-05-07T21:35:30.110Z</time>
      </trkpt>
      <trkpt lat="50.22196" lon="1.81693">
        <ele>56.807201385498</ele>
        <time>2019-05-07T21:35:34.302Z</time>
      </trkpt>
      <trkpt lat="50.22206" lon="1.81668">
        <ele>56.928684234619</ele>
        <time>2019-05-07T21:35:38.498Z</time>
      </trkpt>
      <trkpt lat="50.22214" lon="1.8164">
        <ele>56.662307739258</ele>
        <time>2019-05-07T21:35:42.697Z</time>
      </trkpt>
      <trkpt lat="50.22216" lon="1.81625">
        <ele>56.317367553711</ele>
        <time>2019-05-07T21:35:46.898Z</time>
      </trkpt>
      <trkpt lat="50.22223" lon="1.81597">
        <ele>55.739315032959</ele>
        <time>2019-05-07T21:35:51.103Z</time>
      </trkpt>
      <trkpt lat="50.22235" lon="1.81564">
        <ele>55.173294067383</ele>
        <time>2019-05-07T21:35:55.313Z</time>
      </trkpt>
      <trkpt lat="50.22241" lon="1.8153">
        <ele>54.846755981445</ele>
        <time>2019-05-07T21:35:59.528Z</time>
      </trkpt>
      <trkpt lat="50.2225" lon="1.81497">
        <ele>54.555416107178</ele>
        <time>2019-05-07T21:36:03.747Z</time>
      </trkpt>
      <trkpt lat="50.22258" lon="1.81474">
        <ele>54.372589111328</ele>
        <time>2019-05-07T21:36:07.970Z</time>
      </trkpt>
      <trkpt lat="50.22261" lon="1.8146">
        <ele>54.244567871094</ele>
        <time>2019-05-07T21:36:12.194Z</time>
      </trkpt>
      <trkpt lat="50.22264" lon="1.81416">
        <ele>54.234924316406</ele>
        <time>2019-05-07T21:36:16.424Z</time>
      </trkpt>
      <trkpt lat="50.22274" lon="1.81387">
        <ele>54.480709075928</ele>
        <time>2019-05-07T21:36:20.659Z</time>
      </trkpt>
      <trkpt lat="50.22283" lon="1.81374">
        <ele>54.69229888916</ele>
        <time>2019-05-07T21:36:24.896Z</time>
      </trkpt>
      <trkpt lat="50.22307" lon="1.81378">
        <ele>55.697509765625</ele>
        <time>2019-05-07T21:36:29.138Z</time>
      </trkpt>
      <trkpt lat="50.22321" lon="1.81373">
        <ele>56.550811767578</ele>
        <time>2019-05-07T21:36:33.383Z</time>
      </trkpt>
      <trkpt lat="50.22331" lon="1.81355">
        <ele>57.183856964111</ele>
        <time>2019-05-07T21:36:37.631Z</time>
      </trkpt>
      <trkpt lat="50.22337" lon="1.81331">
        <ele>59.028942108154</ele>
        <time>2019-05-07T21:36:41.882Z</time>
      </trkpt>
      <trkpt lat="50.22339" lon="1.81317">
        <ele>59.737770080566</ele>
        <time>2019-05-07T21:36:46.135Z</time>
      </trkpt>
      <trkpt lat="50.22339" lon="1.81297">
        <ele>60.057971954346</ele>
        <time>2019-05-07T21:36:50.391Z</time>
      </trkpt>
      <trkpt lat="50.22339" lon="1.8128">
        <ele>60.242610931396</ele>
        <time>2019-05-07T21:36:54.649Z</time>
      </trkpt>
      <trkpt lat="50.22351" lon="1.81235">
        <ele>62.74662399292</ele>
        <time>2019-05-07T21:36:58.913Z</time>
      </trkpt>
      <trkpt lat="50.22354" lon="1.81208">
        <ele>63.344989776611</ele>
        <time>2019-05-07T21:37:03.180Z</time>
      </trkpt>
      <trkpt lat="50.22354" lon="1.81174">
        <ele>63.850135803223</ele>
        <time>2019-05-07T21:37:07.452Z</time>
      </trkpt>
      <trkpt lat="50.2236" lon="1.81141">
        <ele>64.37866973877</ele>
        <time>2019-05-07T21:37:11.728Z</time>
      </trkpt>
      <trkpt lat="50.22362" lon="1.81127">
        <ele>64.303047180176</ele>
        <time>2019-05-07T21:37:16.006Z</time>
      </trkpt>
      <trkpt lat="50.22365" lon="1.81099">
        <ele>64.052635192871</ele>
        <time>2019-05-07T21:37:20.288Z</time>
      </trkpt>
      <trkpt lat="50.2237" lon="1.81068">
        <ele>63.880310058594</ele>
        <time>2019-05-07T21:37:24.574Z</time>
      </trkpt>
      <trkpt lat="50.22374" lon="1.81039">
        <ele>63.702419281006</ele>
        <time>2019-05-07T21:37:28.864Z</time>
      </trkpt>
      <trkpt lat="50.2238" lon="1.81001">
        <ele>63.314476013184</ele>
        <time>2019-05-07T21:37:33.159Z</time>
      </trkpt>
      <trkpt lat="50.22383" lon="1.80951">
        <ele>61.355899810791</ele>
        <time>2019-05-07T21:37:37.460Z</time>
      </trkpt>
      <trkpt lat="50.22386" lon="1.80915">
        <ele>59.693946838379</ele>
        <time>2019-05-07T21:37:41.766Z</time>
      </trkpt>
      <trkpt lat="50.22391" lon="1.80892">
        <ele>58.365634918213</ele>
        <time>2019-05-07T21:37:46.075Z</time>
      </trkpt>
      <trkpt lat="50.22403" lon="1.80874">
        <ele>57.512432098389</ele>
        <time>2019-05-07T21:37:50.387Z</time>
      </trkpt>
      <trkpt lat="50.22413" lon="1.80875">
        <ele>57.530532836914</ele>
        <time>2019-05-07T21:37:54.701Z</time>
      </trkpt>
      <trkpt lat="50.22424" lon="1.80874">
        <ele>57.522888183594</ele>
        <time>2019-05-07T21:37:59.017Z</time>
      </trkpt>
      <trkpt lat="50.22443" lon="1.80872">
        <ele>56.908008575439</ele>
        <time>2019-05-07T21:38:03.337Z</time>
      </trkpt>
      <trkpt lat="50.22486" lon="1.80872">
        <ele>55.384433746338</ele>
        <time>2019-05-07T21:38:07.666Z</time>
      </trkpt>
      <trkpt lat="50.22497" lon="1.80872">
        <ele>54.93741607666</ele>
        <time>2019-05-07T21:38:11.997Z</time>
      </trkpt>
      <trkpt lat="50.22507" lon="1.80874">
        <ele>54.722709655762</ele>
        <time>2019-05-07T21:38:16.330Z</time>
      </trkpt>
      <trkpt lat="50.2252" lon="1.80878">
        <ele>54.709136962891</ele>
        <time>2019-05-07T21:38:20.666Z</time>
      </trkpt>
      <trkpt lat="50.22536" lon="1.8088">
        <ele>54.803268432617</ele>
        <time>2019-05-07T21:38:25.005Z</time>
      </trkpt>
      <trkpt lat="50.22545" lon="1.80883">
        <ele>54.932796478271</ele>
        <time>2019-05-07T21:38:29.346Z</time>
      </trkpt>
      <trkpt lat="50.22558" lon="1.80882">
        <ele>55.30952835083</ele>
        <time>2019-05-07T21:38:33.689Z</time>
      </trkpt>
      <trkpt lat="50.22561" lon="1.80868">
        <ele>54.803073883057</ele>
        <time>2019-05-07T21:38:38.034Z</time>
      </trkpt>
      <trkpt lat="50.2257" lon="1.80843">
        <ele>54.032360076904</ele>
        <time>2019-05-07T21:38:42.383Z</time>
      </trkpt>
      <trkpt lat="50.22577" lon="1.80829">
        <ele>54.65255355835</ele>
        <time>2019-05-07T21:38:46.734Z</time>
      </trkpt>
      <trkpt lat="50.22582" lon="1.80811">
        <ele>54.967296600342</ele>
        <time>2019-05-07T21:38:51.088Z</time>
      </trkpt>
      <trkpt lat="50.22587" lon="1.80788">
        <ele>55.117340087891</ele>
        <time>2019-05-07T21:38:55.445Z</time>
      </trkpt>
      <trkpt lat="50.22596" lon="1.80744">
        <ele>55.340698242188</ele>
        <time>2019-05-07T21:38:59.808Z</time>
      </trkpt>
      <trkpt lat="50.226" lon="1.80723">
        <ele>55.395004272461</ele>
        <time>2019-05-07T21:39:04.174Z</time>
      </trkpt>
      <trkpt lat="50.22603" lon="1.80702">
        <ele>55.546443939209</ele>
        <time>2019-05-07T21:39:08.542Z</time>
      </trkpt>
      <trkpt lat="50.22607" lon="1.80681">
        <ele>55.877910614014</ele>
        <time>2019-05-07T21:39:12.913Z</time>
      </trkpt>
      <trkpt lat="50.22615" lon="1.80623">
        <ele>55.535427093506</ele>
        <time>2019-05-07T21:39:17.292Z</time>
      </trkpt>
      <trkpt lat="50.22621" lon="1.80587">
        <ele>54.751914978027</ele>
        <time>2019-05-07T21:39:21.676Z</time>
      </trkpt>
      <trkpt lat="50.22626" lon="1.80548">
        <ele>53.947254180908</ele>
        <time>2019-05-07T21:39:26.065Z</time>
      </trkpt>
      <trkpt lat="50.22629" lon="1.80526">
        <ele>53.335208892822</ele>
        <time>2019-05-07T21:39:30.457Z</time>
      </trkpt>
      <trkpt lat="50.22631" lon="1.80494">
        <ele>52.280174255371</ele>
        <time>2019-05-07T21:39:34.853Z</time>
      </trkpt>
      <trkpt lat="50.22635" lon="1.80455">
        <ele>51.031814575195</ele>
        <time>2019-05-07T21:39:39.254Z</time>
      </trkpt>
      <trkpt lat="50.22637" lon="1.80437">
        <ele>50.475784301758</ele>
        <time>2019-05-07T21:39:43.657Z</time>
      </trkpt>
      <trkpt lat="50.22638" lon="1.80419">
        <ele>49.834980010986</ele>
        <time>2019-05-07T21:39:48.062Z</time>
      </trkpt>
      <trkpt lat="50.22638" lon="1.80398">
        <ele>49.066555023193</ele>
        <time>2019-05-07T21:39:52.470Z</time>
      </trkpt>
      <trkpt lat="50.22639" lon="1.80377">
        <ele>48.358768463135</ele>
        <time>2019-05-07T21:39:56.881Z</time>
      </trkpt>
      <trkpt lat="50.22644" lon="1.80325">
        <ele>46.798217773438</ele>
        <time>2019-05-07T21:40:01.299Z</time>
      </trkpt>
      <trkpt lat="50.2265" lon="1.80254">
        <ele>48.816711425781</ele>
        <time>2019-05-07T21:40:05.726Z</time>
      </trkpt>
      <trkpt lat="50.22654" lon="1.8022">
        <ele>50.045234680176</ele>
        <time>2019-05-07T21:40:10.157Z</time>
      </trkpt>
      <trkpt lat="50.22658" lon="1.80176">
        <ele>51.024429321289</ele>
        <time>2019-05-07T21:40:14.594Z</time>
      </trkpt>
      <trkpt lat="50.2266" lon="1.80155">
        <ele>51.945011138916</ele>
        <time>2019-05-07T21:40:19.034Z</time>
      </trkpt>
      <trkpt lat="50.22659" lon="1.80129">
        <ele>52.516971588135</ele>
        <time>2019-05-07T21:40:23.477Z</time>
      </trkpt>
      <trkpt lat="50.22656" lon="1.80104">
        <ele>52.886650085449</ele>
        <time>2019-05-07T21:40:27.923Z</time>
      </trkpt>
      <trkpt lat="50.22661" lon="1.80077">
        <ele>53.917053222656</ele>
        <time>2019-05-07T21:40:32.373Z</time>
      </trkpt>
      <trkpt lat="50.22662" lon="1.80062">
        <ele>54.337532043457</ele>
        <time>2019-05-07T21:40:36.825Z</time>
      </trkpt>
      <trkpt lat="50.2266" lon="1.80041">
        <ele>54.386909484863</ele>
        <time>2019-05-07T21:40:41.279Z</time>
      </trkpt>
      <trkpt lat="50.22662" lon="1.80019">
        <ele>54.794803619385</ele>
        <time>2019-05-07T21:40:45.736Z</time>
      </trkpt>
      <trkpt lat="50.22661" lon="1.79995">
        <ele>54.968181610107</ele>
        <time>2019-05-07T21:40:50.196Z</time>
      </trkpt>
      <trkpt lat="50.22665" lon="1.79973">
        <ele>55.329280853271</ele>
        <time>2019-05-07T21:40:54.659Z</time>
      </trkpt>
      <trkpt lat="50.22667" lon="1.79949">
        <ele>55.185367584229</ele>
        <time>2019-05-07T21:40:59.126Z</time>
      </trkpt>
      <trkpt lat="50.22669" lon="1.79931">
        <ele>55.555709838867</ele>
        <time>2019-05-07T21:41:03.595Z</time>
      </trkpt>
      <trkpt lat="50.22676" lon="1.79909">
        <ele>56.586814880371</ele>
        <time>2019-05-07T21:41:08.067Z</time>
      </trkpt>
      <trkpt lat="50.22678" lon="1.79889">
        <ele>56.667175292969</ele>
        <time>2019-05-07T21:41:12.542Z</time>
      </trkpt>
      <trkpt lat="50.22677" lon="1.79844">
        <ele>56.728935241699</ele>
        <time>2019-05-07T21:41:17.022Z</time>
      </trkpt>
      <trkpt lat="50.22681" lon="1.79825">
        <ele>57.530345916748</ele>
        <time>2019-05-07T21:41:21.505Z</time>
      </trkpt>
      <trkpt lat="50.22681" lon="1.79803">
        <ele>57.58145904541</ele>
        <time>2019-05-07T21:41:25.991Z</time>
      </trkpt>
      <trkpt lat="50.22685" lon="1.79784">
        <ele>57.899375915527</ele>
        <time>2019-05-07T21:41:30.479Z</time>
      </trkpt>
      <trkpt lat="50.22685" lon="1.79746">
        <ele>56.875011444092</ele>
        <time>2019-05-07T21:41:34.972Z</time>
      </trkpt>
      <trkpt lat="50.22687" lon="1.79725">
        <ele>57.008769989014</ele>
        <time>2019-05-07T21:41:39.468Z</time>
      </trkpt>
      <trkpt lat="50.22686" lon="1.79695">
        <ele>56.696952819824</ele>
        <time>2019-05-07T21:41:43.968Z</time>
      </trkpt>
      <trkpt lat="50.2269" lon="1.79656">
        <ele>56.650588989258</ele>
        <time>2019-05-07T21:41:48.473Z</time>
      </trkpt>
      <trkpt lat="50.22695" lon="1.7963">
        <ele>56.210346221924</ele>
        <time>2019-05-07T21:41:52.981Z</time>
      </trkpt>
      <trkpt lat="50.22703" lon="1.79565">
        <ele>54.818675994873</ele>
        <time>2019-05-07T21:41:57.498Z</time>
      </trkpt>
      <trkpt lat="50.22709" lon="1.79529">
        <ele>54.640571594238</ele>
        <time>2019-05-07T21:42:02.020Z</time>
      </trkpt>
      <trkpt lat="50.22712" lon="1.79493">
        <ele>54.10710144043</ele>
        <time>2019-05-07T21:42:06.546Z</time>
      </trkpt>
      <trkpt lat="50.22717" lon="1.79468">
        <ele>54.074226379395</ele>
        <time>2019-05-07T21:42:11.076Z</time>
      </trkpt>
      <trkpt lat="50.22714" lon="1.79443">
        <ele>54.491474151611</ele>
        <time>2019-05-07T21:42:15.609Z</time>
      </trkpt>
      <trkpt lat="50.22715" lon="1.79405">
        <ele>54.963088989258</ele>
        <time>2019-05-07T21:42:20.147Z</time>
      </trkpt>
      <trkpt lat="50.2272" lon="1.79369">
        <ele>54.908824920654</ele>
        <time>2019-05-07T21:42:24.690Z</time>
      </trkpt>
      <trkpt lat="50.22723" lon="1.79345">
        <ele>54.864475250244</ele>
        <time>2019-05-07T21:42:29.236Z</time>
      </trkpt>
      <trkpt lat="50.22721" lon="1.79314">
        <ele>54.926162719727</ele>
        <time>2019-05-07T21:42:33.786Z</time>
      </trkpt>
      <trkpt lat="50.22722" lon="1.79297">
        <ele>54.344287872314</ele>
        <time>2019-05-07T21:42:38.338Z</time>
      </trkpt>
      <trkpt lat="50.22732" lon="1.79262">
        <ele>53.326858520508</ele>
        <time>2019-05-07T21:42:42.895Z</time>
      </trkpt>
      <trkpt lat="50.22736" lon="1.7924">
        <ele>52.88903427124</ele>
        <time>2019-05-07T21:42:47.455Z</time>
      </trkpt>
      <trkpt lat="50.22741" lon="1.79213">
        <ele>52.143558502197</ele>
        <time>2019-05-07T21:42:52.018Z</time>
      </trkpt>
      <trkpt lat="50.22746" lon="1.79191">
        <ele>51.515422821045</ele>
        <time>2019-05-07T21:42:56.584Z</time>
      </trkpt>
      <trkpt lat="50.2275" lon="1.79165">
        <ele>51.41760635376</ele>
        <time>2019-05-07T21:43:01.154Z</time>
      </trkpt>
      <trkpt lat="50.22757" lon="1.79122">
        <ele>50.891841888428</ele>
        <time>2019-05-07T21:43:05.730Z</time>
      </trkpt>
      <trkpt lat="50.22768" lon="1.79089">
        <ele>50.783531188965</ele>
        <time>2019-05-07T21:43:10.310Z</time>
      </trkpt>
      <trkpt lat="50.22773" lon="1.7907">
        <ele>50.607978820801</ele>
        <time>2019-05-07T21:43:14.893Z</time>
      </trkpt>
      <trkpt lat="50.22778" lon="1.79056">
        <ele>50.786182403564</ele>
        <time>2019-05-07T21:43:19.478Z</time>
      </trkpt>
      <trkpt lat="50.22779" lon="1.7903">
        <ele>50.20096206665</ele>
        <time>2019-05-07T21:43:24.066Z</time>
      </trkpt>
      <trkpt lat="50.22775" lon="1.79012">
        <ele>49.566791534424</ele>
        <time>2019-05-07T21:43:28.657Z</time>
      </trkpt>
      <trkpt lat="50.22775" lon="1.78967">
        <ele>48.502758026123</ele>
        <time>2019-05-07T21:43:33.254Z</time>
      </trkpt>
      <trkpt lat="50.22777" lon="1.78947">
        <ele>48.417377471924</ele>
        <time>2019-05-07T21:43:37.853Z</time>
      </trkpt>
      <trkpt lat="50.22777" lon="1.78903">
        <ele>47.830883026123</ele>
        <time>2019-05-07T21:43:42.458Z</time>
      </trkpt>
      <trkpt lat="50.22779" lon="1.78887">
        <ele>47.588481903076</ele>
        <time>2019-05-07T21:43:47.065Z</time>
      </trkpt>
      <trkpt lat="50.22778" lon="1.78859">
        <ele>47.569477081299</ele>
        <time>2019-05-07T21:43:51.676Z</time>
      </trkpt>
      <trkpt lat="50.22779" lon="1.78845">
        <ele>47.637760162354</ele>
        <time>2019-05-07T21:43:56.288Z</time>
      </trkpt>
      <trkpt lat="50.22779" lon="1.7883">
        <ele>47.618755340576</ele>
        <time>2019-05-07T21:44:00.902Z</time>
      </trkpt>
      <trkpt lat="50.22783" lon="1.78812">
        <ele>47.862503051758</ele>
        <time>2019-05-07T21:44:05.519Z</time>
      </trkpt>
      <trkpt lat="50.2279" lon="1.78782">
        <ele>47.231227874756</ele>
        <time>2019-05-07T21:44:10.140Z</time>
      </trkpt>
      <trkpt lat="50.228" lon="1.78751">
        <ele>46.446964263916</ele>
        <time>2019-05-07T21:44:14.765Z</time>
      </trkpt>
      <trkpt lat="50.22834" lon="1.78732">
        <ele>46.298770904541</ele>
        <time>2019-05-07T21:44:19.397Z</time>
      </trkpt>
      <trkpt lat="50.22854" lon="1.78706">
        <ele>46.025199890137</ele>
        <time>2019-05-07T21:44:24.035Z</time>
      </trkpt>
      <trkpt lat="50.22864" lon="1.78702">
        <ele>46.222007751465</ele>
        <time>2019-05-07T21:44:28.675Z</time>
      </trkpt>
      <trkpt lat="50.22877" lon="1.78694">
        <ele>46.421230316162</ele>
        <time>2019-05-07T21:44:33.318Z</time>
      </trkpt>
      <trkpt lat="50.22887" lon="1.78687">
        <ele>46.283496856689</ele>
        <time>2019-05-07T21:44:37.963Z</time>
      </trkpt>
      <trkpt lat="50.22906" lon="1.78681">
        <ele>45.984516143799</ele>
        <time>2019-05-07T21:44:42.612Z</time>
      </trkpt>
      <trkpt lat="50.22921" lon="1.78674">
        <ele>45.719020843506</ele>
        <time>2019-05-07T21:44:47.264Z</time>
      </trkpt>
      <trkpt lat="50.22932" lon="1.78665">
        <ele>45.483493804932</ele>
        <time>2019-05-07T21:44:51.918Z</time>
      </trkpt>
      <trkpt lat="50.22939" lon="1.78655">
        <ele>45.259334564209</ele>
        <time>2019-05-07T21:44:56.574Z</time>
      </trkpt>
      <trkpt lat="50.22949" lon="1.78647">
        <ele>44.576591491699</ele>
        <time>2019-05-07T21:45:01.232Z</time>
      </trkpt>
      <trkpt lat="50.22963" lon="1.78646">
        <ele>44.492641448975</ele>
        <time>2019-05-07T21:45:05.893Z</time>
      </trkpt>
      <trkpt lat="50.22981" lon="1.7864">
        <ele>44.586772918701</ele>
        <time>2019-05-07T21:45:10.558Z</time>
      </trkpt>
      <trkpt lat="50.22996" lon="1.78631">
        <ele>44.40022277832</ele>
        <time>2019-05-07T21:45:15.226Z</time>
      </trkpt>
      <trkpt lat="50.23007" lon="1.78622">
        <ele>44.132816314697</ele>
        <time>2019-05-07T21:45:19.897Z</time>
      </trkpt>
      <trkpt lat="50.23016" lon="1.78612">
        <ele>43.57381439209</ele>
        <time>2019-05-07T21:45:24.570Z</time>
      </trkpt>
      <trkpt lat="50.23031" lon="1.78602">
        <ele>43.045440673828</ele>
        <time>2019-05-07T21:45:29.246Z</time>
      </trkpt>
      <trkpt lat="50.23044" lon="1.78595">
        <ele>42.699691772461</ele>
        <time>2019-05-07T21:45:33.925Z</time>
      </trkpt>
      <trkpt lat="50.23057" lon="1.78592">
        <ele>42.874328613281</ele>
        <time>2019-05-07T21:45:38.607Z</time>
      </trkpt>
      <trkpt lat="50.23067" lon="1.78592">
        <ele>43.258392333984</ele>
        <time>2019-05-07T21:45:43.291Z</time>
      </trkpt>
      <trkpt lat="50.23083" lon="1.78595">
        <ele>44.044918060303</ele>
        <time>2019-05-07T21:45:47.978Z</time>
      </trkpt>
      <trkpt lat="50.231" lon="1.78599">
        <ele>44.914714813232</ele>
        <time>2019-05-07T21:45:52.668Z</time>
      </trkpt>
      <trkpt lat="50.23109" lon="1.78603">
        <ele>45.545566558838</ele>
        <time>2019-05-07T21:45:57.360Z</time>
      </trkpt>
      <trkpt lat="50.23122" lon="1.78608">
        <ele>46.366786956787</ele>
        <time>2019-05-07T21:46:02.055Z</time>
      </trkpt>
      <trkpt lat="50.23132" lon="1.78616">
        <ele>47.215957641602</ele>
        <time>2019-05-07T21:46:06.752Z</time>
      </trkpt>
      <trkpt lat="50.23148" lon="1.78624">
        <ele>47.989311218262</ele>
        <time>2019-05-07T21:46:11.452Z</time>
      </trkpt>
      <trkpt lat="50.23167" lon="1.78631">
        <ele>48.75170135498</ele>
        <time>2019-05-07T21:46:16.156Z</time>
      </trkpt>
      <trkpt lat="50.23178" lon="1.78637">
        <ele>49.308738708496</ele>
        <time>2019-05-07T21:46:20.863Z</time>
      </trkpt>
      <trkpt lat="50.23189" lon="1.78646">
        <ele>50.102607727051</ele>
        <time>2019-05-07T21:46:25.572Z</time>
      </trkpt>
      <trkpt lat="50.23205" lon="1.78658">
        <ele>50.993236541748</ele>
        <time>2019-05-07T21:46:30.285Z</time>
      </trkpt>
      <trkpt lat="50.23228" lon="1.78672">
        <ele>51.604679107666</ele>
        <time>2019-05-07T21:46:35.003Z</time>
      </trkpt>
      <trkpt lat="50.23248" lon="1.78685">
        <ele>52.164932250977</ele>
        <time>2019-05-07T21:46:39.725Z</time>
      </trkpt>
      <trkpt lat="50.23261" lon="1.78697">
        <ele>52.592136383057</ele>
        <time>2019-05-07T21:46:44.450Z</time>
      </trkpt>
      <trkpt lat="50.23268" lon="1.78707">
        <ele>52.932956695557</ele>
        <time>2019-05-07T21:46:49.177Z</time>
      </trkpt>
      <trkpt lat="50.23289" lon="1.78716">
        <ele>53.379570007324</ele>
        <time>2019-05-07T21:46:53.908Z</time>
      </trkpt>
      <trkpt lat="50.23298" lon="1.7872">
        <ele>53.60343170166</ele>
        <time>2019-05-07T21:46:58.641Z</time>
      </trkpt>
      <trkpt lat="50.23307" lon="1.78727">
        <ele>53.875057220459</ele>
        <time>2019-05-07T21:47:03.376Z</time>
      </trkpt>
      <trkpt lat="50.23324" lon="1.78742">
        <ele>54.467041015625</ele>
        <time>2019-05-07T21:47:08.115Z</time>
      </trkpt>
      <trkpt lat="50.23338" lon="1.78761">
        <ele>55.336837768555</ele>
        <time>2019-05-07T21:47:12.858Z</time>
      </trkpt>
      <trkpt lat="50.23361" lon="1.78787">
        <ele>56.543628692627</ele>
        <time>2019-05-07T21:47:17.607Z</time>
      </trkpt>
      <trkpt lat="50.23386" lon="1.78802">
        <ele>57.288833618164</ele>
        <time>2019-05-07T21:47:22.361Z</time>
      </trkpt>
      <trkpt lat="50.23399" lon="1.7881">
        <ele>57.58419418335</ele>
        <time>2019-05-07T21:47:27.118Z</time>
      </trkpt>
      <trkpt lat="50.2342" lon="1.78824">
        <ele>58</ele>
        <time>2019-05-07T21:47:31.879Z</time>
      </trkpt>
      <trkpt lat="50.2343" lon="1.78828">
        <ele>58</ele>
        <time>2019-05-07T21:47:36.642Z</time>
      </trkpt>
      <trkpt lat="50.2345" lon="1.78847">
        <ele>58</ele>
        <time>2019-05-07T21:47:41.410Z</time>
      </trkpt>
      <trkpt lat="50.23459" lon="1.78854">
        <ele>58</ele>
        <time>2019-05-07T21:47:46.180Z</time>
      </trkpt>
      <trkpt lat="50.2347" lon="1.78853">
        <ele>57.907958984375</ele>
        <time>2019-05-07T21:47:50.952Z</time>
      </trkpt>
      <trkpt lat="50.23482" lon="1.78847">
        <ele>57.757915496826</ele>
        <time>2019-05-07T21:47:55.727Z</time>
      </trkpt>
      <trkpt lat="50.23495" lon="1.78843">
        <ele>57.603244781494</ele>
        <time>2019-05-07T21:48:00.504Z</time>
      </trkpt>
      <trkpt lat="50.23513" lon="1.78837">
        <ele>57.396781921387</ele>
        <time>2019-05-07T21:48:05.285Z</time>
      </trkpt>
      <trkpt lat="50.23523" lon="1.78823">
        <ele>57.268962860107</ele>
        <time>2019-05-07T21:48:10.069Z</time>
      </trkpt>
      <trkpt lat="50.23535" lon="1.7881">
        <ele>56.571823120117</ele>
        <time>2019-05-07T21:48:14.856Z</time>
      </trkpt>
      <trkpt lat="50.23552" lon="1.78796">
        <ele>56.017555236816</ele>
        <time>2019-05-07T21:48:19.646Z</time>
      </trkpt>
      <trkpt lat="50.23569" lon="1.78787">
        <ele>55.497627258301</ele>
        <time>2019-05-07T21:48:24.440Z</time>
      </trkpt>
      <trkpt lat="50.23587" lon="1.78764">
        <ele>54.248699188232</ele>
        <time>2019-05-07T21:48:29.239Z</time>
      </trkpt>
      <trkpt lat="50.23594" lon="1.78744">
        <ele>53.097415924072</ele>
        <time>2019-05-07T21:48:34.041Z</time>
      </trkpt>
      <trkpt lat="50.23604" lon="1.78722">
        <ele>52.228225708008</ele>
        <time>2019-05-07T21:48:38.846Z</time>
      </trkpt>
      <trkpt lat="50.23609" lon="1.7871">
        <ele>51.695194244385</ele>
        <time>2019-05-07T21:48:43.653Z</time>
      </trkpt>
      <trkpt lat="50.23614" lon="1.78683">
        <ele>50.550853729248</ele>
        <time>2019-05-07T21:48:48.464Z</time>
      </trkpt>
      <trkpt lat="50.23618" lon="1.78658">
        <ele>49.512409210205</ele>
        <time>2019-05-07T21:48:53.278Z</time>
      </trkpt>
      <trkpt lat="50.23617" lon="1.78638">
        <ele>48.406017303467</ele>
        <time>2019-05-07T21:48:58.094Z</time>
      </trkpt>
      <trkpt lat="50.23615" lon="1.78621">
        <ele>47.798095703125</ele>
        <time>2019-05-07T21:49:02.913Z</time>
      </trkpt>
      <trkpt lat="50.23617" lon="1.78602">
        <ele>47.086994171143</ele>
        <time>2019-05-07T21:49:07.734Z</time>
      </trkpt>
      <trkpt lat="50.23613" lon="1.7858">
        <ele>46.297145843506</ele>
        <time>2019-05-07T21:49:12.558Z</time>
      </trkpt>
      <trkpt lat="50.2361" lon="1.78561">
        <ele>45.249927520752</ele>
        <time>2019-05-07T21:49:17.385Z</time>
      </trkpt>
      <trkpt lat="50.23609" lon="1.78525">
        <ele>43.576370239258</ele>
        <time>2019-05-07T21:49:22.216Z</time>
      </trkpt>
      <trkpt lat="50.23608" lon="1.78487">
        <ele>42.233684539795</ele>
        <time>2019-05-07T21:49:27.052Z</time>
      </trkpt>
      <trkpt lat="50.23609" lon="1.78462">
        <ele>42.163436889648</ele>
        <time>2019-05-07T21:49:31.891Z</time>
      </trkpt>
      <trkpt lat="50.23609" lon="1.78438">
        <ele>42.739078521729</ele>
        <time>2019-05-07T21:49:36.733Z</time>
      </trkpt>
      <trkpt lat="50.23607" lon="1.78417">
        <ele>43.119823455811</ele>
        <time>2019-05-07T21:49:41.578Z</time>
      </trkpt>
      <trkpt lat="50.23604" lon="1.78395">
        <ele>43.170375823975</ele>
        <time>2019-05-07T21:49:46.426Z</time>
      </trkpt>
      <trkpt lat="50.23608" lon="1.78381">
        <ele>43.541809082031</ele>
        <time>2019-05-07T21:49:51.276Z</time>
      </trkpt>
      <trkpt lat="50.23613" lon="1.78367">
        <ele>44.091804504395</ele>
        <time>2019-05-07T21:49:56.128Z</time>
      </trkpt>
      <trkpt lat="50.2361" lon="1.78347">
        <ele>44.079135894775</ele>
        <time>2019-05-07T21:50:00.983Z</time>
      </trkpt>
      <trkpt lat="50.23603" lon="1.78326">
        <ele>43.779346466064</ele>
        <time>2019-05-07T21:50:05.841Z</time>
      </trkpt>
      <trkpt lat="50.23601" lon="1.7831">
        <ele>44.10245513916</ele>
        <time>2019-05-07T21:50:10.701Z</time>
      </trkpt>
      <trkpt lat="50.23604" lon="1.78273">
        <ele>45.897232055664</ele>
        <time>2019-05-07T21:50:15.566Z</time>
      </trkpt>
      <trkpt lat="50.236" lon="1.78231">
        <ele>47.396827697754</ele>
        <time>2019-05-07T21:50:20.436Z</time>
      </trkpt>
      <trkpt lat="50.23598" lon="1.78197">
        <ele>48.121204376221</ele>
        <time>2019-05-07T21:50:25.310Z</time>
      </trkpt>
      <trkpt lat="50.23591" lon="1.78158">
        <ele>48.832611083984</ele>
        <time>2019-05-07T21:50:30.190Z</time>
      </trkpt>
      <trkpt lat="50.2359" lon="1.78142">
        <ele>48.891437530518</ele>
        <time>2019-05-07T21:50:35.072Z</time>
      </trkpt>
      <trkpt lat="50.23588" lon="1.78126">
        <ele>48.874240875244</ele>
        <time>2019-05-07T21:50:39.956Z</time>
      </trkpt>
      <trkpt lat="50.23584" lon="1.78108">
        <ele>48.605770111084</ele>
        <time>2019-05-07T21:50:44.842Z</time>
      </trkpt>
      <trkpt lat="50.23575" lon="1.78057">
        <ele>46.560768127441</ele>
        <time>2019-05-07T21:50:49.735Z</time>
      </trkpt>
      <trkpt lat="50.23563" lon="1.78002">
        <ele>46.509838104248</ele>
        <time>2019-05-07T21:50:54.635Z</time>
      </trkpt>
      <trkpt lat="50.23553" lon="1.77956">
        <ele>45.61421585083</ele>
        <time>2019-05-07T21:50:59.542Z</time>
      </trkpt>
      <trkpt lat="50.23546" lon="1.7791">
        <ele>45.067943572998</ele>
        <time>2019-05-07T21:51:04.455Z</time>
      </trkpt>
      <trkpt lat="50.23547" lon="1.77892">
        <ele>44.968521118164</ele>
        <time>2019-05-07T21:51:09.370Z</time>
      </trkpt>
      <trkpt lat="50.23551" lon="1.77849">
        <ele>44.862728118896</ele>
        <time>2019-05-07T21:51:14.291Z</time>
      </trkpt>
      <trkpt lat="50.23552" lon="1.77825">
        <ele>44.758586883545</ele>
        <time>2019-05-07T21:51:19.215Z</time>
      </trkpt>
      <trkpt lat="50.2355" lon="1.77788">
        <ele>43.523937225342</ele>
        <time>2019-05-07T21:51:24.144Z</time>
      </trkpt>
      <trkpt lat="50.23547" lon="1.77746">
        <ele>42.21798324585</ele>
        <time>2019-05-07T21:51:29.078Z</time>
      </trkpt>
      <trkpt lat="50.23556" lon="1.77692">
        <ele>40.07638168335</ele>
        <time>2019-05-07T21:51:34.019Z</time>
      </trkpt>
      <trkpt lat="50.23562" lon="1.77659">
        <ele>39.193840026855</ele>
        <time>2019-05-07T21:51:38.965Z</time>
      </trkpt>
      <trkpt lat="50.23564" lon="1.77624">
        <ele>38.131278991699</ele>
        <time>2019-05-07T21:51:43.915Z</time>
      </trkpt>
      <trkpt lat="50.23564" lon="1.77603">
        <ele>37.375930786133</ele>
        <time>2019-05-07T21:51:48.868Z</time>
      </trkpt>
      <trkpt lat="50.23565" lon="1.77585">
        <ele>36.854000091553</ele>
        <time>2019-05-07T21:51:53.823Z</time>
      </trkpt>
      <trkpt lat="50.23566" lon="1.77569">
        <ele>36.66890335083</ele>
        <time>2019-05-07T21:51:58.780Z</time>
      </trkpt>
      <trkpt lat="50.23568" lon="1.77528">
        <ele>35.751541137695</ele>
        <time>2019-05-07T21:52:03.742Z</time>
      </trkpt>
      <trkpt lat="50.23571" lon="1.77502">
        <ele>35.366306304932</ele>
        <time>2019-05-07T21:52:08.708Z</time>
      </trkpt>
      <trkpt lat="50.2357" lon="1.7748">
        <ele>35.554889678955</ele>
        <time>2019-05-07T21:52:13.677Z</time>
      </trkpt>
      <trkpt lat="50.23579" lon="1.77435">
        <ele>38.064891815186</ele>
        <time>2019-05-07T21:52:18.652Z</time>
      </trkpt>
      <trkpt lat="50.23582" lon="1.77393">
        <ele>39.412906646729</ele>
        <time>2019-05-07T21:52:23.632Z</time>
      </trkpt>
      <trkpt lat="50.23593" lon="1.77339">
        <ele>41.210750579834</ele>
        <time>2019-05-07T21:52:28.619Z</time>
      </trkpt>
      <trkpt lat="50.23602" lon="1.77296">
        <ele>41.619548797607</ele>
        <time>2019-05-07T21:52:33.612Z</time>
      </trkpt>
      <trkpt lat="50.23607" lon="1.7726">
        <ele>41.994964599609</ele>
        <time>2019-05-07T21:52:38.610Z</time>
      </trkpt>
      <trkpt lat="50.23603" lon="1.77236">
        <ele>42.307952880859</ele>
        <time>2019-05-07T21:52:43.611Z</time>
      </trkpt>
      <trkpt lat="50.236" lon="1.77215">
        <ele>42.344257354736</ele>
        <time>2019-05-07T21:52:48.615Z</time>
      </trkpt>
      <trkpt lat="50.23596" lon="1.772">
        <ele>42.390720367432</ele>
        <time>2019-05-07T21:52:53.621Z</time>
      </trkpt>
      <trkpt lat="50.23596" lon="1.77177">
        <ele>42.396755218506</ele>
        <time>2019-05-07T21:52:58.630Z</time>
      </trkpt>
      <trkpt lat="50.236" lon="1.77162">
        <ele>42.353713989258</ele>
        <time>2019-05-07T21:53:03.641Z</time>
      </trkpt>
      <trkpt lat="50.23603" lon="1.77147">
        <ele>42.04024887085</ele>
        <time>2019-05-07T21:53:08.654Z</time>
      </trkpt>
      <trkpt lat="50.23603" lon="1.77102">
        <ele>41.056365966797</ele>
        <time>2019-05-07T21:53:13.673Z</time>
      </trkpt>
      <trkpt lat="50.23605" lon="1.77082">
        <ele>40.834518432617</ele>
        <time>2019-05-07T21:53:18.694Z</time>
      </trkpt>
      <trkpt lat="50.23611" lon="1.77052">
        <ele>40.34162902832</ele>
        <time>2019-05-07T21:53:23.719Z</time>
      </trkpt>
      <trkpt lat="50.23618" lon="1.77041">
        <ele>40.616779327393</ele>
        <time>2019-05-07T21:53:28.747Z</time>
      </trkpt>
      <trkpt lat="50.23632" lon="1.77017">
        <ele>41.164318084717</ele>
        <time>2019-05-07T21:53:33.779Z</time>
      </trkpt>
      <trkpt lat="50.2365" lon="1.76988">
        <ele>42.282958984375</ele>
        <time>2019-05-07T21:53:38.816Z</time>
      </trkpt>
      <trkpt lat="50.2366" lon="1.76948">
        <ele>42.384830474854</ele>
        <time>2019-05-07T21:53:43.858Z</time>
      </trkpt>
      <trkpt lat="50.23665" lon="1.76934">
        <ele>42.346885681152</ele>
        <time>2019-05-07T21:53:48.902Z</time>
      </trkpt>
      <trkpt lat="50.2367" lon="1.76903">
        <ele>41.467510223389</ele>
        <time>2019-05-07T21:53:53.950Z</time>
      </trkpt>
      <trkpt lat="50.23672" lon="1.76884">
        <ele>41.303184509277</ele>
        <time>2019-05-07T21:53:59.001Z</time>
      </trkpt>
      <trkpt lat="50.23685" lon="1.76863">
        <ele>41.188148498535</ele>
        <time>2019-05-07T21:54:04.056Z</time>
      </trkpt>
      <trkpt lat="50.23692" lon="1.76847">
        <ele>40.69457244873</ele>
        <time>2019-05-07T21:54:09.113Z</time>
      </trkpt>
      <trkpt lat="50.23694" lon="1.76819">
        <ele>39.716064453125</ele>
        <time>2019-05-07T21:54:14.174Z</time>
      </trkpt>
      <trkpt lat="50.23697" lon="1.76797">
        <ele>39.071559906006</ele>
        <time>2019-05-07T21:54:19.238Z</time>
      </trkpt>
      <trkpt lat="50.23711" lon="1.76767">
        <ele>38.673114776611</ele>
        <time>2019-05-07T21:54:24.306Z</time>
      </trkpt>
      <trkpt lat="50.2371" lon="1.76733">
        <ele>37.870853424072</ele>
        <time>2019-05-07T21:54:29.379Z</time>
      </trkpt>
      <trkpt lat="50.23709" lon="1.76711">
        <ele>37.543209075928</ele>
        <time>2019-05-07T21:54:34.455Z</time>
      </trkpt>
      <trkpt lat="50.23711" lon="1.76664">
        <ele>37.075172424316</ele>
        <time>2019-05-07T21:54:39.537Z</time>
      </trkpt>
      <trkpt lat="50.23713" lon="1.76648">
        <ele>37.037750244141</ele>
        <time>2019-05-07T21:54:44.621Z</time>
      </trkpt>
      <trkpt lat="50.23716" lon="1.76626">
        <ele>37.190612792969</ele>
        <time>2019-05-07T21:54:49.708Z</time>
      </trkpt>
      <trkpt lat="50.2372" lon="1.76593">
        <ele>37.443031311035</ele>
        <time>2019-05-07T21:54:54.799Z</time>
      </trkpt>
      <trkpt lat="50.23722" lon="1.76546">
        <ele>37.487575531006</ele>
        <time>2019-05-07T21:54:59.896Z</time>
      </trkpt>
      <trkpt lat="50.23728" lon="1.76498">
        <ele>37.770771026611</ele>
        <time>2019-05-07T21:55:04.999Z</time>
      </trkpt>
      <trkpt lat="50.23729" lon="1.7648">
        <ele>37.8893699646</ele>
        <time>2019-05-07T21:55:10.105Z</time>
      </trkpt>
      <trkpt lat="50.23728" lon="1.76462">
        <ele>38.061237335205</ele>
        <time>2019-05-07T21:55:15.213Z</time>
      </trkpt>
      <trkpt lat="50.23729" lon="1.76422">
        <ele>38.577541351318</ele>
        <time>2019-05-07T21:55:20.326Z</time>
      </trkpt>
      <trkpt lat="50.23731" lon="1.76393">
        <ele>38.899894714355</ele>
        <time>2019-05-07T21:55:25.443Z</time>
      </trkpt>
      <trkpt lat="50.23729" lon="1.76361">
        <ele>38.818237304688</ele>
        <time>2019-05-07T21:55:30.564Z</time>
      </trkpt>
      <trkpt lat="50.23729" lon="1.76341">
        <ele>38.787261962891</ele>
        <time>2019-05-07T21:55:35.688Z</time>
      </trkpt>
      <trkpt lat="50.23738" lon="1.76319">
        <ele>39.20964050293</ele>
        <time>2019-05-07T21:55:40.815Z</time>
      </trkpt>
      <trkpt lat="50.23739" lon="1.76305">
        <ele>39.295322418213</ele>
        <time>2019-05-07T21:55:45.944Z</time>
      </trkpt>
      <trkpt lat="50.23741" lon="1.76285">
        <ele>39.389049530029</ele>
        <time>2019-05-07T21:55:51.075Z</time>
      </trkpt>
      <trkpt lat="50.23753" lon="1.76268">
        <ele>39.562850952148</ele>
        <time>2019-05-07T21:55:56.210Z</time>
      </trkpt>
      <trkpt lat="50.23765" lon="1.76243">
        <ele>38.828517913818</ele>
        <time>2019-05-07T21:56:01.349Z</time>
      </trkpt>
      <trkpt lat="50.2377" lon="1.7622">
        <ele>38.69743347168</ele>
        <time>2019-05-07T21:56:06.491Z</time>
      </trkpt>
      <trkpt lat="50.23777" lon="1.76201">
        <ele>38.336391448975</ele>
        <time>2019-05-07T21:56:11.636Z</time>
      </trkpt>
      <trkpt lat="50.23781" lon="1.76174">
        <ele>37.643390655518</ele>
        <time>2019-05-07T21:56:16.784Z</time>
      </trkpt>
      <trkpt lat="50.23793" lon="1.76139">
        <ele>36.887847900391</ele>
        <time>2019-05-07T21:56:21.937Z</time>
      </trkpt>
      <trkpt lat="50.23799" lon="1.76127">
        <ele>36.776203155518</ele>
        <time>2019-05-07T21:56:27.092Z</time>
      </trkpt>
      <trkpt lat="50.23806" lon="1.76115">
        <ele>36.894470214844</ele>
        <time>2019-05-07T21:56:32.249Z</time>
      </trkpt>
      <trkpt lat="50.23814" lon="1.76104">
        <ele>37.052558898926</ele>
        <time>2019-05-07T21:56:37.408Z</time>
      </trkpt>
      <trkpt lat="50.23823" lon="1.7607">
        <ele>36.322376251221</ele>
        <time>2019-05-07T21:56:42.572Z</time>
      </trkpt>
      <trkpt lat="50.2383" lon="1.76041">
        <ele>36.053562164307</ele>
        <time>2019-05-07T21:56:47.740Z</time>
      </trkpt>
      <trkpt lat="50.23834" lon="1.7601">
        <ele>35.531986236572</ele>
        <time>2019-05-07T21:56:52.912Z</time>
      </trkpt>
      <trkpt lat="50.23842" lon="1.75979">
        <ele>35</ele>
        <time>2019-05-07T21:56:58.088Z</time>
      </trkpt>
      <trkpt lat="50.23852" lon="1.75947">
        <ele>34.843849182129</ele>
        <time>2019-05-07T21:57:03.269Z</time>
      </trkpt>
      <trkpt lat="50.23855" lon="1.75932">
        <ele>34.617679595947</ele>
        <time>2019-05-07T21:57:08.452Z</time>
      </trkpt>
      <trkpt lat="50.23858" lon="1.7591">
        <ele>34.323623657227</ele>
        <time>2019-05-07T21:57:13.638Z</time>
      </trkpt>
      <trkpt lat="50.23867" lon="1.75891">
        <ele>34.144950866699</ele>
        <time>2019-05-07T21:57:18.827Z</time>
      </trkpt>
      <trkpt lat="50.23876" lon="1.75869">
        <ele>34.037544250488</ele>
        <time>2019-05-07T21:57:24.019Z</time>
      </trkpt>
      <trkpt lat="50.23882" lon="1.75844">
        <ele>34.03254699707</ele>
        <time>2019-05-07T21:57:29.215Z</time>
      </trkpt>
      <trkpt lat="50.23889" lon="1.75828">
        <ele>34.083911895752</ele>
        <time>2019-05-07T21:57:34.413Z</time>
      </trkpt>
      <trkpt lat="50.23904" lon="1.75802">
        <ele>33.075344085693</ele>
        <time>2019-05-07T21:57:39.616Z</time>
      </trkpt>
      <trkpt lat="50.23917" lon="1.75749">
        <ele>30.863552093506</ele>
        <time>2019-05-07T21:57:44.826Z</time>
      </trkpt>
      <trkpt lat="50.23922" lon="1.75718">
        <ele>29.547452926636</ele>
        <time>2019-05-07T21:57:50.040Z</time>
      </trkpt>
      <trkpt lat="50.23924" lon="1.75694">
        <ele>28.490087509155</ele>
        <time>2019-05-07T21:57:55.257Z</time>
      </trkpt>
      <trkpt lat="50.23929" lon="1.75672">
        <ele>27.857929229736</ele>
        <time>2019-05-07T21:58:00.477Z</time>
      </trkpt>
      <trkpt lat="50.23939" lon="1.75644">
        <ele>27.449289321899</ele>
        <time>2019-05-07T21:58:05.701Z</time>
      </trkpt>
      <trkpt lat="50.23936" lon="1.75621">
        <ele>27.526554107666</ele>
        <time>2019-05-07T21:58:10.928Z</time>
      </trkpt>
      <trkpt lat="50.23935" lon="1.75603">
        <ele>27.91795539856</ele>
        <time>2019-05-07T21:58:16.158Z</time>
      </trkpt>
      <trkpt lat="50.23938" lon="1.75577">
        <ele>28.671398162842</ele>
        <time>2019-05-07T21:58:21.391Z</time>
      </trkpt>
      <trkpt lat="50.23949" lon="1.75561">
        <ele>29.33584022522</ele>
        <time>2019-05-07T21:58:26.627Z</time>
      </trkpt>
      <trkpt lat="50.23965" lon="1.75526">
        <ele>30.673412322998</ele>
        <time>2019-05-07T21:58:31.869Z</time>
      </trkpt>
      <trkpt lat="50.23975" lon="1.75501">
        <ele>31.618934631348</ele>
        <time>2019-05-07T21:58:37.114Z</time>
      </trkpt>
      <trkpt lat="50.23986" lon="1.7549">
        <ele>32.401943206787</ele>
        <time>2019-05-07T21:58:42.362Z</time>
      </trkpt>
      <trkpt lat="50.23995" lon="1.75484">
        <ele>33.103523254395</ele>
        <time>2019-05-07T21:58:47.612Z</time>
      </trkpt>
      <trkpt lat="50.2401" lon="1.75477">
        <ele>34.386547088623</ele>
        <time>2019-05-07T21:58:52.865Z</time>
      </trkpt>
      <trkpt lat="50.2402" lon="1.75474">
        <ele>35.108310699463</ele>
        <time>2019-05-07T21:58:58.120Z</time>
      </trkpt>
      <trkpt lat="50.24033" lon="1.75465">
        <ele>36.298809051514</ele>
        <time>2019-05-07T21:59:03.378Z</time>
      </trkpt>
      <trkpt lat="50.24048" lon="1.75462">
        <ele>37.287933349609</ele>
        <time>2019-05-07T21:59:08.639Z</time>
      </trkpt>
      <trkpt lat="50.24058" lon="1.75459">
        <ele>37.835716247559</ele>
        <time>2019-05-07T21:59:13.902Z</time>
      </trkpt>
      <trkpt lat="50.24075" lon="1.75462">
        <ele>38.283535003662</ele>
        <time>2019-05-07T21:59:19.168Z</time>
      </trkpt>
      <trkpt lat="50.24085" lon="1.75458">
        <ele>38.861591339111</ele>
        <time>2019-05-07T21:59:24.437Z</time>
      </trkpt>
      <trkpt lat="50.24095" lon="1.75457">
        <ele>39.24605178833</ele>
        <time>2019-05-07T21:59:29.708Z</time>
      </trkpt>
      <trkpt lat="50.24109" lon="1.75459">
        <ele>39.534545898438</ele>
        <time>2019-05-07T21:59:34.981Z</time>
      </trkpt>
      <trkpt lat="50.24122" lon="1.75465">
        <ele>39.651504516602</ele>
        <time>2019-05-07T21:59:40.257Z</time>
      </trkpt>
      <trkpt lat="50.24139" lon="1.75469">
        <ele>39.919414520264</ele>
        <time>2019-05-07T21:59:45.536Z</time>
      </trkpt>
      <trkpt lat="50.2416" lon="1.75469">
        <ele>40.395694732666</ele>
        <time>2019-05-07T21:59:50.820Z</time>
      </trkpt>
      <trkpt lat="50.24176" lon="1.75472">
        <ele>40.66410446167</ele>
        <time>2019-05-07T21:59:56.107Z</time>
      </trkpt>
      <trkpt lat="50.24191" lon="1.75474">
        <ele>40.984306335449</ele>
        <time>2019-05-07T22:00:01.397Z</time>
      </trkpt>
      <trkpt lat="50.24205" lon="1.75475">
        <ele>41.207405090332</ele>
        <time>2019-05-07T22:00:06.690Z</time>
      </trkpt>
      <trkpt lat="50.24218" lon="1.75478">
        <ele>41.453151702881</ele>
        <time>2019-05-07T22:00:11.985Z</time>
      </trkpt>
      <trkpt lat="50.24236" lon="1.75469">
        <ele>42.296096801758</ele>
        <time>2019-05-07T22:00:17.284Z</time>
      </trkpt>
      <trkpt lat="50.24245" lon="1.75444">
        <ele>43.209636688232</ele>
        <time>2019-05-07T22:00:22.587Z</time>
      </trkpt>
      <trkpt lat="50.24257" lon="1.75436">
        <ele>43.535594940186</ele>
        <time>2019-05-07T22:00:27.892Z</time>
      </trkpt>
      <trkpt lat="50.24263" lon="1.75409">
        <ele>43.601062774658</ele>
        <time>2019-05-07T22:00:33.201Z</time>
      </trkpt>
      <trkpt lat="50.24266" lon="1.75368">
        <ele>44</ele>
        <time>2019-05-07T22:00:38.515Z</time>
      </trkpt>
      <trkpt lat="50.24269" lon="1.75336">
        <ele>44</ele>
        <time>2019-05-07T22:00:43.834Z</time>
      </trkpt>
      <trkpt lat="50.24273" lon="1.75303">
        <ele>43.137401580811</ele>
        <time>2019-05-07T22:00:49.157Z</time>
      </trkpt>
      <trkpt lat="50.24277" lon="1.75272">
        <ele>42.022773742676</ele>
        <time>2019-05-07T22:00:54.484Z</time>
      </trkpt>
      <trkpt lat="50.24276" lon="1.75203">
        <ele>39.513446807861</ele>
        <time>2019-05-07T22:00:59.820Z</time>
      </trkpt>
      <trkpt lat="50.24287" lon="1.75189">
        <ele>39.130191802979</ele>
        <time>2019-05-07T22:01:05.159Z</time>
      </trkpt>
      <trkpt lat="50.24299" lon="1.75188">
        <ele>39.264045715332</ele>
        <time>2019-05-07T22:01:10.500Z</time>
      </trkpt>
      <trkpt lat="50.24309" lon="1.7519">
        <ele>39.461856842041</ele>
        <time>2019-05-07T22:01:15.843Z</time>
      </trkpt>
      <trkpt lat="50.24319" lon="1.75193">
        <ele>39.672843933105</ele>
        <time>2019-05-07T22:01:21.188Z</time>
      </trkpt>
      <trkpt lat="50.24334" lon="1.75195">
        <ele>39.935222625732</ele>
        <time>2019-05-07T22:01:26.536Z</time>
      </trkpt>
      <trkpt lat="50.24342" lon="1.75209">
        <ele>40.532485961914</ele>
        <time>2019-05-07T22:01:31.887Z</time>
      </trkpt>
      <trkpt lat="50.24342" lon="1.75237">
        <ele>41.531406402588</ele>
        <time>2019-05-07T22:01:37.241Z</time>
      </trkpt>
      <trkpt lat="50.24348" lon="1.75266">
        <ele>42.634918212891</ele>
        <time>2019-05-07T22:01:42.599Z</time>
      </trkpt>
      <trkpt lat="50.24345" lon="1.75292">
        <ele>43.562240600586</ele>
        <time>2019-05-07T22:01:47.960Z</time>
      </trkpt>
      <trkpt lat="50.24348" lon="1.75317">
        <ele>44.485134124756</ele>
        <time>2019-05-07T22:01:53.325Z</time>
      </trkpt>
      <trkpt lat="50.2435" lon="1.75335">
        <ele>44.816570281982</ele>
        <time>2019-05-07T22:01:58.692Z</time>
      </trkpt>
      <trkpt lat="50.24354" lon="1.75354">
        <ele>45.089508056641</ele>
        <time>2019-05-07T22:02:04.061Z</time>
      </trkpt>
      <trkpt lat="50.24356" lon="1.75373">
        <ele>45.349670410156</ele>
        <time>2019-05-07T22:02:09.433Z</time>
      </trkpt>
      <trkpt lat="50.24366" lon="1.75422">
        <ele>45.899303436279</ele>
        <time>2019-05-07T22:02:14.812Z</time>
      </trkpt>
      <trkpt lat="50.24371" lon="1.75447">
        <ele>46.323993682861</ele>
        <time>2019-05-07T22:02:20.194Z</time>
      </trkpt>
      <trkpt lat="50.24377" lon="1.75477">
        <ele>46.81676864624</ele>
        <time>2019-05-07T22:02:25.580Z</time>
      </trkpt>
      <trkpt lat="50.24391" lon="1.75518">
        <ele>46.857559204102</ele>
        <time>2019-05-07T22:02:30.972Z</time>
      </trkpt>
      <trkpt lat="50.24398" lon="1.75557">
        <ele>46.779418945312</ele>
        <time>2019-05-07T22:02:36.369Z</time>
      </trkpt>
      <trkpt lat="50.24398" lon="1.75577">
        <ele>46.770366668701</ele>
        <time>2019-05-07T22:02:41.769Z</time>
      </trkpt>
      <trkpt lat="50.24403" lon="1.75609">
        <ele>46.7177734375</ele>
        <time>2019-05-07T22:02:47.173Z</time>
      </trkpt>
      <trkpt lat="50.24407" lon="1.75638">
        <ele>46.666080474854</ele>
        <time>2019-05-07T22:02:52.581Z</time>
      </trkpt>
      <trkpt lat="50.24412" lon="1.75664">
        <ele>46.256435394287</ele>
        <time>2019-05-07T22:02:57.992Z</time>
      </trkpt>
      <trkpt lat="50.24415" lon="1.75685">
        <ele>45.459548950195</ele>
        <time>2019-05-07T22:03:03.406Z</time>
      </trkpt>
      <trkpt lat="50.2442" lon="1.75716">
        <ele>44.028957366943</ele>
        <time>2019-05-07T22:03:08.824Z</time>
      </trkpt>
      <trkpt lat="50.24414" lon="1.75754">
        <ele>42.238075256348</ele>
        <time>2019-05-07T22:03:14.247Z</time>
      </trkpt>
      <trkpt lat="50.2442" lon="1.75782">
        <ele>40.852275848389</ele>
        <time>2019-05-07T22:03:19.674Z</time>
      </trkpt>
      <trkpt lat="50.24424" lon="1.75804">
        <ele>39.828109741211</ele>
        <time>2019-05-07T22:03:25.104Z</time>
      </trkpt>
      <trkpt lat="50.24432" lon="1.75839">
        <ele>38.786460876465</ele>
        <time>2019-05-07T22:03:30.539Z</time>
      </trkpt>
      <trkpt lat="50.24435" lon="1.75863">
        <ele>38.494716644287</ele>
        <time>2019-05-07T22:03:35.977Z</time>
      </trkpt>
      <trkpt lat="50.2444" lon="1.75891">
        <ele>38.155811309814</ele>
        <time>2019-05-07T22:03:41.418Z</time>
      </trkpt>
      <trkpt lat="50.24448" lon="1.75917">
        <ele>37.845062255859</ele>
        <time>2019-05-07T22:03:46.863Z</time>
      </trkpt>
      <trkpt lat="50.2445" lon="1.75931">
        <ele>37.677215576172</ele>
        <time>2019-05-07T22:03:52.310Z</time>
      </trkpt>
      <trkpt lat="50.24453" lon="1.75946">
        <ele>37.5022315979</ele>
        <time>2019-05-07T22:03:57.759Z</time>
      </trkpt>
      <trkpt lat="50.24455" lon="1.75961">
        <ele>37.31909942627</ele>
        <time>2019-05-07T22:04:03.210Z</time>
      </trkpt>
      <trkpt lat="50.24455" lon="1.75975">
        <ele>37.147636413574</ele>
        <time>2019-05-07T22:04:08.663Z</time>
      </trkpt>
      <trkpt lat="50.2446" lon="1.7601">
        <ele>37.537818908691</ele>
        <time>2019-05-07T22:04:14.120Z</time>
      </trkpt>
      <trkpt lat="50.24464" lon="1.76052">
        <ele>38.542472839355</ele>
        <time>2019-05-07T22:04:19.583Z</time>
      </trkpt>
      <trkpt lat="50.24466" lon="1.76067">
        <ele>38.907127380371</ele>
        <time>2019-05-07T22:04:25.048Z</time>
      </trkpt>
      <trkpt lat="50.24469" lon="1.76097">
        <ele>39.939865112305</ele>
        <time>2019-05-07T22:04:30.517Z</time>
      </trkpt>
      <trkpt lat="50.24471" lon="1.76129">
        <ele>41.100799560547</ele>
        <time>2019-05-07T22:04:35.990Z</time>
      </trkpt>
      <trkpt lat="50.24475" lon="1.76145">
        <ele>41.663162231445</ele>
        <time>2019-05-07T22:04:41.465Z</time>
      </trkpt>
      <trkpt lat="50.24474" lon="1.7618">
        <ele>42.757640838623</ele>
        <time>2019-05-07T22:04:46.945Z</time>
      </trkpt>
      <trkpt lat="50.24477" lon="1.76196">
        <ele>43.176296234131</ele>
        <time>2019-05-07T22:04:52.427Z</time>
      </trkpt>
      <trkpt lat="50.24478" lon="1.76215">
        <ele>43.634777069092</ele>
        <time>2019-05-07T22:04:57.911Z</time>
      </trkpt>
      <trkpt lat="50.2448" lon="1.76237">
        <ele>44.185478210449</ele>
        <time>2019-05-07T22:05:03.398Z</time>
      </trkpt>
      <trkpt lat="50.24482" lon="1.76255">
        <ele>44.860359191895</ele>
        <time>2019-05-07T22:05:08.887Z</time>
      </trkpt>
      <trkpt lat="50.24493" lon="1.76295">
        <ele>46.407665252686</ele>
        <time>2019-05-07T22:05:14.382Z</time>
      </trkpt>
      <trkpt lat="50.24499" lon="1.76309">
        <ele>47.01538848877</ele>
        <time>2019-05-07T22:05:19.879Z</time>
      </trkpt>
      <trkpt lat="50.24497" lon="1.76325">
        <ele>47.455039978027</ele>
        <time>2019-05-07T22:05:25.378Z</time>
      </trkpt>
      <trkpt lat="50.24496" lon="1.76342">
        <ele>47.657581329346</ele>
        <time>2019-05-07T22:05:30.879Z</time>
      </trkpt>
      <trkpt lat="50.24507" lon="1.76373">
        <ele>48.1477394104</ele>
        <time>2019-05-07T22:05:36.385Z</time>
      </trkpt>
      <trkpt lat="50.24516" lon="1.76411">
        <ele>48.710910797119</ele>
        <time>2019-05-07T22:05:41.896Z</time>
      </trkpt>
      <trkpt lat="50.24521" lon="1.76429">
        <ele>48.998329162598</ele>
        <time>2019-05-07T22:05:47.410Z</time>
      </trkpt>
      <trkpt lat="50.24524" lon="1.76451">
        <ele>49.297714233398</ele>
        <time>2019-05-07T22:05:52.926Z</time>
      </trkpt>
      <trkpt lat="50.24529" lon="1.76479">
        <ele>49.689918518066</ele>
        <time>2019-05-07T22:05:58.446Z</time>
      </trkpt>
      <trkpt lat="50.24534" lon="1.76499">
        <ele>49.601917266846</ele>
        <time>2019-05-07T22:06:03.969Z</time>
      </trkpt>
      <trkpt lat="50.24539" lon="1.76535">
        <ele>48.779487609863</ele>
        <time>2019-05-07T22:06:09.497Z</time>
      </trkpt>
      <trkpt lat="50.24541" lon="1.7655">
        <ele>48.439476013184</ele>
        <time>2019-05-07T22:06:15.027Z</time>
      </trkpt>
      <trkpt lat="50.2455" lon="1.76581">
        <ele>47.712188720703</ele>
        <time>2019-05-07T22:06:20.561Z</time>
      </trkpt>
      <trkpt lat="50.24559" lon="1.76604">
        <ele>47.044128417969</ele>
        <time>2019-05-07T22:06:26.099Z</time>
      </trkpt>
      <trkpt lat="50.24566" lon="1.76638">
        <ele>46.164173126221</ele>
        <time>2019-05-07T22:06:31.641Z</time>
      </trkpt>
      <trkpt lat="50.2457" lon="1.76656">
        <ele>45.666572570801</ele>
        <time>2019-05-07T22:06:37.186Z</time>
      </trkpt>
      <trkpt lat="50.24573" lon="1.76681">
        <ele>45.025867462158</ele>
        <time>2019-05-07T22:06:42.734Z</time>
      </trkpt>
      <trkpt lat="50.24571" lon="1.76709">
        <ele>44.385360717773</ele>
        <time>2019-05-07T22:06:48.285Z</time>
      </trkpt>
      <trkpt lat="50.24578" lon="1.7675">
        <ele>43.333137512207</ele>
        <time>2019-05-07T22:06:53.842Z</time>
      </trkpt>
      <trkpt lat="50.24578" lon="1.76768">
        <ele>42.885116577148</ele>
        <time>2019-05-07T22:06:59.401Z</time>
      </trkpt>
      <trkpt lat="50.24581" lon="1.76792">
        <ele>42.268245697021</ele>
        <time>2019-05-07T22:07:04.963Z</time>
      </trkpt>
      <trkpt lat="50.2459" lon="1.76818">
        <ele>41.541553497314</ele>
        <time>2019-05-07T22:07:10.529Z</time>
      </trkpt>
      <trkpt lat="50.24592" lon="1.7684">
        <ele>41.445781707764</ele>
        <time>2019-05-07T22:07:16.098Z</time>
      </trkpt>
      <trkpt lat="50.24594" lon="1.76862">
        <ele>41.421848297119</ele>
        <time>2019-05-07T22:07:21.670Z</time>
      </trkpt>
      <trkpt lat="50.24603" lon="1.76908">
        <ele>41.619235992432</ele>
        <time>2019-05-07T22:07:27.248Z</time>
      </trkpt>
      <trkpt lat="50.24619" lon="1.76942">
        <ele>41.252571105957</ele>
        <time>2019-05-07T22:07:32.831Z</time>
      </trkpt>
      <trkpt lat="50.2463" lon="1.76953">
        <ele>40.986473083496</ele>
        <time>2019-05-07T22:07:38.417Z</time>
      </trkpt>
      <trkpt lat="50.24647" lon="1.76975">
        <ele>40.565704345703</ele>
        <time>2019-05-07T22:07:44.008Z</time>
      </trkpt>
      <trkpt lat="50.24658" lon="1.76999">
        <ele>40.594551086426</ele>
        <time>2019-05-07T22:07:49.602Z</time>
      </trkpt>
      <trkpt lat="50.2467" lon="1.77017">
        <ele>40.717041015625</ele>
        <time>2019-05-07T22:07:55.200Z</time>
      </trkpt>
      <trkpt lat="50.2469" lon="1.77031">
        <ele>40.579467773438</ele>
        <time>2019-05-07T22:08:00.802Z</time>
      </trkpt>
      <trkpt lat="50.24707" lon="1.77053">
        <ele>40.684257507324</ele>
        <time>2019-05-07T22:08:06.408Z</time>
      </trkpt>
      <trkpt lat="50.24729" lon="1.77074">
        <ele>41.484752655029</ele>
        <time>2019-05-07T22:08:12.019Z</time>
      </trkpt>
      <trkpt lat="50.24749" lon="1.77092">
        <ele>42.627685546875</ele>
        <time>2019-05-07T22:08:17.635Z</time>
      </trkpt>
      <trkpt lat="50.2476" lon="1.77102">
        <ele>43.255115509033</ele>
        <time>2019-05-07T22:08:23.254Z</time>
      </trkpt>
      <trkpt lat="50.24773" lon="1.7711">
        <ele>43.87088394165</ele>
        <time>2019-05-07T22:08:28.876Z</time>
      </trkpt>
      <trkpt lat="50.24789" lon="1.77125">
        <ele>44.782615661621</ele>
        <time>2019-05-07T22:08:34.501Z</time>
      </trkpt>
      <trkpt lat="50.24797" lon="1.77131">
        <ele>45.214027404785</ele>
        <time>2019-05-07T22:08:40.128Z</time>
      </trkpt>
      <trkpt lat="50.2481" lon="1.77141">
        <ele>46.021976470947</ele>
        <time>2019-05-07T22:08:45.758Z</time>
      </trkpt>
      <trkpt lat="50.24824" lon="1.77155">
        <ele>46.998371124268</ele>
        <time>2019-05-07T22:08:51.391Z</time>
      </trkpt>
      <trkpt lat="50.24835" lon="1.77159">
        <ele>47.350353240967</ele>
        <time>2019-05-07T22:08:57.026Z</time>
      </trkpt>
      <trkpt lat="50.24844" lon="1.77168">
        <ele>47.575519561768</ele>
        <time>2019-05-07T22:09:02.664Z</time>
      </trkpt>
      <trkpt lat="50.24863" lon="1.77184">
        <ele>48.050693511963</ele>
        <time>2019-05-07T22:09:08.306Z</time>
      </trkpt>
      <trkpt lat="50.24879" lon="1.77195">
        <ele>48.513626098633</ele>
        <time>2019-05-07T22:09:13.952Z</time>
      </trkpt>
      <trkpt lat="50.24893" lon="1.77201">
        <ele>47.94441986084</ele>
        <time>2019-05-07T22:09:19.600Z</time>
      </trkpt>
      <trkpt lat="50.2491" lon="1.77218">
        <ele>47.136775970459</ele>
        <time>2019-05-07T22:09:25.252Z</time>
      </trkpt>
      <trkpt lat="50.24919" lon="1.7723">
        <ele>46.656269073486</ele>
        <time>2019-05-07T22:09:30.907Z</time>
      </trkpt>
      <trkpt lat="50.24916" lon="1.77254">
        <ele>46.46851348877</ele>
        <time>2019-05-07T22:09:36.565Z</time>
      </trkpt>
      <trkpt lat="50.24903" lon="1.77323">
        <ele>45.47091293335</ele>
        <time>2019-05-07T22:09:42.232Z</time>
      </trkpt>
      <trkpt lat="50.24891" lon="1.77389">
        <ele>46.673336029053</ele>
        <time>2019-05-07T22:09:47.908Z</time>
      </trkpt>
      <trkpt lat="50.24881" lon="1.77422">
        <ele>47.232810974121</ele>
        <time>2019-05-07T22:09:53.589Z</time>
      </trkpt>
      <trkpt lat="50.2487" lon="1.77475">
        <ele>48.178482055664</ele>
        <time>2019-05-07T22:09:59.277Z</time>
      </trkpt>
      <trkpt lat="50.24863" lon="1.77515">
        <ele>49.928440093994</ele>
        <time>2019-05-07T22:10:04.970Z</time>
      </trkpt>
      <trkpt lat="50.24853" lon="1.77584">
        <ele>52.416873931885</ele>
        <time>2019-05-07T22:10:10.672Z</time>
      </trkpt>
      <trkpt lat="50.24843" lon="1.77645">
        <ele>54.626045227051</ele>
        <time>2019-05-07T22:10:16.382Z</time>
      </trkpt>
      <trkpt lat="50.24824" lon="1.77721">
        <ele>53.954147338867</ele>
        <time>2019-05-07T22:10:22.103Z</time>
      </trkpt>
      <trkpt lat="50.24809" lon="1.77784">
        <ele>51.95142364502</ele>
        <time>2019-05-07T22:10:27.832Z</time>
      </trkpt>
      <trkpt lat="50.24791" lon="1.77842">
        <ele>49.490001678467</ele>
        <time>2019-05-07T22:10:33.570Z</time>
      </trkpt>
      <trkpt lat="50.2477" lon="1.77908">
        <ele>48.42130279541</ele>
        <time>2019-05-07T22:10:39.317Z</time>
      </trkpt>
      <trkpt lat="50.24758" lon="1.7795">
        <ele>47.649559020996</ele>
        <time>2019-05-07T22:10:45.070Z</time>
      </trkpt>
      <trkpt lat="50.2474" lon="1.78011">
        <ele>47.891265869141</ele>
        <time>2019-05-07T22:10:50.832Z</time>
      </trkpt>
      <trkpt lat="50.2473" lon="1.78054">
        <ele>48.375621795654</ele>
        <time>2019-05-07T22:10:56.600Z</time>
      </trkpt>
      <trkpt lat="50.24717" lon="1.78096">
        <ele>49.187965393066</ele>
        <time>2019-05-07T22:11:02.374Z</time>
      </trkpt>
      <trkpt lat="50.24699" lon="1.78174">
        <ele>51.829456329346</ele>
        <time>2019-05-07T22:11:08.158Z</time>
      </trkpt>
      <trkpt lat="50.24686" lon="1.78224">
        <ele>54.107997894287</ele>
        <time>2019-05-07T22:11:13.949Z</time>
      </trkpt>
      <trkpt lat="50.24682" lon="1.78243">
        <ele>54.275341033936</ele>
        <time>2019-05-07T22:11:19.743Z</time>
      </trkpt>
      <trkpt lat="50.24677" lon="1.78262">
        <ele>55.143028259277</ele>
        <time>2019-05-07T22:11:25.539Z</time>
      </trkpt>
      <trkpt lat="50.24668" lon="1.7828">
        <ele>55.970584869385</ele>
        <time>2019-05-07T22:11:31.338Z</time>
      </trkpt>
      <trkpt lat="50.24634" lon="1.78371">
        <ele>55.060264587402</ele>
        <time>2019-05-07T22:11:37.151Z</time>
      </trkpt>
      <trkpt lat="50.24615" lon="1.7844">
        <ele>54.753150939941</ele>
        <time>2019-05-07T22:11:42.973Z</time>
      </trkpt>
      <trkpt lat="50.24593" lon="1.78519">
        <ele>54.368335723877</ele>
        <time>2019-05-07T22:11:48.806Z</time>
      </trkpt>
      <trkpt lat="50.24576" lon="1.78578">
        <ele>54.511459350586</ele>
        <time>2019-05-07T22:11:54.648Z</time>
      </trkpt>
      <trkpt lat="50.24569" lon="1.78598">
        <ele>54.878330230713</ele>
        <time>2019-05-07T22:12:00.493Z</time>
      </trkpt>
      <trkpt lat="50.24565" lon="1.78617">
        <ele>55.012382507324</ele>
        <time>2019-05-07T22:12:06.340Z</time>
      </trkpt>
      <trkpt lat="50.24575" lon="1.78628">
        <ele>55.361751556396</ele>
        <time>2019-05-07T22:12:12.189Z</time>
      </trkpt>
      <trkpt lat="50.24586" lon="1.78633">
        <ele>55.693214416504</ele>
        <time>2019-05-07T22:12:18.041Z</time>
      </trkpt>
      <trkpt lat="50.24599" lon="1.78646">
        <ele>56.172916412354</ele>
        <time>2019-05-07T22:12:23.896Z</time>
      </trkpt>
      <trkpt lat="50.24609" lon="1.78652">
        <ele>56.484870910645</ele>
        <time>2019-05-07T22:12:29.753Z</time>
      </trkpt>
      <trkpt lat="50.24618" lon="1.78662">
        <ele>56.810302734375</ele>
        <time>2019-05-07T22:12:35.612Z</time>
      </trkpt>
      <trkpt lat="50.24626" lon="1.78671">
        <ele>57.109588623047</ele>
        <time>2019-05-07T22:12:41.473Z</time>
      </trkpt>
      <trkpt lat="50.24643" lon="1.78678">
        <ele>57.113231658936</ele>
        <time>2019-05-07T22:12:47.338Z</time>
      </trkpt>
      <trkpt lat="50.24652" lon="1.78683">
        <ele>57.062648773193</ele>
        <time>2019-05-07T22:12:53.205Z</time>
      </trkpt>
      <trkpt lat="50.24662" lon="1.78686">
        <ele>56.960166931152</ele>
        <time>2019-05-07T22:12:59.074Z</time>
      </trkpt>
      <trkpt lat="50.24676" lon="1.78701">
        <ele>56.981285095215</ele>
        <time>2019-05-07T22:13:04.946Z</time>
      </trkpt>
      <trkpt lat="50.24686" lon="1.78711">
        <ele>56.976257324219</ele>
        <time>2019-05-07T22:13:10.821Z</time>
      </trkpt>
      <trkpt lat="50.24698" lon="1.78722">
        <ele>56.943069458008</ele>
        <time>2019-05-07T22:13:16.698Z</time>
      </trkpt>
      <trkpt lat="50.24716" lon="1.7874">
        <ele>57.018253326416</ele>
        <time>2019-05-07T22:13:22.580Z</time>
      </trkpt>
      <trkpt lat="50.24731" lon="1.78753">
        <ele>57.18106842041</ele>
        <time>2019-05-07T22:13:28.465Z</time>
      </trkpt>
      <trkpt lat="50.24745" lon="1.78764">
        <ele>57.312107086182</ele>
        <time>2019-05-07T22:13:34.353Z</time>
      </trkpt>
      <trkpt lat="50.24768" lon="1.78783">
        <ele>57.539386749268</ele>
        <time>2019-05-07T22:13:40.246Z</time>
      </trkpt>
      <trkpt lat="50.24785" lon="1.78794">
        <ele>57.66569519043</ele>
        <time>2019-05-07T22:13:46.143Z</time>
      </trkpt>
      <trkpt lat="50.248" lon="1.78808">
        <ele>57.892658233643</ele>
        <time>2019-05-07T22:13:52.044Z</time>
      </trkpt>
      <trkpt lat="50.24817" lon="1.78824">
        <ele>58.313606262207</ele>
        <time>2019-05-07T22:13:57.949Z</time>
      </trkpt>
      <trkpt lat="50.24837" lon="1.78834">
        <ele>58.790390014648</ele>
        <time>2019-05-07T22:14:03.858Z</time>
      </trkpt>
      <trkpt lat="50.24853" lon="1.78842">
        <ele>59.184810638428</ele>
        <time>2019-05-07T22:14:09.770Z</time>
      </trkpt>
      <trkpt lat="50.24865" lon="1.78852">
        <ele>59.558410644531</ele>
        <time>2019-05-07T22:14:15.685Z</time>
      </trkpt>
      <trkpt lat="50.24882" lon="1.78861">
        <ele>59.928871154785</ele>
        <time>2019-05-07T22:14:21.603Z</time>
      </trkpt>
      <trkpt lat="50.24895" lon="1.78868">
        <ele>59.916603088379</ele>
        <time>2019-05-07T22:14:27.524Z</time>
      </trkpt>
      <trkpt lat="50.24914" lon="1.78881">
        <ele>60.006813049316</ele>
        <time>2019-05-07T22:14:33.449Z</time>
      </trkpt>
      <trkpt lat="50.24932" lon="1.78892">
        <ele>60.058300018311</ele>
        <time>2019-05-07T22:14:39.378Z</time>
      </trkpt>
      <trkpt lat="50.24941" lon="1.78901">
        <ele>60.168922424316</ele>
        <time>2019-05-07T22:14:45.309Z</time>
      </trkpt>
      <trkpt lat="50.24962" lon="1.78912">
        <ele>60.288303375244</ele>
        <time>2019-05-07T22:14:51.245Z</time>
      </trkpt>
      <trkpt lat="50.2498" lon="1.78927">
        <ele>60.152256011963</ele>
        <time>2019-05-07T22:14:57.185Z</time>
      </trkpt>
      <trkpt lat="50.25003" lon="1.78944">
        <ele>59.977603912354</ele>
        <time>2019-05-07T22:15:03.130Z</time>
      </trkpt>
      <trkpt lat="50.25018" lon="1.78953">
        <ele>59.833995819092</ele>
        <time>2019-05-07T22:15:09.078Z</time>
      </trkpt>
      <trkpt lat="50.25027" lon="1.78966">
        <ele>59.931144714355</ele>
        <time>2019-05-07T22:15:15.029Z</time>
      </trkpt>
      <trkpt lat="50.25038" lon="1.7898">
        <ele>59.98344039917</ele>
        <time>2019-05-07T22:15:20.983Z</time>
      </trkpt>
      <trkpt lat="50.25062" lon="1.78999">
        <ele>60.055213928223</ele>
        <time>2019-05-07T22:15:26.942Z</time>
      </trkpt>
      <trkpt lat="50.25076" lon="1.79008">
        <ele>60.127418518066</ele>
        <time>2019-05-07T22:15:32.904Z</time>
      </trkpt>
      <trkpt lat="50.25095" lon="1.79016">
        <ele>60.077438354492</ele>
        <time>2019-05-07T22:15:38.870Z</time>
      </trkpt>
      <trkpt lat="50.25119" lon="1.79029">
        <ele>60.101173400879</ele>
        <time>2019-05-07T22:15:44.841Z</time>
      </trkpt>
      <trkpt lat="50.25137" lon="1.79039">
        <ele>60.127418518066</ele>
        <time>2019-05-07T22:15:50.816Z</time>
      </trkpt>
      <trkpt lat="50.25154" lon="1.79043">
        <ele>60.010963439941</ele>
        <time>2019-05-07T22:15:56.794Z</time>
      </trkpt>
      <trkpt lat="50.25173" lon="1.79053">
        <ele>60.036911010742</ele>
        <time>2019-05-07T22:16:02.776Z</time>
      </trkpt>
      <trkpt lat="50.25192" lon="1.79063">
        <ele>60.038417816162</ele>
        <time>2019-05-07T22:16:08.762Z</time>
      </trkpt>
      <trkpt lat="50.25202" lon="1.79068">
        <ele>60.038619995117</ele>
        <time>2019-05-07T22:16:14.750Z</time>
      </trkpt>
      <trkpt lat="50.2521" lon="1.79082">
        <ele>60.546810150146</ele>
        <time>2019-05-07T22:16:20.741Z</time>
      </trkpt>
      <trkpt lat="50.25207" lon="1.79096">
        <ele>61.248157501221</ele>
        <time>2019-05-07T22:16:26.734Z</time>
      </trkpt>
      <trkpt lat="50.25201" lon="1.7911">
        <ele>61.967205047607</ele>
        <time>2019-05-07T22:16:32.729Z</time>
      </trkpt>
      <trkpt lat="50.25193" lon="1.79126">
        <ele>62.863048553467</ele>
        <time>2019-05-07T22:16:38.726Z</time>
      </trkpt>
      <trkpt lat="50.2518" lon="1.79152">
        <ele>63.544048309326</ele>
        <time>2019-05-07T22:16:44.728Z</time>
      </trkpt>
      <trkpt lat="50.25176" lon="1.79177">
        <ele>63.831272125244</ele>
        <time>2019-05-07T22:16:50.733Z</time>
      </trkpt>
      <trkpt lat="50.25175" lon="1.79194">
        <ele>64.019233703613</ele>
        <time>2019-05-07T22:16:56.740Z</time>
      </trkpt>
      <trkpt lat="50.25166" lon="1.79213">
        <ele>64.405700683594</ele>
        <time>2019-05-07T22:17:02.750Z</time>
      </trkpt>
      <trkpt lat="50.25164" lon="1.7923">
        <ele>64.799919128418</ele>
        <time>2019-05-07T22:17:08.762Z</time>
      </trkpt>
      <trkpt lat="50.25161" lon="1.79265">
        <ele>65.325653076172</ele>
        <time>2019-05-07T22:17:14.779Z</time>
      </trkpt>
      <trkpt lat="50.25157" lon="1.79279">
        <ele>65.64608001709</ele>
        <time>2019-05-07T22:17:20.798Z</time>
      </trkpt>
      <trkpt lat="50.25151" lon="1.793">
        <ele>66.218803405762</ele>
        <time>2019-05-07T22:17:26.820Z</time>
      </trkpt>
      <trkpt lat="50.2515" lon="1.79321">
        <ele>66.747787475586</ele>
        <time>2019-05-07T22:17:32.844Z</time>
      </trkpt>
      <trkpt lat="50.25145" lon="1.79335">
        <ele>66.816062927246</ele>
        <time>2019-05-07T22:17:38.870Z</time>
      </trkpt>
      <trkpt lat="50.2514" lon="1.7935">
        <ele>67.078094482422</ele>
        <time>2019-05-07T22:17:44.899Z</time>
      </trkpt>
      <trkpt lat="50.25141" lon="1.79365">
        <ele>67.23014831543</ele>
        <time>2019-05-07T22:17:50.930Z</time>
      </trkpt>
      <trkpt lat="50.25139" lon="1.79381">
        <ele>67.477035522461</ele>
        <time>2019-05-07T22:17:56.963Z</time>
      </trkpt>
      <trkpt lat="50.25133" lon="1.79395">
        <ele>67.797142028809</ele>
        <time>2019-05-07T22:18:02.998Z</time>
      </trkpt>
      <trkpt lat="50.25125" lon="1.79406">
        <ele>68.059814453125</ele>
        <time>2019-05-07T22:18:09.035Z</time>
      </trkpt>
      <trkpt lat="50.25118" lon="1.79437">
        <ele>68.518798828125</ele>
        <time>2019-05-07T22:18:15.076Z</time>
      </trkpt>
      <trkpt lat="50.25119" lon="1.79463">
        <ele>68.819892883301</ele>
        <time>2019-05-07T22:18:21.121Z</time>
      </trkpt>
      <trkpt lat="50.25107" lon="1.79479">
        <ele>69</ele>
        <time>2019-05-07T22:18:27.169Z</time>
      </trkpt>
      <trkpt lat="50.25102" lon="1.79492">
        <ele>69</ele>
        <time>2019-05-07T22:18:33.219Z</time>
      </trkpt>
      <trkpt lat="50.25093" lon="1.79517">
        <ele>69</ele>
        <time>2019-05-07T22:18:39.272Z</time>
      </trkpt>
      <trkpt lat="50.25087" lon="1.7953">
        <ele>68.996643066406</ele>
        <time>2019-05-07T22:18:45.327Z</time>
      </trkpt>
      <trkpt lat="50.25085" lon="1.79547">
        <ele>68.762420654297</ele>
        <time>2019-05-07T22:18:51.385Z</time>
      </trkpt>
      <trkpt lat="50.25077" lon="1.79579">
        <ele>68.283325195312</ele>
        <time>2019-05-07T22:18:57.447Z</time>
      </trkpt>
      <trkpt lat="50.2507" lon="1.79599">
        <ele>67.967552185059</ele>
        <time>2019-05-07T22:19:03.512Z</time>
      </trkpt>
      <trkpt lat="50.25064" lon="1.79612">
        <ele>67.735641479492</ele>
        <time>2019-05-07T22:19:09.579Z</time>
      </trkpt>
      <trkpt lat="50.25062" lon="1.79631">
        <ele>67.478797912598</ele>
        <time>2019-05-07T22:19:15.648Z</time>
      </trkpt>
      <trkpt lat="50.25055" lon="1.79651">
        <ele>67.150245666504</ele>
        <time>2019-05-07T22:19:21.720Z</time>
      </trkpt>
      <trkpt lat="50.2506" lon="1.79665">
        <ele>67.168716430664</ele>
        <time>2019-05-07T22:19:27.794Z</time>
      </trkpt>
      <trkpt lat="50.2506" lon="1.79684">
        <ele>67.17113494873</ele>
        <time>2019-05-07T22:19:33.871Z</time>
      </trkpt>
      <trkpt lat="50.2507" lon="1.79695">
        <ele>67.295028686523</ele>
        <time>2019-05-07T22:19:39.950Z</time>
      </trkpt>
      <trkpt lat="50.25088" lon="1.7971">
        <ele>67.509841918945</ele>
        <time>2019-05-07T22:19:46.033Z</time>
      </trkpt>
      <trkpt lat="50.25112" lon="1.7972">
        <ele>67.787300109863</ele>
        <time>2019-05-07T22:19:52.121Z</time>
      </trkpt>
      <trkpt lat="50.25124" lon="1.79731">
        <ele>67.938453674316</ele>
        <time>2019-05-07T22:19:58.212Z</time>
      </trkpt>
      <trkpt lat="50.25131" lon="1.79741">
        <ele>68.023132324219</ele>
        <time>2019-05-07T22:20:04.305Z</time>
      </trkpt>
      <trkpt lat="50.25145" lon="1.79756">
        <ele>68.185546875</ele>
        <time>2019-05-07T22:20:10.401Z</time>
      </trkpt>
      <trkpt lat="50.25169" lon="1.79768">
        <ele>68.482818603516</ele>
        <time>2019-05-07T22:20:16.503Z</time>
      </trkpt>
      <trkpt lat="50.25188" lon="1.7978">
        <ele>68.705673217773</ele>
        <time>2019-05-07T22:20:22.609Z</time>
      </trkpt>
      <trkpt lat="50.25201" lon="1.79796">
        <ele>68.855514526367</ele>
        <time>2019-05-07T22:20:28.718Z</time>
      </trkpt>
      <trkpt lat="50.25217" lon="1.79808">
        <ele>69.058555603027</ele>
        <time>2019-05-07T22:20:34.831Z</time>
      </trkpt>
      <trkpt lat="50.25233" lon="1.79815">
        <ele>69.243293762207</ele>
        <time>2019-05-07T22:20:40.947Z</time>
      </trkpt>
      <trkpt lat="50.25244" lon="1.79823">
        <ele>69.38037109375</ele>
        <time>2019-05-07T22:20:47.065Z</time>
      </trkpt>
      <trkpt lat="50.25252" lon="1.79833">
        <ele>69.473793029785</ele>
        <time>2019-05-07T22:20:53.185Z</time>
      </trkpt>
      <trkpt lat="50.25277" lon="1.79848">
        <ele>69.7685546875</ele>
        <time>2019-05-07T22:20:59.311Z</time>
      </trkpt>
      <trkpt lat="50.25284" lon="1.79858">
        <ele>69.862586975098</ele>
        <time>2019-05-07T22:21:05.439Z</time>
      </trkpt>
      <trkpt lat="50.25296" lon="1.79865">
        <ele>70.000762939453</ele>
        <time>2019-05-07T22:21:11.569Z</time>
      </trkpt>
      <trkpt lat="50.25318" lon="1.79875">
        <ele>70.265655517578</ele>
        <time>2019-05-07T22:21:17.704Z</time>
      </trkpt>
      <trkpt lat="50.25332" lon="1.79883">
        <ele>70.432289123535</ele>
        <time>2019-05-07T22:21:23.842Z</time>
      </trkpt>
      <trkpt lat="50.25341" lon="1.79889">
        <ele>70.538391113281</ele>
        <time>2019-05-07T22:21:29.982Z</time>
      </trkpt>
      <trkpt lat="50.25349" lon="1.79895">
        <ele>70.639961242676</ele>
        <time>2019-05-07T22:21:36.123Z</time>
      </trkpt>
      <trkpt lat="50.25362" lon="1.79909">
        <ele>70.837226867676</ele>
        <time>2019-05-07T22:21:42.268Z</time>
      </trkpt>
      <trkpt lat="50.25372" lon="1.79915">
        <ele>71.03443145752</ele>
        <time>2019-05-07T22:21:48.415Z</time>
      </trkpt>
      <trkpt lat="50.25389" lon="1.79925">
        <ele>70.877403259277</ele>
        <time>2019-05-07T22:21:54.565Z</time>
      </trkpt>
      <trkpt lat="50.25405" lon="1.79935">
        <ele>70.435012817383</ele>
        <time>2019-05-07T22:22:00.719Z</time>
      </trkpt>
      <trkpt lat="50.25416" lon="1.79943">
        <ele>70.131103515625</ele>
        <time>2019-05-07T22:22:06.875Z</time>
      </trkpt>
      <trkpt lat="50.25432" lon="1.79958">
        <ele>69.734474182129</ele>
        <time>2019-05-07T22:22:13.035Z</time>
      </trkpt>
      <trkpt lat="50.25439" lon="1.79968">
        <ele>69.601928710938</ele>
        <time>2019-05-07T22:22:19.197Z</time>
      </trkpt>
      <trkpt lat="50.25448" lon="1.79975">
        <ele>69.378974914551</ele>
        <time>2019-05-07T22:22:25.361Z</time>
      </trkpt>
      <trkpt lat="50.25458" lon="1.79979">
        <ele>69.055252075195</ele>
        <time>2019-05-07T22:22:31.527Z</time>
      </trkpt>
      <trkpt lat="50.25476" lon="1.79988">
        <ele>68.673614501953</ele>
        <time>2019-05-07T22:22:37.697Z</time>
      </trkpt>
      <trkpt lat="50.25496" lon="1.80005">
        <ele>68.390121459961</ele>
        <time>2019-05-07T22:22:43.871Z</time>
      </trkpt>
      <trkpt lat="50.25511" lon="1.80026">
        <ele>68.288848876953</ele>
        <time>2019-05-07T22:22:50.049Z</time>
      </trkpt>
      <trkpt lat="50.25528" lon="1.8006">
        <ele>68.293579101562</ele>
        <time>2019-05-07T22:22:56.233Z</time>
      </trkpt>
      <trkpt lat="50.2554" lon="1.8009">
        <ele>68.359245300293</ele>
        <time>2019-05-07T22:23:02.421Z</time>
      </trkpt>
      <trkpt lat="50.25558" lon="1.80132">
        <ele>68.442718505859</ele>
        <time>2019-05-07T22:23:08.616Z</time>
      </trkpt>
      <trkpt lat="50.25565" lon="1.8015">
        <ele>68.471778869629</ele>
        <time>2019-05-07T22:23:14.814Z</time>
      </trkpt>
      <trkpt lat="50.25573" lon="1.80161">
        <ele>68.290176391602</ele>
        <time>2019-05-07T22:23:21.014Z</time>
      </trkpt>
      <trkpt lat="50.25575" lon="1.80177">
        <ele>68.034034729004</ele>
        <time>2019-05-07T22:23:27.216Z</time>
      </trkpt>
      <trkpt lat="50.25574" lon="1.80193">
        <ele>68.099197387695</ele>
        <time>2019-05-07T22:23:33.420Z</time>
      </trkpt>
      <trkpt lat="50.25588" lon="1.80214">
        <ele>67.713829040527</ele>
        <time>2019-05-07T22:23:39.628Z</time>
      </trkpt>
      <trkpt lat="50.25603" lon="1.80231">
        <ele>67.184143066406</ele>
        <time>2019-05-07T22:23:45.839Z</time>
      </trkpt>
      <trkpt lat="50.2561" lon="1.80243">
        <ele>66.839294433594</ele>
        <time>2019-05-07T22:23:52.052Z</time>
      </trkpt>
      <trkpt lat="50.25628" lon="1.80272">
        <ele>65.265434265137</ele>
        <time>2019-05-07T22:23:58.271Z</time>
      </trkpt>
      <trkpt lat="50.25633" lon="1.80304">
        <ele>64.665710449219</ele>
        <time>2019-05-07T22:24:04.494Z</time>
      </trkpt>
      <trkpt lat="50.25638" lon="1.80331">
        <ele>63.999069213867</ele>
        <time>2019-05-07T22:24:10.721Z</time>
      </trkpt>
      <trkpt lat="50.25644" lon="1.8037">
        <ele>63.598213195801</ele>
        <time>2019-05-07T22:24:16.953Z</time>
      </trkpt>
      <trkpt lat="50.25654" lon="1.80388">
        <ele>63.494426727295</ele>
        <time>2019-05-07T22:24:23.188Z</time>
      </trkpt>
      <trkpt lat="50.25676" lon="1.80411">
        <ele>63.188999176025</ele>
        <time>2019-05-07T22:24:29.428Z</time>
      </trkpt>
      <trkpt lat="50.25683" lon="1.80421">
        <ele>62.720462799072</ele>
        <time>2019-05-07T22:24:35.670Z</time>
      </trkpt>
      <trkpt lat="50.25701" lon="1.80448">
        <ele>61.281360626221</ele>
        <time>2019-05-07T22:24:41.917Z</time>
      </trkpt>
      <trkpt lat="50.25707" lon="1.80466">
        <ele>60.301242828369</ele>
        <time>2019-05-07T22:24:48.166Z</time>
      </trkpt>
      <trkpt lat="50.25719" lon="1.80482">
        <ele>59.561683654785</ele>
        <time>2019-05-07T22:24:54.419Z</time>
      </trkpt>
      <trkpt lat="50.25726" lon="1.80493">
        <ele>59.322216033936</ele>
        <time>2019-05-07T22:25:00.674Z</time>
      </trkpt>
      <trkpt lat="50.25725" lon="1.80507">
        <ele>59.611865997314</ele>
        <time>2019-05-07T22:25:06.931Z</time>
      </trkpt>
      <trkpt lat="50.25729" lon="1.80535">
        <ele>60.828918457031</ele>
        <time>2019-05-07T22:25:13.191Z</time>
      </trkpt>
      <trkpt lat="50.25738" lon="1.8056">
        <ele>61.803001403809</ele>
        <time>2019-05-07T22:25:19.455Z</time>
      </trkpt>
      <trkpt lat="50.25746" lon="1.80586">
        <ele>62.200496673584</ele>
        <time>2019-05-07T22:25:25.723Z</time>
      </trkpt>
      <trkpt lat="50.25754" lon="1.80611">
        <ele>62.004795074463</ele>
        <time>2019-05-07T22:25:31.994Z</time>
      </trkpt>
      <trkpt lat="50.25765" lon="1.80631">
        <ele>62.068286895752</ele>
        <time>2019-05-07T22:25:38.269Z</time>
      </trkpt>
      <trkpt lat="50.25766" lon="1.8065">
        <ele>62.880661010742</ele>
        <time>2019-05-07T22:25:44.546Z</time>
      </trkpt>
      <trkpt lat="50.25775" lon="1.80664">
        <ele>63.04419708252</ele>
        <time>2019-05-07T22:25:50.826Z</time>
      </trkpt>
      <trkpt lat="50.25773" lon="1.80681">
        <ele>64.217094421387</ele>
        <time>2019-05-07T22:25:57.108Z</time>
      </trkpt>
      <trkpt lat="50.25781" lon="1.807">
        <ele>64.743255615234</ele>
        <time>2019-05-07T22:26:03.393Z</time>
      </trkpt>
      <trkpt lat="50.25786" lon="1.80716">
        <ele>65.333679199219</ele>
        <time>2019-05-07T22:26:09.680Z</time>
      </trkpt>
      <trkpt lat="50.25789" lon="1.80732">
        <ele>66.088768005371</ele>
        <time>2019-05-07T22:26:15.969Z</time>
      </trkpt>
      <trkpt lat="50.25792" lon="1.8075">
        <ele>66.869018554688</ele>
        <time>2019-05-07T22:26:22.261Z</time>
      </trkpt>
      <trkpt lat="50.25804" lon="1.80759">
        <ele>66.488708496094</ele>
        <time>2019-05-07T22:26:28.555Z</time>
      </trkpt>
      <trkpt lat="50.25815" lon="1.80778">
        <ele>66.618034362793</ele>
        <time>2019-05-07T22:26:34.852Z</time>
      </trkpt>
      <trkpt lat="50.25825" lon="1.80796">
        <ele>66.728652954102</ele>
        <time>2019-05-07T22:26:41.153Z</time>
      </trkpt>
      <trkpt lat="50.25832" lon="1.80817">
        <ele>67.371276855469</ele>
        <time>2019-05-07T22:26:47.457Z</time>
      </trkpt>
      <trkpt lat="50.25842" lon="1.80836">
        <ele>67.039390563965</ele>
        <time>2019-05-07T22:26:53.764Z</time>
      </trkpt>
      <trkpt lat="50.25852" lon="1.8085">
        <ele>66.351013183594</ele>
        <time>2019-05-07T22:27:00.073Z</time>
      </trkpt>
      <trkpt lat="50.25865" lon="1.80871">
        <ele>65.542465209961</ele>
        <time>2019-05-07T22:27:06.386Z</time>
      </trkpt>
      <trkpt lat="50.25878" lon="1.80886">
        <ele>64.447402954102</ele>
        <time>2019-05-07T22:27:12.702Z</time>
      </trkpt>
      <trkpt lat="50.25885" lon="1.80897">
        <ele>64.357292175293</ele>
        <time>2019-05-07T22:27:19.020Z</time>
      </trkpt>
      <trkpt lat="50.25895" lon="1.80902">
        <ele>63.945873260498</ele>
        <time>2019-05-07T22:27:25.340Z</time>
      </trkpt>
      <trkpt lat="50.25905" lon="1.80911">
        <ele>63.937931060791</ele>
        <time>2019-05-07T22:27:31.663Z</time>
      </trkpt>
      <trkpt lat="50.25914" lon="1.8092">
        <ele>64.194877624512</ele>
        <time>2019-05-07T22:27:37.988Z</time>
      </trkpt>
      <trkpt lat="50.25922" lon="1.80935">
        <ele>64.907592773438</ele>
        <time>2019-05-07T22:27:44.316Z</time>
      </trkpt>
      <trkpt lat="50.2593" lon="1.80948">
        <ele>65.621910095215</ele>
        <time>2019-05-07T22:27:50.646Z</time>
      </trkpt>
      <trkpt lat="50.25944" lon="1.8097">
        <ele>66.544204711914</ele>
        <time>2019-05-07T22:27:56.980Z</time>
      </trkpt>
      <trkpt lat="50.25959" lon="1.80983">
        <ele>66.801246643066</ele>
        <time>2019-05-07T22:28:03.317Z</time>
      </trkpt>
      <trkpt lat="50.25971" lon="1.81003">
        <ele>66.322868347168</ele>
        <time>2019-05-07T22:28:09.658Z</time>
      </trkpt>
      <trkpt lat="50.25983" lon="1.81017">
        <ele>65.28311920166</ele>
        <time>2019-05-07T22:28:16.002Z</time>
      </trkpt>
      <trkpt lat="50.25995" lon="1.81027">
        <ele>64.324317932129</ele>
        <time>2019-05-07T22:28:22.348Z</time>
      </trkpt>
      <trkpt lat="50.26005" lon="1.81044">
        <ele>63.435214996338</ele>
        <time>2019-05-07T22:28:28.697Z</time>
      </trkpt>
      <trkpt lat="50.26015" lon="1.81059">
        <ele>62.605949401855</ele>
        <time>2019-05-07T22:28:35.049Z</time>
      </trkpt>
      <trkpt lat="50.26023" lon="1.81072">
        <ele>61.922798156738</ele>
        <time>2019-05-07T22:28:41.403Z</time>
      </trkpt>
      <trkpt lat="50.26031" lon="1.81085">
        <ele>62.004055023193</ele>
        <time>2019-05-07T22:28:47.760Z</time>
      </trkpt>
      <trkpt lat="50.26047" lon="1.81106">
        <ele>61.915370941162</ele>
        <time>2019-05-07T22:28:54.121Z</time>
      </trkpt>
      <trkpt lat="50.26067" lon="1.81124">
        <ele>60.137966156006</ele>
        <time>2019-05-07T22:29:00.487Z</time>
      </trkpt>
      <trkpt lat="50.26077" lon="1.81132">
        <ele>59.149299621582</ele>
        <time>2019-05-07T22:29:06.855Z</time>
      </trkpt>
      <trkpt lat="50.26085" lon="1.81139">
        <ele>58.436084747314</ele>
        <time>2019-05-07T22:29:13.225Z</time>
      </trkpt>
      <trkpt lat="50.26098" lon="1.81143">
        <ele>56.798366546631</ele>
        <time>2019-05-07T22:29:19.597Z</time>
      </trkpt>
      <trkpt lat="50.26106" lon="1.8112">
        <ele>55.073307037354</ele>
        <time>2019-05-07T22:29:25.973Z</time>
      </trkpt>
      <trkpt lat="50.26114" lon="1.81088">
        <ele>54.941062927246</ele>
        <time>2019-05-07T22:29:32.353Z</time>
      </trkpt>
      <trkpt lat="50.26098" lon="1.8112">
        <ele>55.676803588867</ele>
        <time>2019-05-07T22:29:38.738Z</time>
      </trkpt>
      <trkpt lat="50.26092" lon="1.81142">
        <ele>57.694911956787</ele>
        <time>2019-05-07T22:29:45.126Z</time>
      </trkpt>
      <trkpt lat="50.26076" lon="1.81127">
        <ele>59.025100708008</ele>
        <time>2019-05-07T22:29:51.518Z</time>
      </trkpt>
      <trkpt lat="50.2606" lon="1.8111">
        <ele>60.207859039307</ele>
        <time>2019-05-07T22:29:57.914Z</time>
      </trkpt>
      <trkpt lat="50.26048" lon="1.81094">
        <ele>61.110340118408</ele>
        <time>2019-05-07T22:30:04.313Z</time>
      </trkpt>
      <trkpt lat="50.26041" lon="1.81083">
        <ele>61.140090942383</ele>
        <time>2019-05-07T22:30:10.714Z</time>
      </trkpt>
      <trkpt lat="50.26028" lon="1.81071">
        <ele>61.526775360107</ele>
        <time>2019-05-07T22:30:17.118Z</time>
      </trkpt>
      <trkpt lat="50.26018" lon="1.81055">
        <ele>62.363784790039</ele>
        <time>2019-05-07T22:30:23.525Z</time>
      </trkpt>
      <trkpt lat="50.26008" lon="1.81042">
        <ele>63.19446182251</ele>
        <time>2019-05-07T22:30:29.935Z</time>
      </trkpt>
      <trkpt lat="50.25994" lon="1.81029">
        <ele>64.367263793945</ele>
        <time>2019-05-07T22:30:36.348Z</time>
      </trkpt>
      <trkpt lat="50.2599" lon="1.81014">
        <ele>64.554183959961</ele>
        <time>2019-05-07T22:30:42.763Z</time>
      </trkpt>
      <trkpt lat="50.25978" lon="1.80999">
        <ele>65.473556518555</ele>
        <time>2019-05-07T22:30:49.181Z</time>
      </trkpt>
      <trkpt lat="50.25969" lon="1.80989">
        <ele>66.250228881836</ele>
        <time>2019-05-07T22:30:55.601Z</time>
      </trkpt>
      <trkpt lat="50.25958" lon="1.80984">
        <ele>66.877075195312</ele>
        <time>2019-05-07T22:31:02.024Z</time>
      </trkpt>
      <trkpt lat="50.25951" lon="1.80974">
        <ele>66.466361999512</ele>
        <time>2019-05-07T22:31:08.448Z</time>
      </trkpt>
      <trkpt lat="50.25947" lon="1.80953">
        <ele>64.960083007812</ele>
        <time>2019-05-07T22:31:14.875Z</time>
      </trkpt>
      <trkpt lat="50.25929" lon="1.80931">
        <ele>64.161186218262</ele>
        <time>2019-05-07T22:31:21.307Z</time>
      </trkpt>
      <trkpt lat="50.25914" lon="1.80915">
        <ele>63.795227050781</ele>
        <time>2019-05-07T22:31:27.743Z</time>
      </trkpt>
      <trkpt lat="50.25901" lon="1.80909">
        <ele>64.085464477539</ele>
        <time>2019-05-07T22:31:34.181Z</time>
      </trkpt>
      <trkpt lat="50.25887" lon="1.80902">
        <ele>64.421051025391</ele>
        <time>2019-05-07T22:31:40.622Z</time>
      </trkpt>
      <trkpt lat="50.25882" lon="1.8089">
        <ele>64.336166381836</ele>
        <time>2019-05-07T22:31:47.065Z</time>
      </trkpt>
      <trkpt lat="50.25869" lon="1.80869">
        <ele>64.975372314453</ele>
        <time>2019-05-07T22:31:53.512Z</time>
      </trkpt>
      <trkpt lat="50.25858" lon="1.80869">
        <ele>66.29027557373</ele>
        <time>2019-05-07T22:31:59.961Z</time>
      </trkpt>
      <trkpt lat="50.25846" lon="1.80865">
        <ele>67.583656311035</ele>
        <time>2019-05-07T22:32:06.412Z</time>
      </trkpt>
      <trkpt lat="50.25852" lon="1.80898">
        <ele>66.333221435547</ele>
        <time>2019-05-07T22:32:12.868Z</time>
      </trkpt>
      <trkpt lat="50.25874" lon="1.80928">
        <ele>66.009002685547</ele>
        <time>2019-05-07T22:32:19.330Z</time>
      </trkpt>
      <trkpt lat="50.25882" lon="1.80945">
        <ele>66.409477233887</ele>
        <time>2019-05-07T22:32:25.794Z</time>
      </trkpt>
      <trkpt lat="50.25895" lon="1.8097">
        <ele>67.158195495605</ele>
        <time>2019-05-07T22:32:32.262Z</time>
      </trkpt>
      <trkpt lat="50.25906" lon="1.81001">
        <ele>67.682350158691</ele>
        <time>2019-05-07T22:32:38.735Z</time>
      </trkpt>
      <trkpt lat="50.25909" lon="1.81025">
        <ele>67.567535400391</ele>
        <time>2019-05-07T22:32:45.211Z</time>
      </trkpt>
      <trkpt lat="50.25925" lon="1.81052">
        <ele>67.238487243652</ele>
        <time>2019-05-07T22:32:51.692Z</time>
      </trkpt>
      <trkpt lat="50.25929" lon="1.81082">
        <ele>67.121841430664</ele>
        <time>2019-05-07T22:32:58.177Z</time>
      </trkpt>
      <trkpt lat="50.25921" lon="1.81094">
        <ele>67.266059875488</ele>
        <time>2019-05-07T22:33:04.664Z</time>
      </trkpt>
      <trkpt lat="50.25906" lon="1.81098">
        <ele>67.31282043457</ele>
        <time>2019-05-07T22:33:11.154Z</time>
      </trkpt>
      <trkpt lat="50.25885" lon="1.81127">
        <ele>66.480438232422</ele>
        <time>2019-05-07T22:33:17.649Z</time>
      </trkpt>
      <trkpt lat="50.25877" lon="1.81146">
        <ele>65.927154541016</ele>
        <time>2019-05-07T22:33:24.147Z</time>
      </trkpt>
      <trkpt lat="50.25869" lon="1.81166">
        <ele>65.161293029785</ele>
        <time>2019-05-07T22:33:30.648Z</time>
      </trkpt>
      <trkpt lat="50.25857" lon="1.81188">
        <ele>64.093383789062</ele>
        <time>2019-05-07T22:33:37.153Z</time>
      </trkpt>
      <trkpt lat="50.25847" lon="1.81226">
        <ele>63.987457275391</ele>
        <time>2019-05-07T22:33:43.663Z</time>
      </trkpt>
      <trkpt lat="50.25837" lon="1.81247">
        <ele>64.086685180664</ele>
        <time>2019-05-07T22:33:50.177Z</time>
      </trkpt>
      <trkpt lat="50.25816" lon="1.81293">
        <ele>64.440246582031</ele>
        <time>2019-05-07T22:33:56.698Z</time>
      </trkpt>
      <trkpt lat="50.25807" lon="1.8131">
        <ele>64.813041687012</ele>
        <time>2019-05-07T22:34:03.222Z</time>
      </trkpt>
      <trkpt lat="50.25791" lon="1.81335">
        <ele>65.660766601562</ele>
        <time>2019-05-07T22:34:09.750Z</time>
      </trkpt>
      <trkpt lat="50.25794" lon="1.81357">
        <ele>66.331436157227</ele>
        <time>2019-05-07T22:34:16.281Z</time>
      </trkpt>
      <trkpt lat="50.25783" lon="1.81383">
        <ele>67.677917480469</ele>
        <time>2019-05-07T22:34:22.816Z</time>
      </trkpt>
      <trkpt lat="50.25776" lon="1.81416">
        <ele>69.209915161133</ele>
        <time>2019-05-07T22:34:29.356Z</time>
      </trkpt>
      <trkpt lat="50.25769" lon="1.81433">
        <ele>70.336059570312</ele>
        <time>2019-05-07T22:34:35.898Z</time>
      </trkpt>
      <trkpt lat="50.25759" lon="1.81459">
        <ele>71.895332336426</ele>
        <time>2019-05-07T22:34:42.444Z</time>
      </trkpt>
      <trkpt lat="50.25751" lon="1.8148">
        <ele>73.202995300293</ele>
        <time>2019-05-07T22:34:48.993Z</time>
      </trkpt>
      <trkpt lat="50.25747" lon="1.81496">
        <ele>73.658241271973</ele>
        <time>2019-05-07T22:34:55.545Z</time>
      </trkpt>
      <trkpt lat="50.25745" lon="1.81523">
        <ele>73.394355773926</ele>
        <time>2019-05-07T22:35:02.100Z</time>
      </trkpt>
      <trkpt lat="50.25737" lon="1.81537">
        <ele>73.25154876709</ele>
        <time>2019-05-07T22:35:08.658Z</time>
      </trkpt>
      <trkpt lat="50.25723" lon="1.81569">
        <ele>72.826354980469</ele>
        <time>2019-05-07T22:35:15.221Z</time>
      </trkpt>
      <trkpt lat="50.25706" lon="1.81599">
        <ele>72.529281616211</ele>
        <time>2019-05-07T22:35:21.789Z</time>
      </trkpt>
      <trkpt lat="50.25696" lon="1.8162">
        <ele>72.238243103027</ele>
        <time>2019-05-07T22:35:28.360Z</time>
      </trkpt>
      <trkpt lat="50.25695" lon="1.81638">
        <ele>71.860679626465</ele>
        <time>2019-05-07T22:35:34.933Z</time>
      </trkpt>
      <trkpt lat="50.2569" lon="1.81659">
        <ele>71.826644897461</ele>
        <time>2019-05-07T22:35:41.509Z</time>
      </trkpt>
      <trkpt lat="50.25682" lon="1.81693">
        <ele>72.104515075684</ele>
        <time>2019-05-07T22:35:48.090Z</time>
      </trkpt>
      <trkpt lat="50.25672" lon="1.8171">
        <ele>72.473190307617</ele>
        <time>2019-05-07T22:35:54.674Z</time>
      </trkpt>
      <trkpt lat="50.25663" lon="1.81731">
        <ele>72.796310424805</ele>
        <time>2019-05-07T22:36:01.261Z</time>
      </trkpt>
      <trkpt lat="50.2565" lon="1.81759">
        <ele>72.988998413086</ele>
        <time>2019-05-07T22:36:07.852Z</time>
      </trkpt>
      <trkpt lat="50.25642" lon="1.81787">
        <ele>72.943344116211</ele>
        <time>2019-05-07T22:36:14.447Z</time>
      </trkpt>
      <trkpt lat="50.25635" lon="1.81808">
        <ele>72.974220275879</ele>
        <time>2019-05-07T22:36:21.045Z</time>
      </trkpt>
      <trkpt lat="50.2562" lon="1.81838">
        <ele>73.02668762207</ele>
        <time>2019-05-07T22:36:27.648Z</time>
      </trkpt>
      <trkpt lat="50.25606" lon="1.81864">
        <ele>73.072441101074</ele>
        <time>2019-05-07T22:36:34.256Z</time>
      </trkpt>
      <trkpt lat="50.25596" lon="1.8189">
        <ele>72.982536315918</ele>
        <time>2019-05-07T22:36:40.868Z</time>
      </trkpt>
      <trkpt lat="50.25589" lon="1.81922">
        <ele>72.770042419434</ele>
        <time>2019-05-07T22:36:47.484Z</time>
      </trkpt>
      <trkpt lat="50.25578" lon="1.81935">
        <ele>72.883880615234</ele>
        <time>2019-05-07T22:36:54.103Z</time>
      </trkpt>
      <trkpt lat="50.25563" lon="1.81949">
        <ele>73.07536315918</ele>
        <time>2019-05-07T22:37:00.725Z</time>
      </trkpt>
      <trkpt lat="50.25551" lon="1.81981">
        <ele>72.971572875977</ele>
        <time>2019-05-07T22:37:07.352Z</time>
      </trkpt>
      <trkpt lat="50.25542" lon="1.82002">
        <ele>73.363647460938</ele>
        <time>2019-05-07T22:37:13.982Z</time>
      </trkpt>
      <trkpt lat="50.25519" lon="1.82039">
        <ele>74.919509887695</ele>
        <time>2019-05-07T22:37:20.619Z</time>
      </trkpt>
      <trkpt lat="50.25513" lon="1.8206">
        <ele>75.178901672363</ele>
        <time>2019-05-07T22:37:27.259Z</time>
      </trkpt>
      <trkpt lat="50.25503" lon="1.82075">
        <ele>75.578155517578</ele>
        <time>2019-05-07T22:37:33.902Z</time>
      </trkpt>
      <trkpt lat="50.25487" lon="1.82095">
        <ele>76.393142700195</ele>
        <time>2019-05-07T22:37:40.549Z</time>
      </trkpt>
      <trkpt lat="50.25477" lon="1.82115">
        <ele>76.317535400391</ele>
        <time>2019-05-07T22:37:47.199Z</time>
      </trkpt>
      <trkpt lat="50.25471" lon="1.82134">
        <ele>76.160957336426</ele>
        <time>2019-05-07T22:37:53.852Z</time>
      </trkpt>
      <trkpt lat="50.2545" lon="1.82155">
        <ele>76.008575439453</ele>
        <time>2019-05-07T22:38:00.510Z</time>
      </trkpt>
      <trkpt lat="50.2544" lon="1.82182">
        <ele>75.676948547363</ele>
        <time>2019-05-07T22:38:07.172Z</time>
      </trkpt>
      <trkpt lat="50.25433" lon="1.82195">
        <ele>75.524490356445</ele>
        <time>2019-05-07T22:38:13.836Z</time>
      </trkpt>
      <trkpt lat="50.25418" lon="1.8223">
        <ele>75.54133605957</ele>
        <time>2019-05-07T22:38:20.505Z</time>
      </trkpt>
      <trkpt lat="50.2541" lon="1.82258">
        <ele>75.173431396484</ele>
        <time>2019-05-07T22:38:27.178Z</time>
      </trkpt>
      <trkpt lat="50.25398" lon="1.82273">
        <ele>75.130165100098</ele>
        <time>2019-05-07T22:38:33.854Z</time>
      </trkpt>
      <trkpt lat="50.25386" lon="1.82294">
        <ele>75.172103881836</ele>
        <time>2019-05-07T22:38:40.534Z</time>
      </trkpt>
      <trkpt lat="50.25371" lon="1.82317">
        <ele>75.113456726074</ele>
        <time>2019-05-07T22:38:47.218Z</time>
      </trkpt>
      <trkpt lat="50.25365" lon="1.82338">
        <ele>74.609016418457</ele>
        <time>2019-05-07T22:38:53.905Z</time>
      </trkpt>
      <trkpt lat="50.2535" lon="1.82359">
        <ele>74.119857788086</ele>
        <time>2019-05-07T22:39:00.596Z</time>
      </trkpt>
      <trkpt lat="50.25346" lon="1.82375">
        <ele>73.73851776123</ele>
        <time>2019-05-07T22:39:07.289Z</time>
      </trkpt>
      <trkpt lat="50.25339" lon="1.82399">
        <ele>73.161262512207</ele>
        <time>2019-05-07T22:39:13.986Z</time>
      </trkpt>
      <trkpt lat="50.2533" lon="1.82409">
        <ele>72.922920227051</ele>
        <time>2019-05-07T22:39:20.685Z</time>
      </trkpt>
      <trkpt lat="50.2532" lon="1.82424">
        <ele>72.550430297852</ele>
        <time>2019-05-07T22:39:27.387Z</time>
      </trkpt>
      <trkpt lat="50.25309" lon="1.82453">
        <ele>71.44856262207</ele>
        <time>2019-05-07T22:39:34.093Z</time>
      </trkpt>
      <trkpt lat="50.25299" lon="1.82472">
        <ele>70.657302856445</ele>
        <time>2019-05-07T22:39:40.802Z</time>
      </trkpt>
      <trkpt lat="50.25291" lon="1.82486">
        <ele>69.966018676758</ele>
        <time>2019-05-07T22:39:47.514Z</time>
      </trkpt>
      <trkpt lat="50.25277" lon="1.82506">
        <ele>69.770866394043</ele>
        <time>2019-05-07T22:39:54.229Z</time>
      </trkpt>
      <trkpt lat="50.25266" lon="1.82523">
        <ele>69.643447875977</ele>
        <time>2019-05-07T22:40:00.947Z</time>
      </trkpt>
      <trkpt lat="50.25258" lon="1.82541">
        <ele>69.707954406738</ele>
        <time>2019-05-07T22:40:07.668Z</time>
      </trkpt>
      <trkpt lat="50.25248" lon="1.8256">
        <ele>70.285606384277</ele>
        <time>2019-05-07T22:40:14.392Z</time>
      </trkpt>
      <trkpt lat="50.2524" lon="1.82578">
        <ele>70.665390014648</ele>
        <time>2019-05-07T22:40:21.119Z</time>
      </trkpt>
      <trkpt lat="50.25234" lon="1.82598">
        <ele>70.895332336426</ele>
        <time>2019-05-07T22:40:27.849Z</time>
      </trkpt>
      <trkpt lat="50.25215" lon="1.82618">
        <ele>72.551361083984</ele>
        <time>2019-05-07T22:40:34.584Z</time>
      </trkpt>
      <trkpt lat="50.25208" lon="1.82628">
        <ele>73.217506408691</ele>
        <time>2019-05-07T22:40:41.320Z</time>
      </trkpt>
      <trkpt lat="50.25197" lon="1.82648">
        <ele>74.477401733398</ele>
        <time>2019-05-07T22:40:48.060Z</time>
      </trkpt>
      <trkpt lat="50.2518" lon="1.82676">
        <ele>76.036163330078</ele>
        <time>2019-05-07T22:40:54.805Z</time>
      </trkpt>
      <trkpt lat="50.2517" lon="1.82698">
        <ele>77.035987854004</ele>
        <time>2019-05-07T22:41:01.553Z</time>
      </trkpt>
      <trkpt lat="50.2516" lon="1.8272">
        <ele>77.66512298584</ele>
        <time>2019-05-07T22:41:08.305Z</time>
      </trkpt>
      <trkpt lat="50.25148" lon="1.8274">
        <ele>78.350517272949</ele>
        <time>2019-05-07T22:41:15.060Z</time>
      </trkpt>
      <trkpt lat="50.25142" lon="1.82754">
        <ele>78.881172180176</ele>
        <time>2019-05-07T22:41:21.817Z</time>
      </trkpt>
      <trkpt lat="50.25133" lon="1.8277">
        <ele>79.27840423584</ele>
        <time>2019-05-07T22:41:28.577Z</time>
      </trkpt>
      <trkpt lat="50.25122" lon="1.82805">
        <ele>79.799736022949</ele>
        <time>2019-05-07T22:41:35.342Z</time>
      </trkpt>
      <trkpt lat="50.25106" lon="1.82829">
        <ele>79.643127441406</ele>
        <time>2019-05-07T22:41:42.112Z</time>
      </trkpt>
      <trkpt lat="50.25101" lon="1.82849">
        <ele>79.346450805664</ele>
        <time>2019-05-07T22:41:48.884Z</time>
      </trkpt>
      <trkpt lat="50.25094" lon="1.82873">
        <ele>79</ele>
        <time>2019-05-07T22:41:55.660Z</time>
      </trkpt>
      <trkpt lat="50.25081" lon="1.82891">
        <ele>79</ele>
        <time>2019-05-07T22:42:02.439Z</time>
      </trkpt>
      <trkpt lat="50.25069" lon="1.82908">
        <ele>78.972045898438</ele>
        <time>2019-05-07T22:42:09.221Z</time>
      </trkpt>
      <trkpt lat="50.25051" lon="1.82925">
        <ele>78.93677520752</ele>
        <time>2019-05-07T22:42:16.008Z</time>
      </trkpt>
      <trkpt lat="50.25042" lon="1.82938">
        <ele>79.093383789062</ele>
        <time>2019-05-07T22:42:22.797Z</time>
      </trkpt>
      <trkpt lat="50.25037" lon="1.82954">
        <ele>79.214263916016</ele>
        <time>2019-05-07T22:42:29.588Z</time>
      </trkpt>
      <trkpt lat="50.25032" lon="1.82974">
        <ele>79.345001220703</ele>
        <time>2019-05-07T22:42:36.382Z</time>
      </trkpt>
      <trkpt lat="50.25021" lon="1.83006">
        <ele>79.302429199219</ele>
        <time>2019-05-07T22:42:43.181Z</time>
      </trkpt>
      <trkpt lat="50.25003" lon="1.83034">
        <ele>79.455810546875</ele>
        <time>2019-05-07T22:42:49.985Z</time>
      </trkpt>
      <trkpt lat="50.24988" lon="1.83065">
        <ele>79.091461181641</ele>
        <time>2019-05-07T22:42:56.794Z</time>
      </trkpt>
      <trkpt lat="50.24974" lon="1.8309">
        <ele>78.703063964844</ele>
        <time>2019-05-07T22:43:03.607Z</time>
      </trkpt>
      <trkpt lat="50.24953" lon="1.83131">
        <ele>77.266860961914</ele>
        <time>2019-05-07T22:43:10.427Z</time>
      </trkpt>
      <trkpt lat="50.24932" lon="1.83161">
        <ele>74.249862670898</ele>
        <time>2019-05-07T22:43:17.252Z</time>
      </trkpt>
      <trkpt lat="50.24922" lon="1.83173">
        <ele>72.976295471191</ele>
        <time>2019-05-07T22:43:24.080Z</time>
      </trkpt>
      <trkpt lat="50.24911" lon="1.83192">
        <ele>71.455978393555</ele>
        <time>2019-05-07T22:43:30.911Z</time>
      </trkpt>
      <trkpt lat="50.24898" lon="1.83211">
        <ele>70.484008789062</ele>
        <time>2019-05-07T22:43:37.746Z</time>
      </trkpt>
      <trkpt lat="50.24885" lon="1.8323">
        <ele>69.465469360352</ele>
        <time>2019-05-07T22:43:44.584Z</time>
      </trkpt>
      <trkpt lat="50.24876" lon="1.83242">
        <ele>68.87670135498</ele>
        <time>2019-05-07T22:43:51.425Z</time>
      </trkpt>
      <trkpt lat="50.24862" lon="1.83259">
        <ele>68.304077148438</ele>
        <time>2019-05-07T22:43:58.269Z</time>
      </trkpt>
      <trkpt lat="50.24845" lon="1.83285">
        <ele>67.495223999023</ele>
        <time>2019-05-07T22:44:05.118Z</time>
      </trkpt>
      <trkpt lat="50.24828" lon="1.83303">
        <ele>67.990692138672</ele>
        <time>2019-05-07T22:44:11.971Z</time>
      </trkpt>
      <trkpt lat="50.24824" lon="1.83318">
        <ele>68.275993347168</ele>
        <time>2019-05-07T22:44:18.826Z</time>
      </trkpt>
      <trkpt lat="50.24813" lon="1.83328">
        <ele>68.731201171875</ele>
        <time>2019-05-07T22:44:25.684Z</time>
      </trkpt>
      <trkpt lat="50.248" lon="1.83346">
        <ele>69.232864379883</ele>
        <time>2019-05-07T22:44:32.545Z</time>
      </trkpt>
      <trkpt lat="50.24782" lon="1.83368">
        <ele>70.031295776367</ele>
        <time>2019-05-07T22:44:39.411Z</time>
      </trkpt>
      <trkpt lat="50.24762" lon="1.8339">
        <ele>70.803955078125</ele>
        <time>2019-05-07T22:44:46.282Z</time>
      </trkpt>
      <trkpt lat="50.24755" lon="1.83401">
        <ele>70.989204406738</ele>
        <time>2019-05-07T22:44:53.155Z</time>
      </trkpt>
      <trkpt lat="50.24734" lon="1.83428">
        <ele>71.76091003418</ele>
        <time>2019-05-07T22:45:00.033Z</time>
      </trkpt>
      <trkpt lat="50.24727" lon="1.83441">
        <ele>72.085639953613</ele>
        <time>2019-05-07T22:45:06.913Z</time>
      </trkpt>
      <trkpt lat="50.24715" lon="1.83456">
        <ele>72.535675048828</ele>
        <time>2019-05-07T22:45:13.796Z</time>
      </trkpt>
      <trkpt lat="50.2472" lon="1.83498">
        <ele>72.962760925293</ele>
        <time>2019-05-07T22:45:20.685Z</time>
      </trkpt>
      <trkpt lat="50.2471" lon="1.83521">
        <ele>74.29264831543</ele>
        <time>2019-05-07T22:45:27.577Z</time>
      </trkpt>
      <trkpt lat="50.247" lon="1.83537">
        <ele>75.325660705566</ele>
        <time>2019-05-07T22:45:34.472Z</time>
      </trkpt>
      <trkpt lat="50.2469" lon="1.83552">
        <ele>76.297897338867</ele>
        <time>2019-05-07T22:45:41.370Z</time>
      </trkpt>
      <trkpt lat="50.24682" lon="1.83569">
        <ele>76.708808898926</ele>
        <time>2019-05-07T22:45:48.271Z</time>
      </trkpt>
      <trkpt lat="50.24678" lon="1.83586">
        <ele>77.322914123535</ele>
        <time>2019-05-07T22:45:55.174Z</time>
      </trkpt>
      <trkpt lat="50.24666" lon="1.83609">
        <ele>78.442718505859</ele>
        <time>2019-05-07T22:46:02.081Z</time>
      </trkpt>
      <trkpt lat="50.24654" lon="1.83631">
        <ele>79.106155395508</ele>
        <time>2019-05-07T22:46:08.992Z</time>
      </trkpt>
      <trkpt lat="50.24646" lon="1.83649">
        <ele>79.63020324707</ele>
        <time>2019-05-07T22:46:15.905Z</time>
      </trkpt>
      <trkpt lat="50.24638" lon="1.83667">
        <ele>80</ele>
        <time>2019-05-07T22:46:22.821Z</time>
      </trkpt>
      <trkpt lat="50.24625" lon="1.83685">
        <ele>79.949241638184</ele>
        <time>2019-05-07T22:46:29.741Z</time>
      </trkpt>
      <trkpt lat="50.24615" lon="1.83696">
        <ele>79.824638366699</ele>
        <time>2019-05-07T22:46:36.663Z</time>
      </trkpt>
      <trkpt lat="50.24605" lon="1.83713">
        <ele>79.71321105957</ele>
        <time>2019-05-07T22:46:43.588Z</time>
      </trkpt>
      <trkpt lat="50.24594" lon="1.83722">
        <ele>79.576438903809</ele>
        <time>2019-05-07T22:46:50.516Z</time>
      </trkpt>
      <trkpt lat="50.24587" lon="1.83736">
        <ele>79.490859985352</ele>
        <time>2019-05-07T22:46:57.446Z</time>
      </trkpt>
      <trkpt lat="50.24577" lon="1.83744">
        <ele>79.435333251953</ele>
        <time>2019-05-07T22:47:04.378Z</time>
      </trkpt>
      <trkpt lat="50.24562" lon="1.83757">
        <ele>79.417930603027</ele>
        <time>2019-05-07T22:47:11.314Z</time>
      </trkpt>
      <trkpt lat="50.24557" lon="1.83775">
        <ele>79.57341003418</ele>
        <time>2019-05-07T22:47:18.252Z</time>
      </trkpt>
      <trkpt lat="50.24551" lon="1.83786">
        <ele>79.634651184082</ele>
        <time>2019-05-07T22:47:25.192Z</time>
      </trkpt>
      <trkpt lat="50.24542" lon="1.83798">
        <ele>79.626098632812</ele>
        <time>2019-05-07T22:47:32.134Z</time>
      </trkpt>
      <trkpt lat="50.24534" lon="1.83809">
        <ele>79.55379486084</ele>
        <time>2019-05-07T22:47:39.078Z</time>
      </trkpt>
      <trkpt lat="50.2449" lon="1.8388">
        <ele>78.672721862793</ele>
        <time>2019-05-07T22:47:46.035Z</time>
      </trkpt>
      <trkpt lat="50.24481" lon="1.83897">
        <ele>78.447456359863</ele>
        <time>2019-05-07T22:47:52.995Z</time>
      </trkpt>
      <trkpt lat="50.24467" lon="1.83922">
        <ele>78.181221008301</ele>
        <time>2019-05-07T22:47:59.959Z</time>
      </trkpt>
      <trkpt lat="50.24454" lon="1.83942">
        <ele>77.795181274414</ele>
        <time>2019-05-07T22:48:06.927Z</time>
      </trkpt>
      <trkpt lat="50.24441" lon="1.8396">
        <ele>77.486442565918</ele>
        <time>2019-05-07T22:48:13.898Z</time>
      </trkpt>
      <trkpt lat="50.24427" lon="1.83981">
        <ele>77.159400939941</ele>
        <time>2019-05-07T22:48:20.873Z</time>
      </trkpt>
      <trkpt lat="50.2442" lon="1.83995">
        <ele>76.978988647461</ele>
        <time>2019-05-07T22:48:27.851Z</time>
      </trkpt>
      <trkpt lat="50.24409" lon="1.84006">
        <ele>76.72395324707</ele>
        <time>2019-05-07T22:48:34.831Z</time>
      </trkpt>
      <trkpt lat="50.24396" lon="1.84026">
        <ele>76.414413452148</ele>
        <time>2019-05-07T22:48:41.815Z</time>
      </trkpt>
      <trkpt lat="50.24386" lon="1.84042">
        <ele>76.173454284668</ele>
        <time>2019-05-07T22:48:48.802Z</time>
      </trkpt>
      <trkpt lat="50.24374" lon="1.84056">
        <ele>75.86612701416</ele>
        <time>2019-05-07T22:48:55.792Z</time>
      </trkpt>
      <trkpt lat="50.24365" lon="1.8407">
        <ele>75.942878723145</ele>
        <time>2019-05-07T22:49:02.784Z</time>
      </trkpt>
      <trkpt lat="50.24356" lon="1.84086">
        <ele>76</ele>
        <time>2019-05-07T22:49:09.779Z</time>
      </trkpt>
      <trkpt lat="50.24346" lon="1.84098">
        <ele>76</ele>
        <time>2019-05-07T22:49:16.776Z</time>
      </trkpt>
      <trkpt lat="50.24339" lon="1.8411">
        <ele>76</ele>
        <time>2019-05-07T22:49:23.776Z</time>
      </trkpt>
      <trkpt lat="50.24334" lon="1.84127">
        <ele>76.397216796875</ele>
        <time>2019-05-07T22:49:30.778Z</time>
      </trkpt>
      <trkpt lat="50.24321" lon="1.84137">
        <ele>76.936653137207</ele>
        <time>2019-05-07T22:49:37.783Z</time>
      </trkpt>
      <trkpt lat="50.2431" lon="1.84146">
        <ele>77.419769287109</ele>
        <time>2019-05-07T22:49:44.790Z</time>
      </trkpt>
      <trkpt lat="50.24295" lon="1.84163">
        <ele>78.100776672363</ele>
        <time>2019-05-07T22:49:51.801Z</time>
      </trkpt>
      <trkpt lat="50.24282" lon="1.84179">
        <ele>78.602401733398</ele>
        <time>2019-05-07T22:49:58.815Z</time>
      </trkpt>
      <trkpt lat="50.24273" lon="1.84202">
        <ele>79.098991394043</ele>
        <time>2019-05-07T22:50:05.833Z</time>
      </trkpt>
      <trkpt lat="50.24265" lon="1.84219">
        <ele>79.36353302002</ele>
        <time>2019-05-07T22:50:12.853Z</time>
      </trkpt>
      <trkpt lat="50.24258" lon="1.84232">
        <ele>79.452033996582</ele>
        <time>2019-05-07T22:50:19.876Z</time>
      </trkpt>
      <trkpt lat="50.24251" lon="1.84256">
        <ele>79.932754516602</ele>
        <time>2019-05-07T22:50:26.902Z</time>
      </trkpt>
      <trkpt lat="50.24242" lon="1.8427">
        <ele>80.368835449219</ele>
        <time>2019-05-07T22:50:33.931Z</time>
      </trkpt>
      <trkpt lat="50.24227" lon="1.84286">
        <ele>80.563827514648</ele>
        <time>2019-05-07T22:50:40.963Z</time>
      </trkpt>
      <trkpt lat="50.24219" lon="1.84299">
        <ele>80.723030090332</ele>
        <time>2019-05-07T22:50:47.998Z</time>
      </trkpt>
      <trkpt lat="50.24209" lon="1.84312">
        <ele>80.834434509277</ele>
        <time>2019-05-07T22:50:55.035Z</time>
      </trkpt>
      <trkpt lat="50.24201" lon="1.84323">
        <ele>80.582389831543</ele>
        <time>2019-05-07T22:51:02.074Z</time>
      </trkpt>
      <trkpt lat="50.24181" lon="1.84355">
        <ele>79.853492736816</ele>
        <time>2019-05-07T22:51:09.119Z</time>
      </trkpt>
      <trkpt lat="50.24168" lon="1.84372">
        <ele>79.517532348633</ele>
        <time>2019-05-07T22:51:16.168Z</time>
      </trkpt>
      <trkpt lat="50.24157" lon="1.8439">
        <ele>79.490882873535</ele>
        <time>2019-05-07T22:51:23.220Z</time>
      </trkpt>
      <trkpt lat="50.24144" lon="1.84402">
        <ele>79.327964782715</ele>
        <time>2019-05-07T22:51:30.275Z</time>
      </trkpt>
      <trkpt lat="50.24134" lon="1.84425">
        <ele>79.336715698242</ele>
        <time>2019-05-07T22:51:37.333Z</time>
      </trkpt>
      <trkpt lat="50.24122" lon="1.84446">
        <ele>79.139305114746</ele>
        <time>2019-05-07T22:51:44.395Z</time>
      </trkpt>
      <trkpt lat="50.2411" lon="1.84466">
        <ele>78.788230895996</ele>
        <time>2019-05-07T22:51:51.460Z</time>
      </trkpt>
      <trkpt lat="50.24096" lon="1.84486">
        <ele>77.667343139648</ele>
        <time>2019-05-07T22:51:58.529Z</time>
      </trkpt>
      <trkpt lat="50.24081" lon="1.84504">
        <ele>75.98518371582</ele>
        <time>2019-05-07T22:52:05.602Z</time>
      </trkpt>
      <trkpt lat="50.2407" lon="1.84517">
        <ele>74.799827575684</ele>
        <time>2019-05-07T22:52:12.678Z</time>
      </trkpt>
      <trkpt lat="50.24059" lon="1.84531">
        <ele>73.813583374023</ele>
        <time>2019-05-07T22:52:19.756Z</time>
      </trkpt>
      <trkpt lat="50.24042" lon="1.84556">
        <ele>72.142601013184</ele>
        <time>2019-05-07T22:52:26.839Z</time>
      </trkpt>
      <trkpt lat="50.24027" lon="1.84576">
        <ele>71.039337158203</ele>
        <time>2019-05-07T22:52:33.926Z</time>
      </trkpt>
      <trkpt lat="50.24015" lon="1.84597">
        <ele>69.940155029297</ele>
        <time>2019-05-07T22:52:41.017Z</time>
      </trkpt>
      <trkpt lat="50.24005" lon="1.84618">
        <ele>69.057723999023</ele>
        <time>2019-05-07T22:52:48.111Z</time>
      </trkpt>
      <trkpt lat="50.23992" lon="1.84635">
        <ele>69.108306884766</ele>
        <time>2019-05-07T22:52:55.209Z</time>
      </trkpt>
      <trkpt lat="50.23975" lon="1.84659">
        <ele>69.149230957031</ele>
        <time>2019-05-07T22:53:02.311Z</time>
      </trkpt>
      <trkpt lat="50.23959" lon="1.84679">
        <ele>69.320213317871</ele>
        <time>2019-05-07T22:53:09.417Z</time>
      </trkpt>
      <trkpt lat="50.23942" lon="1.84701">
        <ele>69.7861328125</ele>
        <time>2019-05-07T22:53:16.528Z</time>
      </trkpt>
      <trkpt lat="50.23928" lon="1.84722">
        <ele>70.402938842773</ele>
        <time>2019-05-07T22:53:23.642Z</time>
      </trkpt>
      <trkpt lat="50.23919" lon="1.84734">
        <ele>70.932723999023</ele>
        <time>2019-05-07T22:53:30.759Z</time>
      </trkpt>
      <trkpt lat="50.23907" lon="1.84753">
        <ele>71.489624023438</ele>
        <time>2019-05-07T22:53:37.879Z</time>
      </trkpt>
      <trkpt lat="50.23895" lon="1.84769">
        <ele>72.311988830566</ele>
        <time>2019-05-07T22:53:45.003Z</time>
      </trkpt>
      <trkpt lat="50.23889" lon="1.84783">
        <ele>73.104248046875</ele>
        <time>2019-05-07T22:53:52.129Z</time>
      </trkpt>
      <trkpt lat="50.23881" lon="1.848">
        <ele>74.089996337891</ele>
        <time>2019-05-07T22:53:59.257Z</time>
      </trkpt>
      <trkpt lat="50.23872" lon="1.84819">
        <ele>75.417030334473</ele>
        <time>2019-05-07T22:54:06.388Z</time>
      </trkpt>
      <trkpt lat="50.23862" lon="1.84828">
        <ele>76.363403320312</ele>
        <time>2019-05-07T22:54:13.522Z</time>
      </trkpt>
      <trkpt lat="50.23853" lon="1.84842">
        <ele>77.357192993164</ele>
        <time>2019-05-07T22:54:20.658Z</time>
      </trkpt>
      <trkpt lat="50.23842" lon="1.84859">
        <ele>78.515510559082</ele>
        <time>2019-05-07T22:54:27.797Z</time>
      </trkpt>
      <trkpt lat="50.23832" lon="1.84868">
        <ele>79.278564453125</ele>
        <time>2019-05-07T22:54:34.939Z</time>
      </trkpt>
      <trkpt lat="50.2382" lon="1.84888">
        <ele>79.817192077637</ele>
        <time>2019-05-07T22:54:42.084Z</time>
      </trkpt>
      <trkpt lat="50.23804" lon="1.84912">
        <ele>80.829360961914</ele>
        <time>2019-05-07T22:54:49.234Z</time>
      </trkpt>
      <trkpt lat="50.23791" lon="1.84938">
        <ele>81.434997558594</ele>
        <time>2019-05-07T22:54:56.388Z</time>
      </trkpt>
      <trkpt lat="50.23784" lon="1.84951">
        <ele>81.688529968262</ele>
        <time>2019-05-07T22:55:03.544Z</time>
      </trkpt>
      <trkpt lat="50.23777" lon="1.84964">
        <ele>81.917816162109</ele>
        <time>2019-05-07T22:55:10.702Z</time>
      </trkpt>
      <trkpt lat="50.23765" lon="1.84987">
        <ele>81.313171386719</ele>
        <time>2019-05-07T22:55:17.864Z</time>
      </trkpt>
      <trkpt lat="50.23749" lon="1.85013">
        <ele>80.034957885742</ele>
        <time>2019-05-07T22:55:25.031Z</time>
      </trkpt>
      <trkpt lat="50.23729" lon="1.85042">
        <ele>78.053497314453</ele>
        <time>2019-05-07T22:55:32.203Z</time>
      </trkpt>
      <trkpt lat="50.23718" lon="1.85061">
        <ele>76.77027130127</ele>
        <time>2019-05-07T22:55:39.378Z</time>
      </trkpt>
      <trkpt lat="50.23702" lon="1.85084">
        <ele>74.688926696777</ele>
        <time>2019-05-07T22:55:46.558Z</time>
      </trkpt>
      <trkpt lat="50.23687" lon="1.85103">
        <ele>72.650955200195</ele>
        <time>2019-05-07T22:55:53.742Z</time>
      </trkpt>
      <trkpt lat="50.23671" lon="1.85121">
        <ele>70.759346008301</ele>
        <time>2019-05-07T22:56:00.930Z</time>
      </trkpt>
      <trkpt lat="50.2366" lon="1.85143">
        <ele>69.60897064209</ele>
        <time>2019-05-07T22:56:08.121Z</time>
      </trkpt>
      <trkpt lat="50.2365" lon="1.85159">
        <ele>68.661109924316</ele>
        <time>2019-05-07T22:56:15.315Z</time>
      </trkpt>
      <trkpt lat="50.23635" lon="1.85174">
        <ele>68.070678710938</ele>
        <time>2019-05-07T22:56:22.513Z</time>
      </trkpt>
      <trkpt lat="50.23625" lon="1.85189">
        <ele>68.088134765625</ele>
        <time>2019-05-07T22:56:29.713Z</time>
      </trkpt>
      <trkpt lat="50.23615" lon="1.85202">
        <ele>68.329093933105</ele>
        <time>2019-05-07T22:56:36.916Z</time>
      </trkpt>
      <trkpt lat="50.23597" lon="1.85224">
        <ele>68.958763122559</ele>
        <time>2019-05-07T22:56:44.124Z</time>
      </trkpt>
      <trkpt lat="50.23583" lon="1.85242">
        <ele>69.699935913086</ele>
        <time>2019-05-07T22:56:51.335Z</time>
      </trkpt>
      <trkpt lat="50.23568" lon="1.85261">
        <ele>70.470672607422</ele>
        <time>2019-05-07T22:56:58.550Z</time>
      </trkpt>
      <trkpt lat="50.23557" lon="1.85271">
        <ele>71.228698730469</ele>
        <time>2019-05-07T22:57:05.768Z</time>
      </trkpt>
      <trkpt lat="50.23545" lon="1.85286">
        <ele>72.172103881836</ele>
        <time>2019-05-07T22:57:12.989Z</time>
      </trkpt>
      <trkpt lat="50.23531" lon="1.85305">
        <ele>73.634536743164</ele>
        <time>2019-05-07T22:57:20.213Z</time>
      </trkpt>
      <trkpt lat="50.23522" lon="1.85324">
        <ele>75.609573364258</ele>
        <time>2019-05-07T22:57:27.440Z</time>
      </trkpt>
      <trkpt lat="50.23512" lon="1.85347">
        <ele>77.770935058594</ele>
        <time>2019-05-07T22:57:34.671Z</time>
      </trkpt>
      <trkpt lat="50.23498" lon="1.8537">
        <ele>79.997230529785</ele>
        <time>2019-05-07T22:57:41.906Z</time>
      </trkpt>
      <trkpt lat="50.23492" lon="1.85382">
        <ele>80.599723815918</ele>
        <time>2019-05-07T22:57:49.143Z</time>
      </trkpt>
      <trkpt lat="50.23481" lon="1.85403">
        <ele>81.617752075195</ele>
        <time>2019-05-07T22:57:56.384Z</time>
      </trkpt>
      <trkpt lat="50.23473" lon="1.85415">
        <ele>82.630645751953</ele>
        <time>2019-05-07T22:58:03.627Z</time>
      </trkpt>
      <trkpt lat="50.23466" lon="1.85424">
        <ele>83.285446166992</ele>
        <time>2019-05-07T22:58:10.872Z</time>
      </trkpt>
      <trkpt lat="50.23454" lon="1.85445">
        <ele>84.243659973145</ele>
        <time>2019-05-07T22:58:18.120Z</time>
      </trkpt>
      <trkpt lat="50.23453" lon="1.8546">
        <ele>84.617668151855</ele>
        <time>2019-05-07T22:58:25.370Z</time>
      </trkpt>
      <trkpt lat="50.23449" lon="1.85474">
        <ele>85.102493286133</ele>
        <time>2019-05-07T22:58:32.622Z</time>
      </trkpt>
      <trkpt lat="50.2344" lon="1.85487">
        <ele>85.032089233398</ele>
        <time>2019-05-07T22:58:39.877Z</time>
      </trkpt>
      <trkpt lat="50.23451" lon="1.85493">
        <ele>85</ele>
        <time>2019-05-07T22:58:47.134Z</time>
      </trkpt>
      <trkpt lat="50.23463" lon="1.85496">
        <ele>84.975196838379</ele>
        <time>2019-05-07T22:58:54.393Z</time>
      </trkpt>
      <trkpt lat="50.23476" lon="1.85501">
        <ele>84.481994628906</ele>
        <time>2019-05-07T22:59:01.655Z</time>
      </trkpt>
      <trkpt lat="50.23489" lon="1.85513">
        <ele>83.97966003418</ele>
        <time>2019-05-07T22:59:08.920Z</time>
      </trkpt>
      <trkpt lat="50.23513" lon="1.85539">
        <ele>83.153511047363</ele>
        <time>2019-05-07T22:59:16.191Z</time>
      </trkpt>
      <trkpt lat="50.23533" lon="1.85558">
        <ele>82.413650512695</ele>
        <time>2019-05-07T22:59:23.467Z</time>
      </trkpt>
      <trkpt lat="50.23542" lon="1.85569">
        <ele>82.120498657227</ele>
        <time>2019-05-07T22:59:30.745Z</time>
      </trkpt>
      <trkpt lat="50.23534" lon="1.856">
        <ele>83.090225219727</ele>
        <time>2019-05-07T22:59:38.027Z</time>
      </trkpt>
      <trkpt lat="50.23528" lon="1.85613">
        <ele>83.595268249512</ele>
        <time>2019-05-07T22:59:45.311Z</time>
      </trkpt>
      <trkpt lat="50.2352" lon="1.85629">
        <ele>84.287368774414</ele>
        <time>2019-05-07T22:59:52.598Z</time>
      </trkpt>
      <trkpt lat="50.23509" lon="1.85649">
        <ele>84.806686401367</ele>
        <time>2019-05-07T22:59:59.888Z</time>
      </trkpt>
      <trkpt lat="50.23501" lon="1.85662">
        <ele>85.22730255127</ele>
        <time>2019-05-07T23:00:07.181Z</time>
      </trkpt>
      <trkpt lat="50.23494" lon="1.85672">
        <ele>85.6201171875</ele>
        <time>2019-05-07T23:00:14.476Z</time>
      </trkpt>
      <trkpt lat="50.23489" lon="1.85689">
        <ele>86.076858520508</ele>
        <time>2019-05-07T23:00:21.773Z</time>
      </trkpt>
      <trkpt lat="50.23471" lon="1.85719">
        <ele>86.655822753906</ele>
        <time>2019-05-07T23:00:29.075Z</time>
      </trkpt>
      <trkpt lat="50.23453" lon="1.85737">
        <ele>87.079299926758</ele>
        <time>2019-05-07T23:00:36.382Z</time>
      </trkpt>
      <trkpt lat="50.23447" lon="1.85752">
        <ele>87.339973449707</ele>
        <time>2019-05-07T23:00:43.691Z</time>
      </trkpt>
      <trkpt lat="50.23439" lon="1.8576">
        <ele>87.52400970459</ele>
        <time>2019-05-07T23:00:51.002Z</time>
      </trkpt>
      <trkpt lat="50.23427" lon="1.8578">
        <ele>87.906158447266</ele>
        <time>2019-05-07T23:00:58.316Z</time>
      </trkpt>
      <trkpt lat="50.23421" lon="1.85801">
        <ele>88.468002319336</ele>
        <time>2019-05-07T23:01:05.633Z</time>
      </trkpt>
      <trkpt lat="50.23415" lon="1.85812">
        <ele>88.876502990723</ele>
        <time>2019-05-07T23:01:12.952Z</time>
      </trkpt>
      <trkpt lat="50.23403" lon="1.85829">
        <ele>89.483917236328</ele>
        <time>2019-05-07T23:01:20.274Z</time>
      </trkpt>
      <trkpt lat="50.23393" lon="1.8584">
        <ele>89.882965087891</ele>
        <time>2019-05-07T23:01:27.599Z</time>
      </trkpt>
      <trkpt lat="50.23386" lon="1.85854">
        <ele>90.208396911621</ele>
        <time>2019-05-07T23:01:34.926Z</time>
      </trkpt>
      <trkpt lat="50.23361" lon="1.85875">
        <ele>91.05265045166</ele>
        <time>2019-05-07T23:01:42.259Z</time>
      </trkpt>
      <trkpt lat="50.23352" lon="1.85893">
        <ele>91.32674407959</ele>
        <time>2019-05-07T23:01:49.595Z</time>
      </trkpt>
      <trkpt lat="50.23347" lon="1.85913">
        <ele>91.541122436523</ele>
        <time>2019-05-07T23:01:56.933Z</time>
      </trkpt>
      <trkpt lat="50.23336" lon="1.85924">
        <ele>91.951431274414</ele>
        <time>2019-05-07T23:02:04.274Z</time>
      </trkpt>
      <trkpt lat="50.23326" lon="1.85941">
        <ele>92.306114196777</ele>
        <time>2019-05-07T23:02:11.618Z</time>
      </trkpt>
      <trkpt lat="50.2332" lon="1.85958">
        <ele>91.966102600098</ele>
        <time>2019-05-07T23:02:18.964Z</time>
      </trkpt>
      <trkpt lat="50.23313" lon="1.85967">
        <ele>91.690147399902</ele>
        <time>2019-05-07T23:02:26.312Z</time>
      </trkpt>
      <trkpt lat="50.23304" lon="1.85981">
        <ele>91.311515808105</ele>
        <time>2019-05-07T23:02:33.663Z</time>
      </trkpt>
      <trkpt lat="50.23281" lon="1.86013">
        <ele>89.151992797852</ele>
        <time>2019-05-07T23:02:41.020Z</time>
      </trkpt>
      <trkpt lat="50.23264" lon="1.8604">
        <ele>87.02481842041</ele>
        <time>2019-05-07T23:02:48.382Z</time>
      </trkpt>
      <trkpt lat="50.2325" lon="1.86061">
        <ele>85.768379211426</ele>
        <time>2019-05-07T23:02:55.748Z</time>
      </trkpt>
      <trkpt lat="50.23235" lon="1.86086">
        <ele>84.195426940918</ele>
        <time>2019-05-07T23:03:03.118Z</time>
      </trkpt>
      <trkpt lat="50.23227" lon="1.861">
        <ele>83.380599975586</ele>
        <time>2019-05-07T23:03:10.490Z</time>
      </trkpt>
      <trkpt lat="50.23213" lon="1.86119">
        <ele>82.342658996582</ele>
        <time>2019-05-07T23:03:17.866Z</time>
      </trkpt>
      <trkpt lat="50.23197" lon="1.86144">
        <ele>81.234161376953</ele>
        <time>2019-05-07T23:03:25.247Z</time>
      </trkpt>
      <trkpt lat="50.23183" lon="1.86167">
        <ele>82.300559997559</ele>
        <time>2019-05-07T23:03:32.632Z</time>
      </trkpt>
      <trkpt lat="50.23166" lon="1.86187">
        <ele>83.409004211426</ele>
        <time>2019-05-07T23:03:40.021Z</time>
      </trkpt>
      <trkpt lat="50.23157" lon="1.86202">
        <ele>84.291084289551</ele>
        <time>2019-05-07T23:03:47.413Z</time>
      </trkpt>
      <trkpt lat="50.23151" lon="1.86214">
        <ele>85.024810791016</ele>
        <time>2019-05-07T23:03:54.807Z</time>
      </trkpt>
      <trkpt lat="50.23142" lon="1.86226">
        <ele>85.875602722168</ele>
        <time>2019-05-07T23:04:02.203Z</time>
      </trkpt>
      <trkpt lat="50.23134" lon="1.86243">
        <ele>86.891021728516</ele>
        <time>2019-05-07T23:04:09.602Z</time>
      </trkpt>
      <trkpt lat="50.23122" lon="1.86258">
        <ele>88.330665588379</ele>
        <time>2019-05-07T23:04:17.004Z</time>
      </trkpt>
      <trkpt lat="50.23108" lon="1.86272">
        <ele>89.822563171387</ele>
        <time>2019-05-07T23:04:24.409Z</time>
      </trkpt>
      <trkpt lat="50.23093" lon="1.86297">
        <ele>91.43172454834</ele>
        <time>2019-05-07T23:04:31.819Z</time>
      </trkpt>
      <trkpt lat="50.23071" lon="1.86318">
        <ele>91.69450378418</ele>
        <time>2019-05-07T23:04:39.234Z</time>
      </trkpt>
      <trkpt lat="50.2306" lon="1.86339">
        <ele>91.831878662109</ele>
        <time>2019-05-07T23:04:46.652Z</time>
      </trkpt>
      <trkpt lat="50.23052" lon="1.86354">
        <ele>91.922889709473</ele>
        <time>2019-05-07T23:04:54.073Z</time>
      </trkpt>
      <trkpt lat="50.23037" lon="1.86368">
        <ele>91.89136505127</ele>
        <time>2019-05-07T23:05:01.497Z</time>
      </trkpt>
      <trkpt lat="50.23031" lon="1.86383">
        <ele>91.821166992188</ele>
        <time>2019-05-07T23:05:08.924Z</time>
      </trkpt>
      <trkpt lat="50.23029" lon="1.86402">
        <ele>91.800048828125</ele>
        <time>2019-05-07T23:05:16.353Z</time>
      </trkpt>
      <trkpt lat="50.23019" lon="1.86413">
        <ele>91.677963256836</ele>
        <time>2019-05-07T23:05:23.784Z</time>
      </trkpt>
      <trkpt lat="50.23001" lon="1.86439">
        <ele>91.459632873535</ele>
        <time>2019-05-07T23:05:31.220Z</time>
      </trkpt>
      <trkpt lat="50.22987" lon="1.86457">
        <ele>91.292190551758</ele>
        <time>2019-05-07T23:05:38.660Z</time>
      </trkpt>
      <trkpt lat="50.22978" lon="1.86472">
        <ele>91.184288024902</ele>
        <time>2019-05-07T23:05:46.103Z</time>
      </trkpt>
      <trkpt lat="50.2297" lon="1.86487">
        <ele>91.094177246094</ele>
        <time>2019-05-07T23:05:53.548Z</time>
      </trkpt>
      <trkpt lat="50.22963" lon="1.86501">
        <ele>91.005279541016</ele>
        <time>2019-05-07T23:06:00.995Z</time>
      </trkpt>
      <trkpt lat="50.22953" lon="1.86517">
        <ele>90.783882141113</ele>
        <time>2019-05-07T23:06:08.445Z</time>
      </trkpt>
      <trkpt lat="50.22938" lon="1.86536">
        <ele>90.422241210938</ele>
        <time>2019-05-07T23:06:15.899Z</time>
      </trkpt>
      <trkpt lat="50.22933" lon="1.86547">
        <ele>90.289695739746</ele>
        <time>2019-05-07T23:06:23.355Z</time>
      </trkpt>
      <trkpt lat="50.22922" lon="1.86555">
        <ele>90.034057617188</ele>
        <time>2019-05-07T23:06:30.813Z</time>
      </trkpt>
      <trkpt lat="50.22913" lon="1.86559">
        <ele>89.816436767578</ele>
        <time>2019-05-07T23:06:38.273Z</time>
      </trkpt>
      <trkpt lat="50.22908" lon="1.86571">
        <ele>89.705009460449</ele>
        <time>2019-05-07T23:06:45.735Z</time>
      </trkpt>
      <trkpt lat="50.22896" lon="1.86593">
        <ele>89.653480529785</ele>
        <time>2019-05-07T23:06:53.201Z</time>
      </trkpt>
      <trkpt lat="50.22888" lon="1.86608">
        <ele>89.645133972168</ele>
        <time>2019-05-07T23:07:00.669Z</time>
      </trkpt>
      <trkpt lat="50.22866" lon="1.86641">
        <ele>89.666534423828</ele>
        <time>2019-05-07T23:07:08.143Z</time>
      </trkpt>
      <trkpt lat="50.22857" lon="1.86652">
        <ele>89.685241699219</ele>
        <time>2019-05-07T23:07:15.620Z</time>
      </trkpt>
      <trkpt lat="50.22851" lon="1.86665">
        <ele>89.555122375488</ele>
        <time>2019-05-07T23:07:23.099Z</time>
      </trkpt>
      <trkpt lat="50.22834" lon="1.86666">
        <ele>89.345840454102</ele>
        <time>2019-05-07T23:07:30.581Z</time>
      </trkpt>
      <trkpt lat="50.22813" lon="1.86649">
        <ele>89.123680114746</ele>
        <time>2019-05-07T23:07:38.068Z</time>
      </trkpt>
      <trkpt lat="50.22795" lon="1.86626">
        <ele>88.641166687012</ele>
        <time>2019-05-07T23:07:45.559Z</time>
      </trkpt>
      <trkpt lat="50.2278" lon="1.86612">
        <ele>88.280937194824</ele>
        <time>2019-05-07T23:07:53.054Z</time>
      </trkpt>
      <trkpt lat="50.22767" lon="1.86593">
        <ele>87.893157958984</ele>
        <time>2019-05-07T23:08:00.553Z</time>
      </trkpt>
      <trkpt lat="50.22756" lon="1.86582">
        <ele>87.638725280762</ele>
        <time>2019-05-07T23:08:08.054Z</time>
      </trkpt>
      <trkpt lat="50.22736" lon="1.86568">
        <ele>87.230628967285</ele>
        <time>2019-05-07T23:08:15.559Z</time>
      </trkpt>
      <trkpt lat="50.22721" lon="1.86542">
        <ele>86.731117248535</ele>
        <time>2019-05-07T23:08:23.069Z</time>
      </trkpt>
      <trkpt lat="50.22705" lon="1.86517">
        <ele>86.325775146484</ele>
        <time>2019-05-07T23:08:30.584Z</time>
      </trkpt>
      <trkpt lat="50.22691" lon="1.86503">
        <ele>86.160743713379</ele>
        <time>2019-05-07T23:08:38.102Z</time>
      </trkpt>
      <trkpt lat="50.22661" lon="1.86474">
        <ele>86.188522338867</ele>
        <time>2019-05-07T23:08:45.627Z</time>
      </trkpt>
      <trkpt lat="50.22641" lon="1.8645">
        <ele>86.467094421387</ele>
        <time>2019-05-07T23:08:53.157Z</time>
      </trkpt>
      <trkpt lat="50.22609" lon="1.8641">
        <ele>86.469871520996</ele>
        <time>2019-05-07T23:09:00.695Z</time>
      </trkpt>
      <trkpt lat="50.2258" lon="1.8639">
        <ele>85.839332580566</ele>
        <time>2019-05-07T23:09:08.239Z</time>
      </trkpt>
      <trkpt lat="50.22566" lon="1.86375">
        <ele>85.490570068359</ele>
        <time>2019-05-07T23:09:15.787Z</time>
      </trkpt>
      <trkpt lat="50.22553" lon="1.8637">
        <ele>85.175598144531</ele>
        <time>2019-05-07T23:09:23.338Z</time>
      </trkpt>
      <trkpt lat="50.22535" lon="1.86371">
        <ele>84.740547180176</ele>
        <time>2019-05-07T23:09:30.892Z</time>
      </trkpt>
      <trkpt lat="50.22508" lon="1.86372">
        <ele>84.147811889648</ele>
        <time>2019-05-07T23:09:38.452Z</time>
      </trkpt>
      <trkpt lat="50.22495" lon="1.86372">
        <ele>83.975547790527</ele>
        <time>2019-05-07T23:09:46.014Z</time>
      </trkpt>
    </trkseg>
  </trk>
</gpx>